     2              OBSERVATION DATA    GPS                 RINEX VERSION / TYPE
teqc 1998Mar9 19980312 00:57:02UTC                          PGM / RUN BY / DATE
                                                            COMMENT
Original Marker Name: unknown                               COMMENT
Campaign Name: Cholame 1989                                 COMMENT
4-Character Station Name: FOLD                              COMMENT
6-Character Antenna Code: TI4100                            COMMENT
Vertical Measurement Point: PAE                             COMMENT
Vertical Offset to Rinex Ref. Point: 0.0000                 COMMENT
Radial Measurement Point: PAE                               COMMENT
Radial Offset to Rinex Ref. Point: 0.0842                   COMMENT
Antenna Height from Field Measurement: 1.1610 m             COMMENT
Original XYZ: -2601066.4272 -4496860.9896 3688746.7006      COMMENT
New XYZ position is based on association with SCEC monument COMMENT
E1F1C7M9+0011. Position of that monument is believed to be  COMMENT
valid to within 1 m horizontally; vertical accuracy         COMMENT
should be no worse than 3-times this value.                 COMMENT
                                                            COMMENT
Revised Rinex header created by UCSD GPS archive for        COMMENT
GSAC on 16-Apr-1999 (1999:106) 23:43:14 GMT                 COMMENT
For assistance contact dagnew@ucsd.edu or hjohnson@ucsd.edu COMMENT
                                                            COMMENT
FOLD                                                        MARKER NAME
unknown UCLA                                                OBSERVER / AGENCY
UN02 TI 4100 1.9                                            REC # / TYPE / VERS
UN02 TI 4100                                                ANT # / TYPE
 -2601052.0000 -4496835.0000  3688734.0000                  APPROX POSITION XYZ
        1.1579        0.0000        0.0000                  ANTENNA: DELTA H/E/N
     1     1     0                                          WAVELENGTH FACT L1/2
     4    P1    P2    L1    L2                              # / TYPES OF OBSERV
     0                                                      INTERVAL
  1989    11    11    10     9   59.000000                  TIME OF FIRST OBS
  1989    11    11    17     4   59.000000                  TIME OF LAST OBS
     0                                                      # OF SATELLITES
                                                            END OF HEADER
 89 11 11 10  9 59.0800000  0  3G 2G 6G11
  22524345.100    22524349.749     1242443.224 9   -520367.167 9
  21954304.962    21954308.352      600067.522 9   -892890.260 8
  23936938.928    23936942.849      333402.020 9  -1033852.102 9
 89 11 11 10 10 29.0800000  0  3G 2G 6G11
  22538777.396    22538782.666     1318290.066 8   -461265.766 9
  21943550.442    21943552.682      543553.199 9   -936927.384 8
  23915741.806    23915745.890      222009.944 9  -1120651.135 8
 89 11 11 10 10 59.0800000  0  3G 2G 6G11
  22553230.762    22553233.560     1394237.192 9   -402086.220 9
  21932812.405    21932816.158      487124.760 9   -980897.596 8
  23894566.582    23894571.414      110735.235 9  -1207358.691 9
 89 11 11 10 11 29.0800000  0  3G 2G 6G11
  22567701.975    22567706.147     1470283.650 9   -342829.238 9
  21922091.313    21922094.726      430783.113 9  -1024800.173 9
  23873414.195    23873421.101        -419.048 8  -1293972.387 9
 89 11 11 10 11 59.0800000  0  3G 2G 6G11
  22582190.788    22582195.177     1546427.861 9   -283496.124 9
  21911386.127    21911389.584      374529.463 9  -1068634.186 9
  23852286.100    23852291.317     -111449.799 9  -1380489.844 9
 89 11 11 10 12 29.0800000  0  3G 2G 6G11
  22596698.984    22596704.792     1622668.422 9   -224087.912 9
  21900698.118    21900701.718      318364.948 9  -1112398.742 8
  23831182.050    23831186.519     -222354.036 9  -1466908.732 9
 89 11 11 10 12 59.0800000  0  3G 2G 6G11
  22611227.044    22611230.675     1699004.846 9   -164605.009 9
  21890027.129    21890030.981      262290.749 9  -1156092.901 9
  23810101.266    23810107.532     -333128.635 9  -1553226.590 8
 89 11 11 10 13 29.0800000  0  3G 2G 6G11
  22625771.291    22625773.479     1775435.403 9   -105048.751 8
  21879374.331    21879376.980      206307.792 9  -1199715.983 9
  23789047.187    23789052.205     -443770.813 9  -1639441.250 9
 89 11 11 10 13 59.0800000  0  3G 2G 6G11
  22640332.033    22640336.213     1851959.151 9    -45419.882 9
  21868738.704    21868741.800      150417.485 9  -1243266.860 9
  23768017.892    23768023.892     -554277.443 9  -1725550.313 9
 89 11 11 10 14 29.0800000  0  3G 2G 6G11
  22654911.373    22654915.375     1928574.609 9     14280.443 9
  21858121.314    21858124.041       94620.806 9  -1286744.787 8
  23747016.652    23747022.434     -664645.624 9  -1811551.485 9
 89 11 11 10 14 59.0800000  0  3G 2G 6G11
  22669508.308    22669512.685     2005281.378 9     74051.917 9
  21847521.211    21847524.966       38918.814 9  -1330148.948 8
  23726040.431    23726046.532     -774872.516 9  -1897442.563 9
 89 11 11 10 15 29.0800000  0  3G 2G 6G11
  22684122.728    22684126.952     2082077.429 9    133892.961 8
  21836939.959    21836941.870      -16687.333 9  -1373478.415 9
  23705092.146    23705097.854     -884955.143 9  -1983221.213 9
 89 11 11 10 15 59.0800000  0  3G 2G 6G11
  22698754.596    22698756.933     2158961.858 9    193802.854 9
  21826376.570    21826381.554      -72196.376 9  -1416732.211 9
  23684172.760    23684178.865     -994890.365 9  -2068885.008 8
 89 11 11 10 16 29.0800000  0  3G 2G 6G11
  22713400.455    22713404.631     2235933.478 9    253780.726 9
  21815831.756    21815835.915     -127607.291 9  -1459909.533 9
  23663281.659    23663286.271    -1104675.225 9  -2154431.631 9
 89 11 11 10 16 59.0800000  0  3G 2G 6G11
  22728065.396    22728068.993     2312991.024 9    313825.532 9
  21805306.060    21805309.593     -182918.966 9  -1503009.526 8
  23642418.881    23642424.336    -1214307.037 8  -2239859.000 9
 89 11 11 10 17 29.0800000  0  3G 2G 6G11
  22742743.383    22742747.935     2390133.341 9    373936.391 9
  21794800.178    21794803.354     -238130.049 9  -1546031.146 9
  23621586.327    23621591.536    -1323782.622 9  -2325164.644 9
 89 11 11 10 17 59.0800000  0  3G 2G 6G11
  22757441.000    22757445.287     2467359.786 9    434112.824 9
  21784312.430    21784317.258     -293239.199 9  -1588973.355 7
  23600783.732    23600790.349    -1433098.884 9  -2410346.138 9
 89 11 11 10 18 29.0800000  0  3G 2G 6G11
  22772150.831    22772155.243     2544668.723 9    494353.521 9
  21773846.227    21773849.259     -348245.335 9  -1631835.295 9
  23580013.048    23580018.286    -1542253.200 9  -2495401.436 9
 89 11 11 10 18 59.0800000  0  3G 2G 6G11
  22786879.519    22786883.079     2622059.421 9    554657.946 9
  21763397.846    21763402.666     -403147.072 5  -1674615.866 5
  23559273.223    23559279.152    -1651242.118 9  -2580327.854 9
 89 11 11 10 19 29.0800000  0  3G 2G 6G11
  22801622.118    22801624.038     2699530.674 9    615025.114 9
  21752970.610    21752975.583     -457943.267 9  -1717314.194 9
  23538566.665    23538574.758    -1760062.807 1  -2665123.210 1
 89 11 11 10 19 59.0800000  0  3G 2G 6G11
  22816377.178    22816382.857     2777081.319 9    675454.167 9
  21742563.676    21742568.751     -512632.805 9  -1759929.389 9
  23517889.191    23517894.190    -1868712.210 9  -2749785.043 9
 89 11 11 10 20 29.0800000  0  3G 2G 6G11
  22831150.794    22831154.121     2854710.267 9    735944.205 9
  21732177.381    21732180.819     -567214.396 9  -1802460.486 9
  23497247.814    23497252.402    -1977187.677 9  -2834311.371 9
 89 11 11 10 20 59.0800000  0  3G 2G 6G11
  22845935.848    22845941.442     2932416.153 9    796494.241 9
  21721812.056    21721816.252     -621686.728 9  -1844906.482 9
  23476638.966    23476645.302    -2085486.195 9  -2918699.815 9
 89 11 11 10 21 29.0800000  0  3G 2G 6G11
  22860739.391    22860743.399     3010198.379 9    857103.716 9
  21711467.034    21711471.686     -676048.449 7  -1887266.279 7
  23456065.718    23456069.675    -2193604.723 9  -3002948.008 9
 89 11 11 10 21 59.0800000  0  3G 2G 6G11
  22875554.614    22875558.563     3088055.661 9    917771.700 9
  21701143.816    21701147.924     -730298.264 7  -1929538.861 7
  23435524.951    23435530.681    -2301540.408 9  -3087053.726 9
 89 11 11 10 22 29.0800000  0  3G 2G 6G11
  22890384.089    22890388.251     3165987.296 9    978497.599 9
  21690841.590    21690845.992     -784434.828 7  -1971723.182 8
  23415021.068    23415026.604    -2409289.946 9  -3171014.380 9
 89 11 11 10 22 59.0800000  0  3G 2G 6G11
  22905228.926    22905232.549     3243991.617 9   1039280.171 9
  21680562.850    21680566.040     -838456.859 8  -2013818.264 7
  23394552.545    23394558.757    -2516850.679 9  -3254827.925 9
 89 11 11 10 23 29.0800000  0  3G 2G 6G11
  22920084.240    22920089.109     3322068.449 8   1100119.201 9
  21670304.176    21670308.490     -892363.041 6  -2055823.073 7
  23374121.633    23374126.261    -2624219.442 9  -3338491.880 9
 89 11 11 10 23 59.0800000  0  3G 2G 6G11
  22934958.594    22934962.572     3400216.601 9   1161013.854 9
  21660068.021    21660072.321     -946151.688 9  -2097736.305 8
  23353726.937    23353731.811    -2731392.706 9  -3422003.513 9
 89 11 11 10 24 29.0800000  0  3G 2G 6G11
  22949841.768    22949845.234     3478434.909 9   1221963.124 9
  21649855.007    21649857.688     -999821.814 9  -2139557.182 9
  23333369.774    23333376.061    -2838368.393 9  -3505361.160 9
 89 11 11 10 24 59.0800000  0  3G 2G 6G11
  22964738.620    22964742.590     3556722.203 9   1282966.189 9
  21639664.801    21639669.218    -1053371.979 9  -2181284.584 8
  23313050.931    23313056.190    -2945143.409 9  -3588562.457 9
 89 11 11 10 25 29.0800000  0  3G 2G 6G11
  22979648.283    22979654.537     3635077.703 9   1344022.383 9
  21629498.317    21629501.735    -1106800.803 9  -2222917.441 9
  23292771.968    23292777.332    -3051714.274 9  -3671604.679 9
 89 11 11 10 25 59.0800000  0  4G 2G 6G11G 9
  22994572.732    22994575.262     3713499.687 8   1405130.400 9
  21619354.899    21619358.147    -1160106.882 9  -2264454.636 9
  23272531.567    23272536.724    -3158078.350 9  -3754485.745 9
                                  30389685.859    -5939958.309 3
 89 11 11 10 26 29.0800000  0  4G 2G 6G11G 9
  23009507.985    23009512.217     3791987.760 9   1466289.908 9
  21609234.581    21609238.150    -1213288.897 9  -2305895.150 9
  23252330.788    23252336.013    -3264233.077 9  -3837203.707 9
                                  30308588.241    -7050178.083 3
 89 11 11 10 26 59.0800000  0  4G 2G 6G11G 9
  23024457.458    23024461.095     3870540.810 9   1527500.053 9
  21599137.269    21599141.457    -1266345.357 9  -2347237.829 9
  23232170.951    23232175.867    -3370175.337 9  -3919756.098 9
                                  29947863.641    -8938387.604 3
 89 11 11 10 27 29.0800000  0  4G 2G 6G11G 9
  23039418.229    23039421.510     3949158.336 9   1588760.425 9
  21589064.744    21589069.271    -1319274.940 9  -2388481.657 9
  23212052.038    23212057.503    -3475901.881 9  -4002140.392 9
                                  29277582.022   -11612490.078 3
 89 11 11 10 27 59.0800000  0  4G 2G 6G11G 9
  23054388.413    23054393.067     4027839.282 9   1650070.215 9
  21579018.168    21579020.680    -1372076.185 9  -2429625.490 9
  23191975.129    23191978.959    -3581410.100 9  -4084354.592 9
                                  28716923.816   -15062637.592 3
 89 11 11 10 28 29.0800000  0  4G 2G 6G11G 9
  23069374.583    23069378.128     4106581.971 9   1711428.126 9
  21568994.035    21568998.024    -1424747.702 9  -2470668.240 8
  23171938.318    23171943.698    -3686697.146 9  -4166396.434 8
                                  27798862.180   -19294472.838 3
 89 11 11 10 28 59.0800000  0  4G 2G 6G11G 9
  23084369.531    23084374.345     4185386.429 9   1772834.174 9
  21558996.489    21559000.119    -1477288.039 9  -2511608.768 8
  23151945.343    23151950.861    -3791759.920 9  -4248263.511 9
                                  26905379.943   -24307282.471 3
 89 11 11 10 29 29.0800000  0  4G 2G 6G11G 9
  23099378.323    23099381.449     4264250.804 9   1834286.897 9
  21549022.752    21549028.236    -1529695.906 9  -2552446.046 9
  23131997.106    23132001.162    -3896595.579 9  -4329953.641 8
                                  25975650.162   -30105014.362 3
 89 11 11 10 29 59.0800000  0  4G 2G 6G11G 9
  23114395.603    23114399.630     4343174.361 8   1895785.729 9
  21539075.938    21539080.138    -1581969.738 7  -2593178.891 8
  23112089.879    23112095.321    -4001201.124 9  -4411464.438 9
                  24461740.617   -34740457.687 3
 89 11 11 10 30 29.0800000  0  4G 2G 6G11G 9
  23129427.044    23129430.483     4422156.572 9   1957330.300 9
  21529154.480    21529158.176    -1634108.046 9  -2633806.119 9
  23092228.399    23092233.982    -4105573.632 9  -4492793.637 9
                  23277517.970   -28751778.544 3
 89 11 11 10 30 59.0800000  0  4G 2G 6G11G 9
  23144465.479    23144470.311     4501196.094 9   2018919.498 9
  21519258.213    21519262.314    -1686109.422 9  -2674326.654 8
  23072412.689    23072417.043    -4209710.354 9  -4573939.131 9
                  21525331.241   -23544030.952 3
 89 11 11 10 31 29.0800000  0  4G 2G 6G11G 9
  23159518.526    23159524.356     4580292.076 9   2080552.702 9
  21509390.508    21509392.469    -1737972.328 9  -2714739.313 9
  23052641.566    23052647.194    -4313608.294 9  -4654898.558 9
                  20022296.839   -19119838.870 3
 89 11 11 10 31 59.0800000  0  4G 2G 6G11G 9
  23174578.423    23174583.564     4659444.081 9   2142229.555 9
  21499547.448    21499550.605    -1789695.236 9  -2755042.886 9
  23032916.325    23032921.256    -4417264.648 9  -4735669.726 9
                  30515435.685    -7915421.386 3
 89 11 11 10 32 29.0800000  0  4G 2G 6G11G 9
  23189654.844    23189656.465     4738650.176 9   2203948.573 9
  21489731.889    21489735.565    -1841276.687 9  -2795236.220 9
  23013237.049    23013242.675    -4520676.245 9  -4816250.164 9
                  30332277.106    -8559435.104 3
 89 11 11 10 32 59.0800000  0  4G 2G 6G11G 9
  23204734.083    23204740.756     4817910.663 9   2265709.952 9
  21479942.802    21479946.954    -1892715.266 9  -2835318.226 9
  22993605.591    22993611.091    -4623840.269 9  -4896637.689 9
                  30144836.193    -9985172.496 3
 89 11 11 10 33 29.0800000  0  4G 2G 6G11G 9
  23219827.838    23219833.283     4897224.471 9   2327512.870 9
  21470182.896    21470185.714    -1944009.289 8  -2875287.563 8
  22974022.059    22974027.556    -4726753.985 9  -4976830.180 9
                  29592701.166   -12190870.492 3
 89 11 11 10 33 59.0800000  0  4G 2G 6G11G 9
  23234933.049    23234933.965     4976590.385 9   2389356.454 9
  21460449.424    21460452.850    -1995157.304 9  -2915143.138 9
  22954486.096    22954491.780    -4829414.591 9  -5056825.435 9
                  29174550.629   -15177035.450 3
 89 11 11 10 34 29.0800000  0  4G 2G 6G11G 9
  23250042.366    23250049.725     5056007.372 9   2451239.756 9
  21450744.785    21450746.843    -2046157.658 9  -2954883.668 9
  22934999.870    22935005.230    -4931819.132 9  -5136621.161 9
                  28366591.448   -18944238.477 3
 89 11 11 10 34 59.0800000  0  4G 2G 6G11G 9
  23265169.139    23265170.779     5135473.958 9   2513161.750 9
  21441067.341    21441070.506    -2097008.773 9  -2994507.939 7
  22915561.774    22915567.258    -5033964.698 9  -5216215.096 9
                  27634332.954   -23493271.560 3
 89 11 11 10 35 29.0800000  0  4G 2G 6G11G 9
  23280296.610    23280299.637     5214990.883 9   2575122.963 8
  21431418.191    21431421.935    -2147709.069 9  -3034014.669 8
  22896174.058    22896179.636    -5135848.385 9  -5295604.959 9
                  26612633.711   -28819506.175 3
 89 11 11 10 35 59.0800000  0  4G 2G 6G11G 9
  23295437.820    23295442.687     5294556.767 9   2637122.297 8
  21421800.653    21421803.608    -2198256.912 9  -3073402.575 9
  22876836.297    22876841.569    -5237467.473 9  -5374788.643 9
                  25308385.054   -34931387.922 3
 89 11 11 10 36 29.0800000  0  4G 2G 6G11G 9
  23310589.094    23310594.956     5374170.520 9   2699158.964 9
  21412211.607    21412214.836    -2248650.761 9  -3112670.485 9
  22857550.276    22857554.972    -5338819.032 9  -5453763.855 9
                  24066714.442   -34493129.712 3
 89 11 11 10 36 59.0800000  0  4G 2G 6G11G 9
  23325744.629    23325751.418     5453831.382 8   2761232.333 9
  21402651.029    21402654.698    -2298889.030 9  -3151817.169 8
  22838314.495    22838320.722    -5439899.870 9  -5532528.118 8
                  22485287.360   -28819233.924 3
 89 11 11 10 37 29.0800000  0  3G 2G 6G11
  23340917.116    23340919.668     5533539.212 9   2823342.322 9
  21393121.736    21393122.960    -2348970.147 9  -3190841.421 8
  22819132.720    22819137.644    -5540707.464 9  -5611079.474 9
 89 11 11 10 37 59.0800000  0  3G 2G 6G11
  23356091.769    23356096.831     5613292.541 1   2885487.723 1
  21383620.553    21383623.875    -2398892.516 9  -3229741.963 7
  22800002.589    22800006.550    -5641239.253 8  -5689415.907 8
 89 11 11 10 38 29.0800000  0  4G 2G 6G11G 9
  23371277.956    23371281.450     5693090.732 8   2947668.078 9
  21374151.222    21374154.459    -2448654.375 8  -3268517.438 9
  22780924.065    22780929.614    -5741492.021 9  -5767534.950 9
  23996348.125    23996354.147   -10134363.143 9  12972115.473 9
 89 11 11 10 38 59.0800000  0  4G 2G 6G11G 9
  23386472.835    23386474.463     5772932.595 9   3009882.496 9
  21364713.480    21364715.683    -2498254.046 9  -3307166.527 8
  22761899.946    22761905.715    -5841462.863 9  -5845434.272 9
  23979890.138    23979894.465   -10220855.317 9  12904718.946 8
 89 11 11 10 39 29.0800000  0  4G 2G 6G11G 9
  23401671.871    23401676.807     5852818.205 9   3072131.009 9
  21355306.361    21355309.853    -2547690.166 9  -3345688.181 9
  22742929.814    22742935.750    -5941148.980 9  -5923111.758 9
  23963427.825    23963431.586   -10307368.629 9  12837305.973 9
 89 11 11 10 39 59.0800000  0  4G 2G 6G11G 9
  23416881.996    23416887.135     5932746.125 9   3134412.446 9
  21345930.292    21345933.799    -2596960.948 9  -3384080.993 9
  22724015.883    22724020.953    -6040547.656 9  -6000565.254 9
  23946962.057    23946966.132   -10393902.000 9  12769877.394 9
 89 11 11 10 40 29.0800000  0  4G 2G 6G11G 9
  23432100.700    23432102.867     6012715.364 9   3196726.094 8
  21336583.955    21336589.267    -2646064.665 8  -3422343.595 8
  22705155.424    22705160.988    -6139656.178 9  -6077792.642 9
  23930490.714    23930494.728   -10480454.520 9  12702433.917 9
 89 11 11 10 40 59.0800000  0  4G 2G 6G11G 9
  23447324.822    23447328.968     6092725.964 9   3259071.987 9
  21327273.883    21327276.758    -2694999.556 8  -3460474.638 8
  22686352.102    22686356.742    -6238471.369 9  -6154791.477 9
  23914016.545    23914020.181   -10567025.151 9  12634976.300 9
 89 11 11 10 41 29.0800000  0  4G 2G 6G11G 9
  23462558.448    23462562.356     6172776.385 9   3321448.899 9
  21317994.915    21317995.876    -2743764.275 9  -3498473.141 8
  22667604.143    22667609.571    -6336990.884 9  -6231559.900 9
  23897539.399    23897544.052   -10653613.371 9  12567504.963 9
 89 11 11 10 41 59.0800000  0  4G 2G 6G11G 9
  23477801.057    23477803.988     6252866.441 9   3383856.694 9
  21308747.345    21308751.696    -2792356.882 9  -3536337.543 8
  22648913.140    22648918.726    -6435211.772 9  -6308095.650 9
  23881058.849    23881063.258   -10740218.027 9  12500020.826 9
 89 11 11 10 42 29.0800000  0  4G 2G 6G11G 9
  23493044.494    23493050.545     6332995.016 9   3446294.531 9
  21299532.510    21299537.162    -2840775.788 9  -3574066.537 9
  22630279.813    22630284.595    -6533131.329 9  -6384396.577 9
  23864574.615    23864579.831   -10826838.087 9  12432524.685 9
 89 11 11 10 42 59.0800000  0  4G 2G 6G11G 9
  23508301.784    23508306.303     6413161.756 9   3508762.078 9
  21290351.705    21290356.943    -2889019.196 9  -3611658.765 9
  22611703.578    22611709.146    -6630746.750 8  -6460460.520 8
  23848090.028    23848093.221   -10913472.669 9  12365017.236 9
 89 11 11 10 43 29.0800000  0  4G 2G 6G11G 9
  23523564.541    23523568.481     6493365.954 9   3571258.847 9
  21281206.272    21281209.305    -2937085.444 9  -3649112.947 8
  22593187.343    22593192.353    -6728055.225 9  -6536285.288 9
  23831601.947    23831605.291   -11000120.850 8  12297499.207 9
 89 11 11 10 43 59.0800000  0  4G 2G 6G11G 9
  23538832.131    23538838.535     6573606.020 9   3633783.523 9
  21272093.635    21272096.282    -2984972.820 9  -3686427.807 7
  22574728.284    22574733.855    -6825053.941 9  -6611868.682 9
  23815110.542    23815114.844   -11086781.615 9  12229971.366 9
 89 11 11 10 44 29.0800000  0  4G 2G 6G11G 9
  23554110.997    23554114.309     6653882.101 9   3696336.281 9
  21263015.197    21263018.506    -3032679.548 9  -3723601.899 7
  22556329.872    22556335.068    -6921740.250 9  -6687208.640 9
  23798617.415    23798620.982   -11173453.674 8  12162434.737 9
 89 11 11 10 44 59.0800000  0  4G 2G 6G11G 9
  23569392.483    23569397.371     6734193.831 8   3758916.811 9
  21253969.956    21253975.667    -3080203.973 9  -3760633.881 9
  22537991.576    22537995.857    -7018111.292 9  -6762302.940 9
  23782122.465    23782125.402   -11260136.516 9  12094889.670 9
 89 11 11 10 45 29.0800000  0  4G 2G 6G11G 9
  23584681.067    23584686.389     6814539.908 9   3821524.099 9
  21244962.723    21244966.787    -3127544.420 9  -3797522.525 8
  22519712.766    22519717.117    -7114164.677 9  -6837149.717 9
  23765624.829    23765628.967   -11346828.923 8  12027337.183 8
 89 11 11 10 45 59.0800000  0  4G 2G 6G11G 9
  23599978.477    23599982.108     6894919.814 9   3884157.773 9
  21235990.575    21235993.019    -3174698.857 9  -3834266.226 8
  22501495.034    22501500.595    -7209897.434 9  -6911746.651 9
  23749125.337    23749130.687   -11433529.626 8  11959778.209 9
 89 11 11 10 46 29.0800000  0  4G 2G 6G11G 9
  23615278.879    23615283.408     6975332.717 9   3946817.158 8
  21227052.394    21227055.674    -3221665.622 9  -3870863.678 9
  22483339.166    22483344.942    -7305307.001 8  -6986091.742 9
  23732626.078    23732630.003   -11520237.776 8  11892213.436 8
 89 11 11 10 46 59.0800000  0  4G 2G 6G11G 9
  23630587.963    23630593.305     7055777.919 9   4009501.699 9
  21218149.990    21218152.306    -3268443.251 9  -3907313.787 8
  22465245.544    22465250.786    -7400390.509 9  -7060182.774 9
  23716125.408    23716129.816   -11606952.568 7  11824643.517 9
 89 11 11 10 47 29.0800000  0  4G 2G 6G11G 9
  23645902.859    23645907.179     7136255.147 9   4072211.199 9
  21209284.015    21209288.178    -3315029.687 8  -3943614.883 8
  22447214.748    22447219.374    -7495145.139 9  -7134017.516 9
  23699622.110    23699626.661   -11693672.693 7  11757069.404 9
 89 11 11 10 47 59.0800000  0  4G 2G 6G11G 9
  23661223.142    23661226.892     7216763.405 9   4134944.876 9
  21200456.845    21200460.456    -3361423.279 9  -3979765.730 8
  22429246.890    22429251.852    -7589568.636 9  -7207594.251 8
  23683119.074    23683124.499   -11780397.007 7  11689492.071 8
 89 11 11 10 48 29.0800000  0  4G 2G 6G11G 9
  23676548.004    23676553.412     7297302.080 8   4197702.258 9
  21191666.139    21191670.088    -3407622.301 9  -4015764.968 9
  22411341.714    22411346.018    -7683658.247 9  -7280910.814 9
  23666616.732    23666619.757   -11867124.707 8  11621912.081 7
 89 11 11 10 48 59.0800000  0  4G 2G 6G11G 9
  23691881.576    23691883.868     7377870.076 9   4260482.460 9
  21182911.089    21182915.383    -3453624.938 9  -4051611.140 8
  22393500.958    22393506.006    -7777411.288 9  -7353965.101 8
  23650111.500    23650114.891   -11953854.661 8  11554330.286 7
 89 11 11 10 49 29.0800000  0  4G 2G 6G11G 9
  23707217.090    23707222.834     7458466.993 9   4323285.231 9
  21174195.301    21174198.697    -3499429.365 9  -4087302.895 7
  22375725.315    22375730.332    -7870824.935 9  -7426754.935 9
  23633607.139    23633610.174   -12040585.485 9  11486747.875 7
 89 11 11 10 49 59.0800000  0  4G 2G 6G11G 9
  23722558.776    23722565.174     7539092.695 9   4386110.389 9
  21165516.721    21165519.715    -3545033.714 9  -4122838.766 9
  22358013.175    22358019.432    -7963896.488 9  -7499278.209 9
  23617102.683    23617106.066   -12127316.380 9  11419165.366 7
 89 11 11 10 50 29.0800000  0  4G 2G 6G11G 9
  23737907.010    23737912.029     7619746.121 9   4448957.201 9
  21156877.378    21156881.228    -3590436.324 9  -4158217.411 9
  22340369.399    22340374.027    -8056623.445 9  -7571532.950 9
  23600598.485    23600602.648   -12214046.246 9  11351583.660 8
 89 11 11 10 50 59.0800000  0  4G 2G 6G11G 9
  23753262.576    23753264.779     7700426.960 8   4511825.367 8
  21148276.035    21148279.243    -3635635.164 9  -4193437.274 9
  22322789.063    22322794.541    -8149003.249 9  -7643517.194 9
  23584094.570    23584097.801   -12300773.416 9  11284004.047 7
 89 11 11 10 51 29.0800000  0  4G 2G 6G11G 9
  23768616.546    23768623.837     7781134.731 8   4574714.477 9
  21139714.160    21139717.896    -3680628.381 9  -4228496.916 8
  22305276.953    22305282.366    -8241033.104 9  -7715228.769 9
  23567592.502    23567594.829   -12387496.998 9  11216427.258 8
 89 11 11 10 51 59.0800000  0  4G 2G 6G11G 9
  23783983.034    23783987.224     7861868.265 9   4637623.685 8
  21131191.127    21131195.352    -3725414.206 9  -4263394.957 8
  22287831.137    22287836.099    -8332710.661 9  -7786665.793 9
  23551090.136    23551094.603   -12474216.096 9  11148853.966 8
 89 11 11 10 52 29.0800000  0  4G 2G 6G11G 9
  23799350.307    23799354.567     7942627.450 9   4700552.865 9
  21122708.858    21122712.861    -3769990.898 9  -4298130.037 8
  22270452.377    22270458.197    -8424033.347 9  -7857826.311 9
  23534588.943    23534592.672   -12560929.400 9  11081285.162 9
 89 11 11 10 52 59.0800000  0  4G 2G 6G11G 9
  23814723.901    23814726.638     8023411.653 9   4763501.570 9
  21114266.758    21114269.372    -3814356.499 9  -4332700.624 8
  22253142.029    22253147.183    -8514998.368 9  -7928708.135 9
  23518089.770    23518094.613   -12647635.599 5  11013721.927 4
 89 11 11 10 53 29.0800000  0  4G 2G 6G11G 9
  23830099.673    23830105.311     8104220.196 9   4826469.225 9
  21105864.018    21105867.929    -3858509.263 9  -4367105.378 9
  22235901.432    22235906.276    -8605603.263 9  -7999309.322 9
  23501590.786    23501595.422   -12734333.657 9  10946165.021 8
 89 11 11 10 53 59.0800000  0  4G 2G 6G11G 9
  23845481.988    23845487.253     8185052.263 9   4889455.189 9
  21097503.495    21097505.831    -3902447.302 8  -4401342.820 9
  22218728.012    22218733.470    -8695845.583 9  -8069627.985 8
  23485094.495    23485099.969   -12821022.188 9  10878615.519 8
 89 11 11 10 54 29.0800000  0  4G 2G 6G11G 9
  23860867.335    23860872.975     8265907.049 9   4952458.899 9
  21089182.599    21089187.609    -3946168.888 9  -4435411.557 8
  22201624.795    22201630.948    -8785722.635 9  -8139662.033 9
  23468600.788    23468604.552   -12907700.373 9  10811074.124 9
 89 11 11 10 54 59.0800000  0  4G 2G 6G11G 9
  23876259.466    23876263.639     8346784.458 9   5015480.221 9
  21080905.794    21080907.851    -3989671.777 9  -4469309.888 9
  22184592.435    22184597.508    -8875231.740 9  -8209409.347 9
  23452108.327    23452111.913   -12994366.442 9  10743542.142 9
 89 11 11 10 55 29.0800000  0  4G 2G 6G11G 9
  23891654.730    23891659.106     8427684.216 9   5078518.944 9
  21072669.094    21072671.194    -4032954.232 9  -4503036.486 8
  22167629.088    22167634.139    -8964370.656 9  -8278868.220 9
  23435618.990    23435622.658   -13081019.278 9  10676020.494 8
 89 11 11 10 55 59.0800000  0  4G 2G 6G11G 9
  23907052.973    23907057.084     8508605.253 9   5141574.276 9
  21064474.220    21064477.550    -4076014.473 9  -4536589.949 9
  22150738.440    22150744.249    -9053136.810 9  -8348036.624 8
  23419132.229    23419136.036   -13167657.807 8  10608509.960 9
 89 11 11 10 56 29.0800000  0  4G 2G 6G11G 9
  23922455.416    23922460.583     8589547.325 9   5204645.972 9
  21056323.318    21056327.350    -4118850.635 8  -4569968.756 8
  22133917.949    22133923.242    -9141527.666 8  -8416912.599 9
  23402648.244    23402651.943   -13254280.633 9  10541011.684 8
 89 11 11 10 56 59.0800000  0  4G 2G 6G11G 9
  23937863.182    23937866.403     8670509.984 9   5267733.714 9
  21048215.973    21048218.760    -4161460.788 9  -4603171.437 9
  22117169.741    22117174.605    -9229540.677 9  -8485494.146 9
  23386167.724    23386171.213   -13340886.564 8  10473526.612 9
 89 11 11 10 57 29.0800000  0  4G 2G 6G11G 9
  23953271.674    23953277.124     8751492.150 9   5330836.661 9
  21040150.783    21040153.441    -4203842.933 9  -4636196.494 9
  22100493.859    22100498.830    -9317173.449 9  -8553779.390 9
  23369689.591    23369694.582   -13427474.280 8  10406055.692 9
 89 11 11 10 57 59.0800000  0  4G 2G 6G11G 9
  23968686.642    23968691.494     8832493.871 9   5393954.837 9
  21032125.773    21032130.792    -4245995.301 8  -4669042.496 9
  22083890.624    22083895.467    -9404423.477 9  -8621766.401 9
  23353216.241    23353221.787   -13514042.639 8  10338599.861 8
 89 11 11 10 58 29.0800000  0  4G 2G 6G11G 9
  23984104.639    23984108.822     8913514.252 9   5457087.569 9
  21024150.659    21024154.076    -4287915.923 9  -4701707.887 9
  22067360.885    22067365.327    -9491288.326 9  -8689453.263 9
  23336747.452    23336751.163   -13600589.965 8  10271160.433 9
 89 11 11 10 58 59.0800000  0  4G 2G 6G11G 9
  23999525.347    23999529.946     8994552.687 9   5520234.339 9
  21016219.460    21016221.490    -4329602.762 9  -4734191.143 9
  22050904.509    22050908.798    -9577765.589 9  -8756838.114 9
  23320282.219    23320286.112   -13687115.186 8  10203738.223 8
 89 11 11 10 59 29.0800000  0  4G 2G 6G11G 9
  24014950.650    24014955.112     9075609.018 9   5583395.090 9
  21008330.889    21008334.835    -4371053.902 9  -4766490.732 8
  22034523.110    22034526.615    -9663852.595 9  -8823918.876 9
  23303821.628    23303826.716   -13773616.744 9  10136334.425 9
 89 11 11 10 59 59.0800000  0  4G 2G 6G11G 9
  24030377.912    24030382.053     9156682.645 9   5646569.334 9
  21000486.933    21000491.681    -4412267.567 8  -4798605.249 8
  22018215.879    22018220.368    -9749547.041 9  -8890693.744 9
  23287365.485    23287370.534   -13860093.316 9  10068950.076 8
 89 11 11 11  0 29.0800000  0  4G 2G 6G11G 9
  24045809.446    24045813.057     9237773.576 8   5709757.004 9
  20992690.069    20992693.658    -4453241.730 9  -4830533.156 8
  22001983.725    22001988.422    -9834846.501 9  -8957160.829 9
  23270915.420    23270919.478   -13946543.648 9  10001586.180 8
 89 11 11 11  0 59.0800000  0  4G 2G 6G11G 9
  24061243.562    24061247.424     9318880.762 9   5772957.321 9
  20984940.497    20984942.197    -4493974.318 9  -4862272.813 8
  21985827.703    21985831.910    -9919748.536 9  -9023318.235 9
  23254469.060    23254471.701   -14032966.295 9   9934243.849 7
 89 11 11 11  1 29.0800000  0  4G 2G 6G11G 9
  24076679.911    24076685.060     9400003.790 8   5836170.044 9
  20977235.484    20977237.870    -4534463.535 9  -4893822.865 9
  21969746.682    21969751.497   -10004250.876 9  -9089164.203 9
  23238028.739    23238033.805   -14119359.874 9   9866924.196 7
 89 11 11 11  1 59.0800000  0  4G 2G 6G11G 9
  24092119.687    24092125.057     9481142.547 8   5899394.993 8
  20969575.487    20969580.678    -4574707.366 8  -4925181.716 8
  21953743.189    21953748.662   -10088351.415 9  -9154697.070 9
  23221595.355    23221598.132   -14205722.939 9   9799628.317 8
 89 11 11 11  2 29.0800000  0  4G 2G 6G11G 9
  24107563.398    24107569.835     9562296.021 8   5962631.411 9
  20961964.514    20961970.220    -4614703.971 8  -4956347.871 9
  21937817.094    21937820.328   -10172048.080 9  -9219915.226 9
  23205165.859    23205170.013   -14292054.259 9   9732357.167 8
 89 11 11 11  2 59.0800000  0  4G 2G 6G11G 9
  24123008.496    24123014.504     9643463.633 8   6025878.875 8
  20954402.807    20954404.779    -4654451.392 9  -4987319.864 8
  21921967.514    21921971.066   -10255338.141 9  -9284816.564 9
  23188745.263    23188747.439   -14378352.457 8   9665111.843 9
 89 11 11 11  3 29.0800000  0  4G 2G 6G11G 9
  24138458.604    24138463.180     9724645.626 8   6089137.506 8
  20946886.117    20946888.560    -4693947.421 9  -5018096.007 7
  21906195.987    21906200.204   -10338218.872 9  -9349398.922 9
  23172329.457    23172333.143   -14464615.735 9   9597893.709 9
 89 11 11 11  3 59.0800000  0  4G 2G 6G11G 9
  24153909.948    24153913.867     9805841.209 9   6152406.766 7
  20939416.418    20939422.225    -4733190.354 9  -5048674.938 9
  21890501.322    21890505.936   -10420688.072 9  -9413660.633 9
  23155920.720    23155924.720   -14550842.901 9   9530703.747 8
 89 11 11 11  4 29.0800000  0  4G 2G 6G11G 9
  24169360.571    24169365.898     9887049.803 9   6215686.156 7
  20931998.090    20932003.767    -4772178.120 9  -5079054.986 9
  21874886.481    21874892.783   -10502743.592 9  -9477599.967 9
  23139519.356    23139524.168   -14637032.370 9   9463543.149 9
 89 11 11 11  4 59.0800000  0  4G 2G 6G11G 9
  24184816.637    24184822.423     9968271.249 8   6278975.533 8
  20924630.359    20924632.559    -4810908.615 9  -5109234.559 9
  21859351.091    21859356.417   -10584383.275 9  -9541215.271 9
  23123125.339    23123129.232   -14723182.669 9   9396413.060 9
 89 11 11 11  5 29.0800000  0  4G 2G 6G11G 9
  24200276.539    24200280.271    10049504.968 9   6342274.512 8
  20917308.573    20917311.347    -4849379.915 9  -5139212.188 8
  21843895.257    21843900.004   -10665604.795 9  -9604504.756 9
  23106740.073    23106743.698   -14809292.357 9   9329314.618 9
 89 11 11 11  5 59.0800000  0  4G 2G 6G11G 9
  24215737.364    24215741.955    10130750.547 8   6405582.687 8
  20910036.571    20910039.844    -4887590.159 8  -5168986.399 8
  21828518.793    21828524.562   -10746406.105 9  -9667466.795 9
  23090360.827    23090365.217   -14895360.091 9   9262248.870 9
 89 11 11 11  6 29.0800000  0  4G 2G 6G11G 9
  24231199.354    24231204.732    10212007.708 9   6468899.896 9
  20902816.224    20902819.941    -4925537.194 9  -5198555.497 9
  21813224.209    21813229.184   -10826784.687 9  -9730099.433 9
  23073990.954    23073994.335   -14981384.047 9   9195217.228 9
 89 11 11 11  6 59.0800000  0  4G 2G 6G11G 9
  24246664.314    24246670.687    10293275.884 9   6532225.703 8
  20895646.575    20895649.233    -4963219.100 9  -5227918.028 9
  21798008.848    21798014.596   -10906738.475 9  -9792401.048 9
  23057630.375    23057633.123   -15067362.990 9   9128220.648 9
 89 11 11 11  7 29.0800000  0  4G 2G 6G11G 9
  24262132.000    24262136.341    10374554.970 9   6595560.050 8
  20888525.362    20888530.010    -5000633.983 9  -5257072.460 8
  21782875.776    21782880.322   -10986265.315 9  -9854369.998 9
  23041276.445    23041281.240   -15153295.230 9   9061260.462 8
 89 11 11 11  7 59.0800000  0  4G 2G 6G11G 9
  24277600.086    24277604.878    10455844.295 9   6658902.342 8
  20881455.706    20881459.066    -5037779.814 8  -5286017.241 8
  21767822.663    21767829.019   -11065362.597 9  -9916004.223 9
  23024934.422    23024937.559   -15239179.288 9   8994337.831 9
 89 11 11 11  8 29.0800000  0  4G 2G 6G11G 9
  24293071.529    24293075.669    10537143.418 9   6722252.255 9
  20874440.725    20874443.325    -5074654.452 9  -5314750.732 8
  21752853.488    21752859.465   -11144028.284 9  -9977302.135 8
  23008599.834    23008603.695   -15325013.596 8   8927453.982 9
 89 11 11 11  8 59.0800000  0  4G 2G 6G11G 9
  24308543.794    24308548.363    10618452.500 9   6785609.944 9
  20867475.539    20867478.355    -5111255.979 9  -5343271.407 8
  21737967.600    21737972.057   -11222260.306 9 -10038262.126 9
  22992275.726    22992280.671   -15410796.709 7   8860610.008 9
 89 11 11 11  9 29.0800000  0  4G 2G 6G11G 9
  24324018.520    24324022.710    10699770.553 9   6848974.636 8
  20860561.081    20860565.957    -5147582.282 9  -5371577.620 8
  21723163.085    21723167.570   -11300056.578 9 -10098882.588 8
  22975961.469    22975966.682   -15496526.708 9   8793807.448 9
 89 11 11 11  9 59.0800000  0  4G 2G 6G11G 9
  24339493.804    24339498.924    10781097.312 9   6912346.107 9
  20853700.882    20853705.844    -5183631.428 8  -5399667.831 8
  21708442.389    21708447.225   -11377414.788 9 -10159161.677 9
  22959659.171    22959662.810   -15582202.072 8   8727047.452 9
 89 11 11 11 10 29.0800000  0  4G 2G 6G11G 9
  24354972.150    24354975.989    10862432.405 9   6975724.051 9
  20846896.661    20846899.305    -5219401.375 9  -5427540.498 9
  21693805.520    21693810.739   -11454332.919 9 -10219097.859 9
  22943366.449    22943369.648   -15667821.230 9   8660331.251 9
 89 11 11 11 10 59.0800000  0  4G 2G 6G11G 9
  24370451.390    24370456.332    10943775.428 9   7039108.153 9
  20840142.493    20840143.821    -5254890.161 9  -5455194.129 9
  21679252.503    21679256.588   -11530808.977 9 -10278689.568 9
  22927084.635    22927088.141   -15753382.762 9   8593659.953 9
 89 11 11 11 11 29.0800000  0  4G 2G 6G11G 9
  24385931.675    24385936.438    11025126.146 9   7102498.277 9
  20833441.756    20833446.060    -5290095.785 8  -5482627.087 8
  21664784.279    21664788.485   -11606840.799 9 -10337935.115 8
  22910815.008    22910817.527   -15838885.001 9   8527034.857 9
 89 11 11 11 11 59.0800000  0  4G 2G 6G11G 9
  24401413.499    24401418.934    11106484.145 8   7165894.053 9
  20826796.467    20826801.873    -5325016.172 9  -5509837.765 9
  21650400.597    21650405.125   -11682426.525 9 -10396833.063 9
  22894555.330    22894558.364   -15924326.090 9   8460457.401 8
 89 11 11 11 12 29.0800000  0  3G 6G11G 9
  20820208.412    20820211.550    -5359649.171 9  -5536824.478 9
  21636101.576    21636108.150   -11757563.805 9 -10455381.574 8
  22878308.541    22878311.128   -16009704.515 8   8393928.769 8
 89 11 11 11 12 59.0800000  0  3G 6G11G 9
  20813672.384    20813673.401    -5393993.064 9  -5563585.960 8
  21621889.543    21621894.143   -11832250.881 9 -10513579.281 8
  22862073.052    22862076.491   -16095018.753 9   8327450.156 8
 89 11 11 11 13 29.0800000  0  3G 6G11G 9
  20807189.934    20807193.827    -5428045.644 9  -5590120.460 9
  21607763.595    21607768.223   -11906485.643 9 -10571424.514 9
  22845850.993    22845854.790   -16180266.890 8   8261023.053 8
 89 11 11 11 13 59.0800000  0  3G 6G11G 9
  20800768.112    20800771.830    -5461804.819 9  -5616426.295 8
  21593723.587    21593728.387   -11980266.049 9 -10628915.733 9
  22829642.567    22829644.993   -16265447.242 9   8194648.732 7
 89 11 11 11 14 29.0800000  0  3G 6G11G 9
  20794400.436    20794404.260    -5495268.640 9  -5642501.984 9
  21579769.921    21579774.822   -12053590.391 9 -10686051.555 9
  22813446.372    22813448.501   -16350558.298 9   8128328.411 7
 89 11 11 11 14 59.0800000  0  3G 6G11G 9
  20788086.909    20788090.505    -5528435.140 8  -5668346.013 8
  21565903.828    21565908.499   -12126456.610 9 -10742830.409 9
  22797263.258    22797267.037   -16435598.444 9   8062063.355 9
 89 11 11 11 15 29.0800000  0  3G 6G11G 9
  20781832.669    20781835.202    -5561302.070 9  -5693956.577 8
  21552127.081    21552131.252   -12198862.428 9 -10799250.511 9
  22781094.068    22781098.480   -16520565.386 9   7995855.352 9
 89 11 11 11 15 59.0800000  0  3G 6G11G 9
  20775638.546    20775640.771    -5593867.373 9  -5719332.178 8
  21538435.731    21538440.188   -12270805.932 9 -10855310.352 9
  22764939.487    22764943.802   -16605457.790 9   7929705.444 8
 89 11 11 11 16 29.0800000  0  3G 6G11G 9
  20769497.992    20769503.230    -5626129.327 9  -5744471.351 9
  21524833.070    21524838.972   -12342285.477 9 -10911008.689 8
  22748799.552    22748803.194   -16690273.986 9   7863614.934 9
 89 11 11 11 16 59.0800000  0  3G 6G11G 9
  20763415.920    20763420.178    -5658085.745 9  -5769372.405 9
  21511320.156    21511324.112   -12413298.745 9 -10966343.676 9
  22732675.314    22732679.089   -16775012.076 9   7797585.258 8
 89 11 11 11 17 29.0800000  0  3G 6G11G 9
  20757394.290    20757394.552    -5689734.402 9  -5794033.709 7
  21497895.558    21497900.888   -12483843.846 9 -11021313.867 9
  22716565.274    22716567.439   -16859670.312 8   7731617.824 9
 89 11 11 11 17 59.0800000  0  3G 6G11G 9
  20751430.448    20751436.279    -5721073.266 9  -5818453.640 8
  21484560.479    21484565.279   -12553919.426 9 -11075918.197 9
  22700470.302    22700475.025   -16944246.630 9   7665714.210 8
 89 11 11 11 18 29.0800000  0  3G 6G11G 9
  20745525.041    20745530.965    -5752100.687 9  -5842630.833 9
  21471315.548    21471320.734   -12623523.494 9 -11130155.117 9
  22684392.154    22684395.685   -17028739.735 9   7599875.405 9
 89 11 11 11 18 59.0800000  0  3G 6G11G 9
  20739681.546    20739684.877    -5782814.424 8  -5866563.560 8
  21458160.621    21458165.793   -12692654.245 9 -11184023.213 9
  22668329.703    22668333.550   -17113147.609 9   7534103.020 8
 89 11 11 11 19 29.0800000  0  3G 6G11G 9
  20733898.365    20733899.106    -5813211.992 9  -5890250.011 9
  21445095.356    21445100.914   -12761309.597 9 -11237520.872 9
  22652284.079    22652287.722   -17197468.225 9   7468398.644 8
 89 11 11 11 19 59.0800000  0  3G 6G11G 9
  20728172.424    20728176.620    -5843291.660 9  -5913688.727 9
  21432121.097    21432126.083   -12829487.743 9 -11290646.674 9
  22636255.899    22636259.105   -17281699.689 9   7402763.752 8
 89 11 11 11 20 29.0800000  0  3G 6G11G 9
  20722509.930    20722513.325    -5873051.579 9  -5936878.256 9
  21419238.589    21419243.217   -12897187.210 9 -11343399.487 8
  22620244.246    22620247.280   -17365840.626 9   7337199.406 9
 89 11 11 11 20 59.0800000  0  3G 6G11G 9
  20716907.154    20716912.074    -5902489.394 8  -5959816.809 8
  21406448.060    21406451.730   -12964405.957 9 -11395777.711 9
  22604250.414    22604253.463   -17449888.735 9   7271707.403 8
 89 11 11 11 21 29.0800000  0  3G 6G11G 9
  20711368.607    20711370.557    -5931603.099 9  -5982502.808 9
  21393746.677    21393753.238   -13031142.291 9 -11447780.040 8
  22588274.548    22588277.622   -17533842.245 9   7206289.094 8
 89 11 11 11 21 59.0800000  0  3G 6G11G 9
  20705888.533    20705891.893    -5960391.130 9  -6004935.054 8
  21381139.936    21381145.266   -13097394.790 9 -11499405.337 9
  22572316.587    22572319.693   -17617699.646 9   7140945.669 9
 89 11 11 11 22 29.0800000  0  3G 6G11G 9
  20700474.164    20700477.238    -5988851.300 9  -6027111.800 9
  21368625.203    21368629.989   -13163161.945 9 -11550652.449 9
  22556377.485    22556381.811   -17701459.048 9   7075678.596 9
 89 11 11 11 22 59.0800000  0  3G 6G11G 9
  20695120.520    20695124.383    -6016981.097 9  -6049031.116 8
  21356203.022    21356208.223   -13228441.206 9 -11601519.398 9
  22540458.047    22540461.607   -17785117.941 9   7010489.854 9
 89 11 11 11 23 29.0800000  0  3G 6G11G 9
  20689832.032    20689833.345    -6044778.782 9  -6070691.644 8
  21343874.050    21343878.893   -13293231.530 9 -11652005.350 9
  22524557.747    22524561.001   -17868674.916 9   6945380.542 9
 89 11 11 11 23 59.0800000  0  3G 6G11G 9
  20684605.027    20684607.518    -6072242.535 9  -6092091.960 8
  21331637.745    21331643.361   -13357531.567 9 -11702109.242 9
  22508677.585    22508680.545   -17952128.045 9   6880352.137 9
 89 11 11 11 24 29.0800000  0  3G 6G11G 9
  20679442.589    20679446.568    -6099370.054 9  -6113230.318 9
  21319496.682    21319500.738   -13421339.604 9 -11751829.781 9
  22492816.701    22492820.551   -18035475.185 9   6815406.327 9
 89 11 11 11 24 59.0800000  0  3G 6G11G 9
  20674344.528    20674349.698    -6126159.013 8  -6134104.845 8
  21307448.428    21307453.300   -13484653.359 9 -11801165.144 9
  22476976.662    22476980.525   -18118714.212 9   6750544.753 9
 89 11 11 11 25 29.0800000  0  3G 6G11G 9
  20669311.342    20669313.929    -6152607.718 8  -6154714.179 8
  21295494.186    21295498.185   -13547471.699 9 -11850114.481 9
  22461158.296    22461161.424   -18201843.278 9   6685768.880 8
 89 11 11 11 25 59.0800000  0  3G 6G11G 9
  20664344.689    20664346.521    -6178714.361 9  -6175057.060 8
  21283634.069    21283638.548   -13609793.206 6 -11898676.687 7
  22445360.365    22445363.278   -18284860.806 9   6621079.914 9
 89 11 11 11 26 29.0800000  0  4G13G 6G11G 9
                  24558468.711   -27455019.608 5
  20659440.082    20659446.451    -6204476.652 9  -6195131.568 9
  21271869.388    21271874.500   -13671616.173 9 -11946850.404 9
  22429584.102    22429586.401   -18367764.632 9   6556479.521 9
 89 11 11 11 26 59.0800000  0  4G13G 6G11G 9
  24535991.796    24535995.724   -27573132.942 8  34830663.556 7
  20654604.537    20654609.290    -6229892.353 9  -6214935.974 9
  21260200.582    21260205.164   -13732938.750 9 -11994634.219 9
  22413829.982    22413832.953   -18450552.492 9   6491969.501 8
 89 11 11 11 27 29.0800000  0  4G13G 6G11G 9
  24513538.506    24513542.570   -27691134.415 9  34738714.278 8
  20649835.545    20649837.393    -6254959.860 8  -6234469.116 8
  21248627.097    21248630.427   -13793760.052 9 -12042027.425 8
  22398098.528    22398101.571   -18533222.907 9   6427551.003 9
 89 11 11 11 27 59.0800000  0  4G13G 6G11G 9
  24491104.211    24491110.600   -27809021.012 9  34646854.601 9
  20645130.250    20645135.708    -6279676.874 8  -6253729.155 8
  21237148.435    21237152.441   -13854078.445 8 -12089028.766 9
  22382389.811    22382393.198   -18615773.350 9   6363225.990 8
 89 11 11 11 28 29.0800000  0  4G13G 6G11G 9
  24468693.519    24468698.377   -27926791.026 9  34555085.719 8
  20640494.197    20640498.563    -6304041.849 8  -6272714.832 9
  21225765.984    21225770.759   -13913892.467 9 -12135637.074 7
  22366704.031    22366707.461   -18698202.266 9   6298995.671 8
 89 11 11 11 28 59.0800000  0  4G13G 6G11G 9
  24446305.593    24446310.451   -28044441.401 8  34463410.264 9
  20635926.159    20635928.544    -6328052.523 9  -6291424.431 8
  21214480.339    21214485.154   -13973200.800 9 -12181851.343 9
  22351041.920    22351045.535   -18780507.542 9   6234861.703 9
 89 11 11 11 29 29.0800000  0  4G13G 6G11G 9
  24423940.791    24423944.941   -28161969.087 9  34371830.199 8
  20631423.779    20631429.058    -6351706.662 9  -6309856.269 8
  21203290.354    21203295.780   -14032001.591 9 -12227670.135 9
  22335403.261    22335407.848   -18862686.914 9   6170825.852 9
 89 11 11 11 29 59.0800000  0  4G13G 6G11G 9
  24401601.216    24401605.652   -28279371.213 9  34280348.035 8
  20626990.323    20626995.477    -6375002.326 8  -6328008.701 9
  21192197.400    21192203.281   -14090293.721 9 -12273092.559 9
  22319789.714    22319792.685   -18944738.433 9   6106889.622 9
 89 11 11 11 30 29.0800000  0  4G13G 6G11G 9
  24379284.278    24379286.918   -28396645.794 9  34188965.292 8
  20622629.300    20622630.501    -6397937.418 9  -6345880.211 8
  21181202.600    21181206.710   -14148075.589 9 -12318117.375 9
  22304200.564    22304204.166   -19026659.874 9   6043054.745 9
 89 11 11 11 30 59.0800000  0  4G13G 6G11G 9
  24356990.470    24356997.318   -28513789.604 9  34097684.318 7
  20618330.393    20618335.347    -6420510.076 8  -6363469.296 9
  21170304.197    21170308.597   -14205345.793 9 -12362743.501 9
  22288636.771    22288640.830   -19108449.245 9   5979322.773 8
 89 11 11 11 31 29.0800000  0  4G13G 6G11G 9
  24334722.871    24334728.444   -28630800.362 9  34006507.122 9
  20614105.172    20614108.691    -6442718.330 9  -6380774.394 8
  21159503.226    21159509.461   -14262103.374 9 -12406970.163 8
  22273097.775    22273102.421   -19190104.469 9   5915695.333 8
 89 11 11 11 31 59.0800000  0  4G13G 6G11G 9
  24312483.696    24312489.398   -28747675.853 9  33915435.352 9
  20609949.561    20609951.506    -6464560.085 9  -6397793.972 8
  21148800.820    21148805.251   -14318346.904 9 -12450796.277 9
  22257585.066    22257590.083   -19271623.587 9   5852173.945 7
 89 11 11 11 32 29.0800000  0  4G13G 6G11G 9
  24290266.407    24290275.636   -28864413.100 9  33824471.351 9
  20605861.965    20605866.363    -6486033.520 8  -6414526.527 9
  21138196.521    21138201.443   -14374074.810 9 -12494220.600 8
  22242099.114    22242102.329   -19353004.414 9   5788760.317 9
 89 11 11 11 32 59.0800000  0  4G13G 6G11G 9
  24268081.478    24268085.735   -28981009.886 9  33733616.634 8
  20601847.654    20601850.901    -6507136.593 9  -6430970.442 7
  21127690.440    21127694.482   -14429286.331 9 -12537242.560 8
  22226639.935    22226643.050   -19434244.707 9   5725456.221 8
 89 11 11 11 33 29.0800000  0  4G13G 6G11G 9
  24245914.065    24245921.834   -29097462.864 8  33642874.125 7
  20597902.141    20597905.484    -6527867.207 9  -6447124.211 9
  21117281.859    21117286.055   -14483979.947 9 -12579860.940 9
  22211206.499    22211210.329   -19515342.590 9   5662263.085 9
 89 11 11 11 33 59.0800000  0  4G13G 6G11G 9
  24223793.012    24223791.595   -29213769.655 9  33552245.457 8
  20594028.693    20594033.081    -6548223.485 8  -6462986.230 9
  21106973.134    21106978.750   -14538154.418 9 -12622074.803 8
  22195802.782    22195805.596   -19596295.758 9   5599182.703 8
 89 11 11 11 34 29.0800000  0  4G13G 6G11G 9
  24201684.115    24201686.319   -29329928.135 9  33461732.330 8
  20590227.213    20590230.159    -6568203.259 9  -6478554.884 7
  21096762.410    21096767.994   -14591808.614 9 -12663883.252 8
  22180425.180    22180428.938   -19677102.052 9   5536216.767 9
 89 11 11 11 34 59.0800000  0  4G13G 6G11G 9
  24179608.810    24179612.702   -29445935.567 9  33371336.837 8
  20586494.653    20586498.866    -6587804.793 9  -6493828.806 8
  21086651.696    21086657.162   -14644941.133 8 -12705285.204 8
  22165077.756    22165080.699   -19757759.295 9   5473366.972 8
 89 11 11 11 35 29.0800000  0  4G13G 6G11G 9
  24157563.819    24157566.716   -29561788.869 8  33281061.679 9
  20582839.160    20582841.966    -6607026.056 8  -6508806.415 8
  21076640.685    21076645.790   -14697550.712 9 -12746279.662 9
  22149757.176    22149760.705   -19838265.330 9   5410635.020 9
 89 11 11 11 35 59.0800000  0  4G13G 6G11G 9
  24135548.181    24135551.164   -29677485.451 9  33190908.503 9
  20579254.059    20579258.676    -6625865.116 9  -6523486.195 8
  21066728.747    21066733.888   -14749636.763 9 -12786866.171 8
  22134466.273    22134470.475   -19918618.056 9   5348022.536 9
 89 11 11 11 36 29.0800000  0  4G13G 6G11G 9
  24113562.215    24113564.948   -29793023.770 9  33100878.573 9
  20575741.350    20575745.012    -6644320.300 8  -6537866.853 8
  21056917.178    21056922.175   -14801198.246 9 -12827043.937 8
  22119206.034    22119208.433   -19998815.573 9   5285531.001 8
 89 11 11 11 36 59.0800000  0  4G13G 6G11G 9
  24091605.418    24091612.314   -29908400.337 9  33010974.707 8
  20572304.422    20572306.856    -6662389.126 9  -6551946.478 8
  21047206.567    21047209.775   -14852233.468 8 -12866811.636 8
  22103974.472    22103978.188   -20078855.156 9   5223162.493 9
 89 11 11 11 37 29.0800000  0  4G13G 6G11G 9
  24069682.941    24069687.527   -30023612.811 9  32921198.807 9
  20568938.514    20568942.847    -6680070.007 9  -6565723.779 8
  21037593.924    21037598.083   -14902741.582 9 -12906168.581 8
  22088773.359    22088776.960   -20158734.926 9   5160918.519 9
 89 11 11 11 37 59.0800000  0  4G13G 6G11G 9
  24047788.211    24047791.437   -30138658.610 9  32831552.752 7
  20565648.036    20565651.043    -6697360.962 8  -6579197.221 8
  21028083.323    21028088.034   -14952721.709 9 -12945114.125 9
  22073603.727    22073607.185   -20238452.526 9   5098800.925 8
 89 11 11 11 38 29.0800000  0  4G13G 6G11G 9
  24025929.739    24025938.288   -30253535.070 8  32742038.589 7
  20562432.653    20562437.324    -6714259.974 9  -6592365.313 9
  21018672.930    21018678.699   -15002172.707 9 -12983647.354 8
  22058465.660    22058469.862   -20318005.884 9   5036811.313 9
 89 11 11 11 38 59.0800000  0  4G13G 6G11G 9
  24004096.265    24004107.727   -30368239.918 9  32652658.193 9
  20559291.128    20559295.670    -6730765.188 9  -6605226.485 8
  21009363.881    21009367.884   -15051093.721 8 -13021767.619 8
  22043358.588    22043362.532   -20397392.548 9   4974951.591 9
 89 11 11 11 39 29.0800000  0  4G13G 6G11G 9
  23982307.988    23982310.713   -30482770.400 9  32563413.689 8
  20556226.071    20556228.445    -6746874.615 9  -6617779.291 8
  21000155.523    21000159.636   -15099483.611 9 -13059474.011 9
  22028283.625    22028287.884   -20476610.361 9   4913223.452 8
 89 11 11 11 39 59.0800000  0  4G13G 6G11G 9
  23960545.860    23960554.832   -30597123.873 9  32474307.086 9
  20553236.480    20553240.650    -6762586.374 9  -6630022.247 9
  20991048.788    20991053.084   -15147341.304 9 -13096765.703 8
  22013241.230    22013245.575   -20555657.040 9   4851628.669 9
 89 11 11 11 40 29.0800000  0  4G13G 6G11G 9
  23938820.793    23938823.719   -30711298.214 9  32385340.120 8
  20550321.698    20550327.105    -6777898.682 8  -6641953.916 7
  20982042.447    20982046.431   -15194665.899 9 -13133641.997 8
  21998232.361    21998235.862   -20634530.592 9   4790168.767 8
 89 11 11 11 40 59.0800000  0  4G13G 6G11G 9
  23917127.616    23917131.452   -30825290.577 9  32296514.835 8
  20547487.134    20547488.885    -6792809.705 9  -6653572.870 8
  20973138.821    20973142.959   -15241456.483 9 -13170102.165 9
  21983256.182    21983260.532   -20713228.482 9   4728845.748 9
 89 11 11 11 41 29.0800000  0  4G13G 6G11G 9
  23895464.164    23895470.572   -30939098.039 8  32207833.709 7
  20544723.839    20544727.346    -6807317.328 1  -6664877.530 1
  20964336.504    20964340.876   -15287712.193 9 -13206145.565 8
  21968314.205    21968318.441   -20791748.646 9   4667661.216 9
 89 11 11 11 41 59.0800000  0  4G13G 6G11G 9
  23873847.756    23873858.817   -31052718.345 9  32119298.394 8
  20542042.235    20542046.099    -6821419.822 1  -6675866.461 1
  20955636.995    20955640.723   -15333432.296 9 -13241771.602 8
  21953406.967    21953410.293   -20870088.628 9   4606617.087 8
 89 11 11 11 42 29.0800000  0  4G13G 6G11G 9
  23852263.613    23852265.373   -31166149.436 9  32030910.555 8
  20539434.907    20539438.090    -6835115.083 9  -6686538.089 8
  20947038.738    20947042.687   -15378615.794 9 -13276979.507 8
  21938534.536    21938537.304   -20948246.110 9   4545715.193 9
 89 11 11 11 42 59.0800000  0  4G13G 6G11G 9
  23830712.310    23830723.929   -31279388.263 9  31942672.527 9
  20536906.076    20536908.887    -6848401.514 9  -6696891.155 9
  20938542.530    20938546.233   -15423261.923 9 -13311768.679 8
  21923696.619    21923700.045   -21026218.758 9   4484957.297 9
 89 11 11 11 43 29.0800000  0  4G13G 6G11G 9
  23809200.371    23809208.470   -31392432.457 9  31854586.171 8
  20534455.953    20534459.898    -6861277.022 9  -6706924.009 8
  20930148.597    20930152.575   -15467369.684 8 -13346138.347 7
  21908894.447    21908898.245   -21104004.113 9   4424345.327 9
 89 11 11 11 43 59.0800000  0  4G13G 6G11G 9
  23787725.465    23787732.870   -31505279.295 9  31766653.583 8
  20532086.029    20532088.146    -6873739.900 9  -6716635.349 8
  20921858.041    20921861.583   -15510938.633 9 -13380088.170 8
  21894128.963    21894131.288   -21181600.150 9   4363880.890 8
 89 11 11 11 44 29.0800000  0  4G13G 6G11G 9
  23766293.458    23766298.287   -31617926.102 9  31678876.842 7
  20529791.281    20529794.401    -6885788.416 8  -6726023.793 9
  20913669.796    20913674.432   -15553967.961 9 -13413617.512 8
  21879399.310    21879402.865   -21259004.358 9   4303565.956 8
 89 11 11 11 44 59.0800000  0  4G13G 6G11G 9
  23744896.915    23744899.412   -31730370.221 9  31591258.073 9
  20527579.560    20527581.574    -6897420.479 8  -6735087.745 9
  20905584.033    20905588.777   -15596457.047 9 -13446725.870 8
  21864706.660    21864710.573   -21336214.416 9   4243402.298 8
 89 11 11 11 45 29.0800000  0  4G13G 6G11G 9
  23723536.583    23723540.125   -31842609.359 9  31503799.022 9
  20525443.670    20525446.800    -6908634.347 8  -6743825.842 9
  20897602.109    20897606.540   -15638404.487 9 -13479412.178 9
  21850051.443    21850054.455   -21413227.740 9   4183391.926 9
 89 11 11 11 45 59.0800000  0  4G13G 6G11G 9
  23702219.342    23702226.511   -31954641.559 9  31416501.177 8
  20523390.008    20523394.275    -6919428.135 9  -6752236.564 8
  20889722.537    20889726.261   -15679809.723 9 -13511675.975 8
  21835434.317    21835437.286   -21490042.359 9   4123536.371 8
 89 11 11 11 46 29.0800000  0  4G13G 6G11G 9
  23680941.044    23680942.826   -32066463.648 9  31329367.082 8
  20521417.067    20521420.219    -6929800.181 9  -6760318.684 8
  20881947.420    20881951.673   -15720672.723 9 -13543517.264 9
  21820855.139    21820859.295   -21566655.777 9   4063837.614 8
 89 11 11 11 46 59.0800000  0  4G13G 6G11G 9
  23659703.413    23659706.647   -32178073.825 9  31242398.166 9
  20519522.656    20519526.154    -6939748.599 9  -6768070.701 8
  20874274.237    20874278.523   -15760992.462 9 -13574935.224 8
  21806314.796    21806318.080   -21643065.551 9   4004297.556 9
 89 11 11 11 47 29.0800000  0  4G13G 6G11G 9
  23638502.270    23638508.659   -32289469.707 9  31155596.163 8
  20517711.327    20517715.465    -6949271.843 9  -6775491.414 9
  20866705.877    20866709.004   -15800768.414 9 -13605929.464 8
  21791813.775    21791816.987   -21719269.448 9   3944917.916 9
 89 11 11 11 47 59.0800000  0  4G13G 6G11G 9
  23617347.045    23617349.342   -32400648.321 9  31068963.481 8
  20515980.728    20515983.761    -6958367.929 9  -6782579.279 8
  20859239.867    20859243.791   -15839999.979 9 -13636499.498 8
  21777352.792    21777354.973   -21795264.917 9   3885700.693 8
 89 11 11 11 48 29.0800000  0  4G13G 6G11G 9
  23596231.908    23596234.612   -32511606.359 9  30982502.684 9
  20514330.982    20514333.768    -6967035.127 9  -6789332.945 9
  20851877.834    20851883.050   -15878686.710 9 -13666644.998 8
  21762930.528    21762933.983   -21871049.614 9   3826647.684 8
 89 11 11 11 48 59.0800000  0  4G13G 6G11G 9
  23575158.388    23575163.074   -32622342.532 9  30896214.767 9
  20512764.100    20512767.276    -6975271.605 8  -6795750.993 9
  20844620.470    20844623.786   -15916828.115 9 -13696365.559 8
  21748549.676    21748553.717   -21946621.117 9   3767760.789 8
 89 11 11 11 49 29.0800000  0  4G13G 6G11G 9
  23554130.315    23554133.441   -32732854.086 9  30810101.883 8
  20511278.491    20511282.644    -6983075.784 8  -6801832.163 9
  20837465.706    20837469.995   -15954423.701 9 -13725660.807 9
  21734210.177    21734213.303   -22021977.122 9   3709041.848 9
 89 11 11 11 49 59.0800000  0  4G13G 6G11G 9
  23533140.311    23533148.761   -32843138.612 9  30724165.870 8
  20509876.577    20509878.548    -6990445.882 9  -6807575.110 8
  20830414.637    20830419.534   -15991472.743 9 -13754530.174 8
  21719911.946    21719915.772   -22097115.163 9   3650492.754 9
 89 11 11 11 50 29.0800000  0  4G13G 6G11G 9
  23512200.225    23512205.698   -32953193.546 9  30638408.847 8
  20508556.508    20508560.392    -6997380.274 9  -6812978.514 9
  20823469.335    20823472.862   -16027974.825 9 -13782973.345 8
  21705656.327    21705657.836   -22172032.950 9   3592115.292 9
 89 11 11 11 50 59.0800000  0  4G13G 6G11G 9
  23491304.734    23491308.569   -33063016.441 9  30552832.488 9
  20507320.158    20507323.732    -7003876.855 9  -6818040.781 9
  20816627.423    20816631.834   -16063929.317 9 -13810989.810 8
  21691441.977    21691444.415   -22246727.558 9   3533911.695 9
 89 11 11 11 51 29.0800000  0  4G13G 6G11G 9
  23470447.763    23470452.105   -33172604.906 9  30467438.929 9
  20506169.027    20506171.563    -7009934.236 8  -6822760.816 8
  20809890.230    20809893.293   -16099336.086 9 -13838579.500 8
  21677270.239    21677274.538   -22321196.835 9   3475883.686 8
 89 11 11 11 51 59.0800000  0  4G13G 6G11G 9
  23449640.702    23449642.677   -33281956.811 9  30382229.661 9
  20505097.941    20505102.158    -7015550.632 8  -6827137.231 8
  20803256.325    20803260.428   -16134194.618 9 -13865741.977 9
  21663142.802    21663146.500   -22395438.484 9   3418033.072 9
 89 11 11 11 52 29.0800000  0  4G13G 6G11G 9
  23428875.210    23428880.289   -33391069.479 9  30297206.778 8
  20504113.948    20504117.786    -7020724.446 8  -6831168.773 8
  20796728.157    20796730.782   -16168504.416 9 -13892476.879 8
  21649058.149    21649062.878   -22469449.777 9   3360361.971 9
 89 11 11 11 52 59.0800000  0  4G13G 6G11G 9
  23408159.177    23408163.649   -33499939.993 9  30212372.661 8
  20503214.480    20503217.968    -7025453.920 9  -6834854.077 9
  20790302.461    20790306.643   -16202265.141 9 -13918783.931 8
  21635018.486    21635022.670   -22543228.646 9   3302871.967 8
 89 11 11 11 53 29.0800000  0  4G13G 6G11G 9
  23387487.925    23387492.039   -33608566.322 9  30127728.751 8
  20502399.901    20502401.954    -7029737.404 9  -6838191.869 9
  20783983.447    20783987.178   -16235476.308 9 -13944662.755 8
  21621023.896    21621027.407   -22616772.207 9   3245565.287 8
 89 11 11 11 53 59.0800000  0  4G13G 6G11G 9
  23366861.267    23366866.791   -33716946.326 9  30043276.815 9
  20501669.295    20501672.675    -7033573.286 9  -6841180.869 8
  20777766.783    20777771.991   -16268137.909 9 -13970113.322 8
  21607074.208    21607078.135   -22690077.903 9   3188443.963 9
 89 11 11 11 54 29.0800000  0  4G13G 6G11G 9
  23346287.010    23346292.097   -33825077.073 9  29959019.089 9
  20501024.681    20501028.980    -7036959.938 9  -6843819.822 9
  20771658.153    20771660.904   -16300249.741 9 -13995135.519 7
  21593169.594    21593174.994   -22763143.824 9   3131509.512 9
 89 11 11 11 54 59.0800000  0  4G13G 6G11G 9
  23325759.380    23325762.950   -33932956.356 9  29874957.380 7
  20500467.624    20500469.326    -7039895.584 9  -6846107.336 8
  20765650.389    20765655.164   -16331811.255 9 -14019728.891 8
  21579312.515    21579316.270   -22835966.908 9   3074764.278 8
 89 11 11 11 55 29.0800000  0  4G13G 6G11G 9
  23305277.216    23305280.801   -34040581.921 9  29791093.234 8
  20499993.597    20499996.602    -7042378.713 8  -6848042.263 8
  20759748.938    20759754.337   -16362822.283 8 -14043893.314 8
  21565501.425    21565504.394   -22908544.934 9   3018209.972 9
 89 11 11 11 55 59.0800000  0  4G13G 6G11G 9
  23284842.266    23284849.764   -34147951.411 9  29707428.757 9
  20499607.396    20499611.509    -7044407.794 9  -6849623.355 9
  20753952.396    20753957.150   -16393282.903 9 -14067628.862 8
  21551738.072    21551740.983   -22980875.401 9   2961848.572 8
 89 11 11 11 56 29.0800000  0  4G13G 6G11G 9
  23264465.039    23264465.447   -34255062.168 9  29623965.877 8
  20499308.380    20499311.220    -7045981.087 9  -6850849.300 9
  20748261.069    20748265.576   -16423192.621 9 -14090935.119 8
  21538020.766    21538025.222   -23052955.544 9   2905682.232 9
 89 11 11 11 56 59.0800000  0  4G13G 6G11G 9
  23244129.617    23244134.947   -34361911.625 9  29540706.451 8
  20499095.900    20499100.850    -7047097.068 9  -6851718.908 8
  20742675.004    20742679.522   -16452551.009 9 -14113811.781 7
  21524353.169    21524357.682   -23124782.957 9   2849712.858 9
 89 11 11 11 57 29.0800000  0  4G13G 6G11G 9
  23223849.886    23223853.263   -34468498.191 9  29457652.126 9
  20498972.068    20498974.879    -7047754.354 9  -6852231.067 9
  20737192.648    20737196.840   -16481358.239 9 -14136258.962 8
  21510733.852    21510737.235   -23196355.213 9   2793942.284 8
 89 11 11 11 57 59.0800000  0  4G13G 6G11G 9
  23203616.359    23203620.151   -34574818.800 9  29374804.876 9
  20498932.915    20498936.592    -7047950.630 9  -6852384.015 9
  20731816.818    20731820.326   -16509613.504 8 -14158276.039 7
  21497162.699    21497164.108   -23267669.392 9   2738372.805 8
 89 11 11 11 58 29.0800000  0  4G13G 6G11G 9
  23183428.951    23183436.993   -34680871.852 8  29292166.107 7
  20498984.564    20498986.810    -7047685.166 9  -6852177.167 9
  20726544.528    20726549.218   -16537317.475 9 -14179863.535 8
  21483642.230    21483644.626   -23338723.567 9   2683005.923 8
 89 11 11 11 58 59.0800000  0  4G13G 6G11G 9
  23163305.526    23163310.048   -34786654.363 9  29209738.227 9
  20499121.539    20499126.322    -7046956.261 9  -6851609.184 9
  20721376.628    20721382.587   -16564470.182 9 -14201021.486 9
  21470170.211    21470174.467   -23409514.783 9   2627843.935 9
 89 11 11 11 59 29.0800000  0  4G13G 6G11G 9
  23143225.459    23143231.633   -34892164.204 9  29127522.736 9
  20499350.326    20499352.787    -7045762.451 9  -6850678.969 9
  20716315.399    20716319.430   -16591071.516 9 -14221749.774 7
  21456748.790    21456754.392   -23480040.811 9   2572888.606 9
 89 11 11 11 59 59.0800000  0  4G13G 6G11G 9
  23123201.254    23123203.043   -34997399.024 9  29045521.672 7
  20499665.654    20499669.456    -7044102.163 8  -6849385.227 8
  20711357.736    20711362.956   -16617120.935 8 -14242048.003 8
  21443379.111    21443383.468   -23550298.781 9   2518142.177 9
 89 11 11 12  0 29.0800000  0  4G13G 6G11G 9
  23103229.421    23103232.984   -35102356.366 9  28963736.648 9
  20500071.188    20500075.490    -7041973.794 9  -6847726.775 8
  20706505.919    20706510.559   -16642618.559 9 -14261916.276 8
  21430061.947    21430064.629   -23620286.411 9   2463606.362 9
 89 11 11 12  0 59.0800000  0  4G13G 6G11G 9
  23083306.961    23083313.444   -35207034.389 9  28882169.430 9
  20500565.713    20500568.793    -7039376.040 9  -6845702.561 8
  20701758.361    20701762.712   -16667564.543 9 -14281354.688 9
  21416795.494    21416797.618   -23690001.123 9   2409283.203 8
 89 11 11 12  1 29.0800000  0  4G13G 6G11G 9
  23063443.764    23063445.324   -35311430.526 9  28800821.804 7
  20501150.112    20501152.634    -7036307.432 9  -6843311.435 9
  20697117.319    20697122.030   -16691959.159 9 -14300363.472 8
  21403581.385    21403584.997   -23759440.171 9   2355174.874 8
 89 11 11 12  1 59.0800000  0  4G13G 6G11G 9
  23043630.198    23043636.272   -35415542.408 9  28719695.640 9
  20501822.687    20501825.981    -7032766.403 9  -6840552.210 9
  20692578.171    20692583.540   -16715802.449 9 -14318942.650 7
  21390420.878    21390423.731   -23828600.982 9   2301283.362 8
 89 11 11 12  2 29.0800000  0  4G13G 6G11G 9
  23023874.062    23023877.653   -35519368.203 9  28638792.469 9
  20502587.829    20502590.329    -7028751.635 8  -6837423.798 9
  20688148.439    20688152.163   -16739094.458 8 -14337092.253 8
  21377313.200    21377315.825   -23897481.157 9   2247610.515 8
 89 11 11 12  2 59.0800000  0  4G13G 6G11G 9
  23004170.533    23004176.128   -35622905.212 9  28558114.283 9
  20503441.909    20503445.243    -7024261.727 9  -6833925.191 8
  20683819.440    20683824.384   -16761834.969 9 -14354812.126 8
  21364259.725    21364263.037   -23966078.006 9   2194158.421 8
 89 11 11 12  3 29.0800000  0  4G13G 6G11G 9
  22984522.767    22984527.296   -35726151.228 9  28477662.839 9
  20504386.280    20504390.558    -7019295.185 9  -6830055.150 8
  20679596.637    20679602.668   -16784024.299 8 -14372102.504 8
  21351260.540    21351264.008   -24034388.996 9   2140929.087 9
 89 11 11 12  3 59.0800000  0  4G13G 6G11G 9
  22964932.632    22964937.991   -35829104.120 9  28397439.805 9
  20505422.845    20505425.310    -7013850.599 8  -6825812.610 8
  20675478.302    20675484.354   -16805662.564 9 -14388963.464 9
  21338315.472    21338319.155   -24102411.359 9   2087924.674 9
 89 11 11 12  4 29.0800000  0  4G13G 6G11G 9
  22945398.560    22945402.753   -35931761.202 9  28317447.296 9
  20506548.815    20506552.913    -7007926.634 9  -6821196.544 8
  20671466.741    20671471.388   -16826749.911 8 -14405395.141 9
  21325427.325    21325430.136   -24170142.625 9   2035147.088 9
 89 11 11 12  4 59.0800000  0  4G13G 6G11G 9
  22925918.734    22925923.628   -36034120.641 9  28237686.681 9
  20507769.314    20507773.363    -7001522.023 8  -6816205.967 9
  20667558.973    20667563.133   -16847286.766 9 -14421397.884 9
  21312595.701    21312597.825   -24237580.197 9   1982598.328 9
 89 11 11 12  5 29.0800000  0  4G13G 6G11G 9
  22906496.524    22906502.663   -36136180.670 9  28158159.416 9
  20509077.611    20509083.717    -6994635.439 9  -6810839.781 8
  20663755.622    20663760.186   -16867273.224 8 -14436971.744 9
  21299817.964    21299821.061   -24304721.594 9   1930280.362 8
 89 11 11 12  5 59.0800000  0  4G13G 6G11G 9
  22887134.671    22887138.592   -36237938.916 9  28078867.283 9
  20510481.447    20510484.744    -6987265.634 9  -6805097.096 9
  20660057.419    20660060.795   -16886709.772 8 -14452117.086 8
  21287098.237    21287102.536   -24371564.339 9   1878195.128 9
 89 11 11 12  6 29.0800000  0  4G13G 6G11G 9
  22867826.556    22867832.802   -36339392.850 9  27999812.273 8
  20511977.225    20511980.610    -6979411.097 9  -6798976.693 9
  20656462.327    20656468.030   -16905596.749 9 -14466834.195 8
  21274436.319    21274439.202   -24438105.488 9   1826344.908 9
 89 11 11 12  6 59.0800000  0  4G13G 6G11G 9
  22848580.649    22848584.041   -36440540.073 9  27920996.285 8
  20513562.839    20513566.293    -6971070.705 9  -6792477.692 9
  20652973.457    20652978.619   -16923934.020 8 -14481122.966 8
  21261831.152    21261834.464   -24504342.753 9   1774731.440 8
 89 11 11 12  7 29.0800000  0  4G13G 6G11G 9
  22829390.528    22829395.006   -36541378.378 9  27842420.980 8
  20515242.745    20515245.867    -6962243.233 8  -6785599.159 8
  20649588.117    20649593.133   -16941721.749 8 -14494983.521 9
  21249284.996    21249288.336   -24570273.288 9   1723357.007 9
 89 11 11 12  7 59.0800000  0  4G13G 6G11G 9
  22810261.306    22810265.727   -36641906.187 9  27764087.651 9
  20517015.726    20517019.632    -6952927.229 9  -6778339.933 9
  20646307.052    20646312.933   -16958960.420 9 -14508416.228 8
  21236799.195    21236801.276   -24635894.514 9   1672223.605 8
 89 11 11 12  8 29.0800000  0  4G13G 6G11G 9
  22791190.794    22791195.702   -36742120.807 9  27685998.352 9
  20518882.285    20518886.274    -6943121.450 9  -6770699.081 9
  20643132.090    20643136.489   -16975650.624 8 -14521421.573 8
  21224370.374    21224374.001   -24701203.934 9   1621333.142 8
 89 11 11 12  8 59.0800000  0  4G13G 6G11G 9
  22772180.110    22772186.484   -36842020.291 9  27608154.605 8
  20520841.418    20520846.000    -6932824.706 9  -6762675.663 9
  20640058.926    20640064.718   -16991792.614 8 -14533999.743 8
  21212000.536    21212004.892   -24766198.738 9   1570687.846 8
 89 11 11 12  9 29.0800000  0  4G13G 6G11G 9
  22753230.582    22753235.998   -36941602.786 9  27530557.878 9
  20522894.107    20522897.845    -6922035.932 9  -6754268.830 9
  20637092.219    20637097.034   -17007386.906 8 -14546151.127 7
  21199693.514    21199696.540   -24830876.519 9   1520289.620 8
 89 11 11 12  9 59.0800000  0  4G13G 6G11G 9
  22734342.621    22734346.090   -37040865.640 9  27453210.209 9
  20525041.853    20525046.081    -6910753.793 9  -6745477.568 9
  20634228.456    20634234.256   -17022434.069 8 -14557876.180 8
  21187447.422    21187449.732   -24895234.469 9   1470140.569 9
 89 11 11 12 10 29.0800000  0  4G13G 6G11G 9
  22715513.620    22715518.800   -37139807.052 9  27376113.005 8
  20527282.652    20527284.829    -6898977.156 9  -6736300.973 8
  20631468.092    20631475.883   -17036934.551 9 -14569175.256 8
  21175261.828    21175264.939   -24959270.034 9   1420242.703 8
 89 11 11 12 10 59.0800000  0  4G13G 6G11G 9
  22696747.594    22696751.493   -37238424.956 9  27299267.907 8
  20529617.837    20529621.296    -6886704.913 8  -6726738.196 9
  20628814.324    20628819.060   -17050888.555 9 -14580048.489 9
  21163137.421    21163142.263   -25022980.649 8   1370598.123 8
 89 11 11 12 11 29.0800000  0  4G13G 6G11G 9
  22678042.575    22678047.155   -37336717.220 9  27222676.530 8
  20532048.193    20532051.172    -6873935.939 9  -6716788.342 8
  20626263.171    20626267.778   -17064296.978 8 -14590496.587 9
  21151076.918    21151079.300   -25086363.821 9   1321208.672 9
 89 11 11 12 11 59.0800000  0  4G13G 6G11G 9
  22659400.882    22659404.874   -37434681.755 9  27146340.545 8
  20534572.517    20534574.899    -6860669.031 9  -6706450.498 9
  20623814.757    20623820.521   -17077159.877 8 -14600519.621 9
  21139078.718    21139080.714   -25149416.635 9   1272076.596 8
 89 11 11 12 12 29.0800000  0  4G13G 6G11G 9
  22640821.476    22640826.219   -37532316.343 9  27070261.633 8
  20537192.502    20537195.456    -6846902.931 9  -6695723.671 9
  20621470.944    20621474.765   -17089477.699 8 -14610117.922 9
  21127141.990    21127144.930   -25212136.592 9   1223203.892 8
 89 11 11 12 12 59.0800000  0  4G13G 6G11G 9
  22622305.367    22622309.839   -37629619.243 9  26994441.228 9
  20539906.623    20539910.053    -6832636.724 9  -6684607.140 9
  20619230.089    20619236.153   -17101251.334 7 -14619292.170 8
  21115270.999    21115275.527   -25274520.974 8   1174592.726 8
 89 11 11 12 13 29.0800000  0  4G13G 6G11G 9
  22603853.428    22603857.456   -37726588.280 9  26918880.936 9
  20542716.226    20542719.878    -6817869.333 9  -6673100.080 9
  20617092.321    20617097.630   -17112481.321 8 -14628042.804 8
  21103464.828    21103467.925   -25336567.268 9   1126244.988 9
 89 11 11 12 13 59.0800000  0  4G13G 6G11G 9
  22585463.941    22585469.214   -37823221.167 9  26843582.588 8
  20545622.248    20545625.710    -6802599.714 9  -6661201.685 9
  20615059.436    20615065.235   -17123168.409 8 -14636370.392 8
  21091721.675    21091725.244   -25398272.773 9   1078162.780 9
 89 11 11 12 14 29.0800000  0  4G13G 6G11G 9
  22567140.163    22567144.577   -37919516.269 9  26768547.466 8
  20548623.619    20548627.361    -6786826.835 9  -6648911.132 9
  20613128.794    20613134.546   -17133312.980 9 -14644275.241 9
  21080044.172    21080048.257   -25459635.027 9   1030348.041 9
 89 11 11 12 14 59.0800000  0  4G13G 6G11G 9
  22548879.866    22548885.225   -38015471.102 9  26693777.465 9
  20551721.195    20551723.988    -6770549.633 9  -6636227.599 9
  20611301.717    20611306.522   -17142915.825 8 -14651757.967 8
  21068434.037    21068439.152   -25520651.164 9    982803.011 9
 89 11 11 12 15 29.0800000  0  4G13G 6G11G 9
  22530686.122    22530690.966   -38111084.010 9  26619273.909 8
  20554914.005    20554918.537    -6753767.062 9  -6623150.274 9
  20609579.589    20609583.087   -17151977.678 8 -14658819.139 9
  21056888.952    21056894.182   -25581318.641 9    935529.667 9
 89 11 11 12 15 59.0800000  0  4G13G 6G11G 9
  22512556.505    22512562.035   -38206352.513 9  26545038.721 9
  20558204.594    20558208.979    -6736478.312 9  -6609678.530 9
  20607955.989    20607960.890   -17160499.371 7 -14665459.415 9
  21045410.233    21045413.401   -25641634.732 9    888530.127 8
 89 11 11 12 16 29.0800000  0  4G13G 6G11G 9
  22494493.954    22494497.882   -38301275.137 9  26471073.059 9
  20561590.357    20561594.824    -6718682.320 9  -6595811.529 8
  20606436.515    20606441.991   -17168481.228 7 -14671679.028 8
  21034001.886    21034003.853   -25701596.900 9    841806.366 8
 89 11 11 12 16 59.0800000  0  4G13G 6G11G 9
  22476497.219    22476501.540   -38395849.398 9  26397378.835 9
  20565074.545    20565078.190    -6700378.112 9  -6581548.509 9
  20605020.420    20605025.496   -17175924.105 8 -14677478.650 8
  21022659.190    21022661.686   -25761202.606 9    795360.356 8
 89 11 11 12 17 29.0800000  0  4G13G 6G11G 9
  22458566.013    22458571.164   -38490073.809 9  26323957.236 8
  20568653.253    20568657.681    -6681564.804 9  -6566888.803 8
  20603706.919    20603711.948   -17182828.837 8 -14682858.960 8
  21011384.405    21011388.089   -25820449.154 9    749194.235 8
 89 11 11 12 17 59.0800000  0  4G13G 6G11G 9
  22440702.739    22440707.640   -38583946.246 9  26250809.891 9
  20572331.599    20572334.679    -6662241.385 9  -6551831.596 8
  20602494.569    20602500.422   -17189196.205 8 -14687820.539 8
  21000178.476    21000182.232   -25879333.785 9    703310.136 8
 89 11 11 12 18 29.0800000  0  4G13G 6G11G 9
  22422907.377    22422911.699   -38677464.934 9  26177938.197 9
  20576106.232    20576109.980    -6642406.957 9  -6536376.216 9
  20601385.926    20601391.080   -17195026.959 8 -14692363.966 8
  20989043.378    20989046.332   -25937853.824 9    657710.089 8
 89 11 11 12 18 59.0800000  0  4G13G 6G11G 9
  22405179.312    22405182.610   -38770627.909 9  26105343.689 9
  20579976.761    20579981.211    -6622060.844 9  -6520522.099 9
  20600378.111    20600383.545   -17200321.847 8 -14696489.850 9
  20977974.903    20977980.962   -25996006.797 9    612396.092 8
 89 11 11 12 19 29.0800000  0  4G13G 6G11G 9
  22387518.148    22387523.300   -38863432.995 9  26033028.040 9
  20583947.151    20583950.571    -6601201.961 9  -6504268.433 9
  20599473.170    20599477.234   -17205081.883 7 -14700198.959 9
  20966981.981    20966984.291   -26053790.155 9    567370.145 8
 89 11 11 12 19 59.0800000  0  4G13G 6G11G 9
  22369926.514    22369931.508   -38955878.613 9  25960992.502 9
  20588014.429    20588018.299    -6579829.588 9  -6487614.629 9
  20598667.495    20598673.856   -17209307.767 8 -14703491.840 7
  20956056.341    20956058.364   -26111201.098 9    522634.338 8
 89 11 11 12 20 29.0800000  0  4G13G 6G11G 9
  22352403.978    22352407.791   -39047962.055 9  25889239.178 9
  20592179.240    20592183.451    -6557942.953 9  -6470560.115 9
  20597965.046    20597969.554   -17213000.321 8 -14706369.140 8
  20945200.386    20945204.184   -26168237.130 9    478190.674 9
 89 11 11 12 20 59.0800000  0  4G13G 6G11G 9
  22334950.069    22334954.212   -39139682.346 9  25817768.849 8
  20596442.254    20596444.918    -6535541.126 9  -6453104.146 9
  20597363.720    20597368.879   -17216160.691 8 -14708831.764 8
  20934420.556    20934424.856   -26224895.655 9    434041.187 8
 89 11 11 12 21 29.0800000  0  4G13G 6G11G 9
  22317565.925    22317570.161   -39231037.735 9  25746582.828 9
  20600803.627    20600806.990    -6512623.368 9  -6435246.156 9
  20596863.289    20596868.759   -17218789.589 7 -14710880.249 9
  20923712.273    20923715.813   -26281173.720 9    390188.161 9
 89 11 11 12 21 59.0800000  0  4G13G 6G11G 9
  22300251.516    22300255.301   -39322026.130 9  25675682.799 9
  20605261.803    20605266.024    -6489189.156 9  -6416985.735 9
  20596464.679    20596469.186   -17220888.274 7 -14712515.577 9
  20913074.762    20913077.530   -26337069.141 9    346633.292 8
 89 11 11 12 22 29.0800000  0  4G13G 6G11G 9
  22283006.414    22283011.931   -39412645.739 9  25605070.110 8
  20609819.904    20609824.296    -6465237.552 9  -6398322.154 9
  20596165.097    20596171.465   -17222457.774 8 -14713738.543 9
  20902511.745    20902514.212   -26392579.048 9    303378.833 8
 89 11 11 12 22 59.0800000  0  4G13G 6G11G 9
  22265834.161    22265837.566   -39502894.816 9  25534746.168 9
  20614476.924    20614480.494    -6440767.992 9  -6379254.979 9
  20595967.467    20595972.349   -17223498.640 8 -14714549.615 9
  20892023.680    20892026.491   -26447701.136 9    260426.542 8
 89 11 11 12 23 29.0800000  0  4G13G 6G11G 9
  22248729.167    22248734.733   -39592771.064 9  25464712.736 8
  20619232.230    20619235.918    -6415779.487 9  -6359783.415 8
  20595870.519    20595874.056   -17224012.096 8 -14714949.702 8
  20881607.333    20881610.487   -26502432.320 9    217778.880 9
 89 11 11 12 23 59.0800000  0  4G13G 6G11G 9
  22231698.996    22231702.953   -39682273.111 9  25394970.898 8
  20624085.801    20624089.424    -6390272.148 9  -6339907.578 8
  20595871.456    20595877.309   -17223999.736 9 -14714940.055 8
  20871266.394    20871269.720   -26556770.781 9    175437.252 8
 89 11 11 12 24 29.0800000  0  4G13G 6G11G 9
  22214737.875    22214741.688   -39771398.578 9  25325522.495 8
  20629037.576    20629041.431    -6364244.203 8  -6319626.069 9
  20595974.050    20595979.501   -17223461.407 7 -14714520.580 8
  20861002.496    20861005.508   -26610712.783 9    133404.498 7
 89 11 11 12 24 59.0800000  0  4G13G 6G11G 9
  22197849.773    22197854.931   -39860146.346 9  25256368.402 8
  20634089.876    20634094.859    -6337695.533 9  -6298938.802 9
  20596176.801    20596180.796   -17222398.818 8 -14713692.585 9
  20850812.549    20850817.349   -26664256.440 9     91682.162 9
 89 11 11 12 25 29.0800000  0  4G13G 6G11G 9
  22181033.453    22181039.205   -39948514.608 9  25187510.019 9
  20639243.200    20639246.104    -6310625.590 9  -6277845.346 9
  20596479.984    20596484.352   -17220813.174 8 -14712457.010 8
  20840698.898    20840704.858   -26717399.046 9     50272.390 8
 89 11 11 12 26 59.0800000  0  4G13G 6G11G 9
  22131022.426    22131027.499   -40211323.982 9  24982723.527 8
  20655292.019    20655295.524    -6226281.724 9  -6212122.868 9
  20597978.812    20597984.400   -17212929.044 8 -14706313.507 8
  20810824.483    20810828.939   -26874394.722 9    -72061.902 8
 89 11 11 12 27 29.0800000  0  4G13G 6G11G 9
  22114498.408    22114506.042   -40298156.460 9  24915061.861 8
  20660841.017    20660844.912    -6197120.504 9  -6189399.844 9
  20598676.146    20598681.880   -17209262.249 8 -14703456.253 7
  20801022.371    20801025.525   -26925906.996 8   -112201.336 9
 89 11 11 12 27 59.0800000  0  4G13G 6G11G 9
  22098049.376    22098055.092   -40384601.081 9  24847702.443 9
  20666490.440    20666492.632    -6167434.978 9  -6166268.281 9
  20599472.370    20599478.115   -17205077.728 8 -14700195.592 9
  20791299.618    20791301.141   -26977005.173 9   -152018.079 9
 89 11 11 12 28 29.0800000  0  4G13G 6G11G 9
  22081673.200    22081678.637   -40470655.549 9  24780647.020 9
  20672239.287    20672242.109    -6137224.891 9  -6142727.967 9
  20600368.080    20600373.106   -17200376.841 7 -14696532.558 8
  20781654.164    20781656.975   -27027686.571 8   -191510.078 8
 89 11 11 12 28 59.0800000  0  4G13G 6G11G 9
  22065373.506    22065377.420   -40556318.548 9  24713896.662 8
  20678087.508    20678091.474    -6106489.751 9  -6118778.501 9
  20601359.822    20601364.722   -17195160.954 9 -14692468.226 8
  20772090.674    20772093.714   -27077949.192 8   -230675.749 9
 89 11 11 12 29 29.0800000  0  4G13G 6G11G 9
  22049147.583    22049151.461   -40641588.731 9  24647452.373 8
  20684036.730    20684040.235    -6075228.930 9  -6094419.436 9
  20602451.763    20602454.565   -17189431.478 8 -14688003.691 8
  20762606.112    20762609.209   -27127789.842 9   -269512.607 8
 89 11 11 12 29 59.0800000  0  4G13G 6G11G 9
  22032995.940    22033000.025   -40726464.083 9  24581315.757 9
  20690085.781    20690089.686    -6043442.133 9  -6069650.502 8
  20603638.221    20603642.042   -17183189.518 8 -14683139.818 8
  20753200.050    20753204.564   -27177206.079 9   -308018.747 8
 89 11 11 12 30 29.0800000  0  4G13G 6G11G 9
  22016918.039    22016924.306   -40810943.011 9  24515488.016 9
  20696235.174    20696237.914    -6011128.960 9  -6044471.428 9
  20604922.518    20604926.074   -17176436.189 9 -14677877.480 8
  20743879.529    20743882.555   -27226195.784 8   -346192.531 8
 89 11 11 12 30 59.0800000  0  4G13G 6G11G 9
  22000919.668    22000925.356   -40895023.943 9  24449970.428 9
  20702483.888    20702486.867    -5978289.149 8  -6018881.977 9
  20606304.335    20606309.884   -17169173.150 8 -14672217.962 9
  20734639.798    20734642.924   -27274756.019 9   -384031.689 9
 89 11 11 12 31 29.0800000  0  4G13G 6G11G 9
  21984995.612    21984999.398   -40978705.609 9  24384763.946 9
  20708832.840    20708836.275    -5944922.316 9  -5992881.853 9
  20607783.892    20607789.022   -17161401.601 8 -14666162.214 8
  20725478.224    20725483.782   -27322884.577 8   -421534.437 8
 89 11 11 12 31 59.0800000  0  4G13G 6G11G 9
  21969147.374    21969152.482   -41061986.191 9  24319869.993 9
  20715283.264    20715286.648    -5911027.980 9  -5966470.687 9
  20609359.244    20609364.031   -17153122.809 8 -14659711.210 8
  20716405.795    20716406.589   -27370578.708 9   -458698.666 8
 89 11 11 12 32 29.0800000  0  4G13G 6G11G 9
  21953376.806    21953380.769   -41144864.088 9  24255289.840 9
  20721833.308    20721835.915    -5876605.710 9  -5939648.158 9
  20611032.025    20611036.386   -17144337.814 8 -14652865.751 8
  20707411.982    20707414.635   -27417835.790 8   -495522.411 9
 89 11 11 12 32 59.0800000  0  4G13G 6G11G 9
  21937682.963    21937687.235   -41227338.284 9  24191024.228 9
  20728485.537    20728487.733    -5841655.374 9  -5912414.129 9
  20612798.753    20612803.189   -17135048.548 8 -14645627.359 8
  20698501.763    20698505.589   -27464653.527 9   -532003.711 8
 89 11 11 12 33 29.0800000  0  4G13G 6G11G 9
  21922064.816    21922069.610   -41309406.616 9  24127074.895 8
  20735235.723    20735239.175    -5806176.679 9  -5884768.406 9
  20614663.323    20614667.480   -17125256.292 8 -14637997.030 9
  20689678.114    20689680.682   -27511029.166 9   -568140.589 8
 89 11 11 12 33 59.0800000  0  4G13G 6G11G 9
  21906525.091    21906529.527   -41391067.746 9  24063442.866 8
  20742087.970    20742090.674    -5770169.429 9  -5856710.812 9
  20616622.234    20616626.309   -17114962.164 7 -14629975.635 8
  20680936.085    20680940.527   -27556960.450 8   -603931.199 8
 89 11 11 12 34 29.0800000  0  4G13G 6G11G 9
  21891063.916    21891067.737   -41472320.448 9  24000129.091 8
  20749039.812    20749043.296    -5733633.251 8  -5828241.079 9
  20618675.553    20618680.597   -17104167.398 8 -14621564.118 9
  20672281.914    20672285.298   -27602444.728 9   -639373.486 9
 89 11 11 12 34 59.0800000  0  4G13G 6G11G 9
  21875679.711    21875683.252   -41553162.760 9  23937135.082 8
  20756093.447    20756097.625    -5696567.843 8  -5799358.953 9
  20620824.948    20620830.261   -17092873.677 8 -14612763.797 9
  20663712.798    20663715.452   -27647479.404 9   -674465.452 8
 89 11 11 12 35 29.0800000  0  4G13G 6G11G 9
  21860374.191    21860378.383   -41633593.727 9  23874461.611 8
  20763247.846    20763251.065    -5658973.118 9  -5770064.373 9
  20623067.307    20623074.464   -17081082.294 8 -14603575.712 9
  20655226.932    20655230.072   -27692062.228 8   -709205.294 8
 89 11 11 12 35 59.0800000  0  4G13G 6G11G 9
  21845146.513    21845151.285   -41713611.886 9  23812109.812 9
  20770502.189    20770506.037    -5620848.994 9  -5740357.272 8
  20625406.338    20625410.737   -17068794.939 8 -14594001.151 8
  20646830.728    20646834.325   -27736190.637 9   -743591.041 8
 89 11 11 12 36 29.0800000  0  4G13G 6G11G 9
  21829999.153    21830003.511   -41793215.602 9  23750080.938 8
  20777858.591    20777861.703    -5582195.202 9  -5710237.453 9
  20627839.419    20627843.733   -17056013.349 8 -14584041.475 9
  20638519.863    20638524.605   -27779862.145 9   -777620.820 8
 89 11 11 12 36 59.0800000  0  4G13G 6G11G 9
  21814931.009    21814934.386   -41872403.501 9  23688376.105 8
  20785314.590    20785319.268    -5543011.809 9  -5679704.941 9
  20630364.101    20630369.971   -17042738.882 8 -14573697.722 8
  20630296.943    20630302.043   -27823074.597 9   -811292.807 8
 89 11 11 12 37 29.0800000  0  4G13G 6G11G 9
  21799940.027    21799944.119   -41951174.328 9  23626996.239 8
  20792871.954    20792875.727    -5503298.669 9  -5648759.643 9
  20632983.925    20632988.339   -17028973.087 8 -14562971.129 8
  20622163.226    20622164.764   -27865825.172 9   -844604.941 7
 89 11 11 12 37 59.0800000  0  4G13G 6G11G 9
  21785030.929    21785036.295   -42029526.608 9  23565942.525 8
  20800529.568    20800533.589    -5463055.581 9  -5617401.416 9
  20635697.853    20635701.405   -17014717.205 8 -14551862.642 9
  20614114.907    20614118.791   -27908111.717 8   -877555.516 8
 89 11 11 12 38 29.0800000  0  4G13G 6G11G 9
  21770200.797    21770205.512   -42107459.126 9  23505215.892 9
  20808288.331    20808293.103    -5422282.394 9  -5585630.104 9
  20638502.319    20638508.261   -16999972.667 7 -14540373.389 8
  20606159.139    20606160.677   -27949931.649 8   -910142.417 8
 89 11 11 12 38 59.0800000  0  4G13G 6G11G 9
  21755451.247    21755455.275   -42184970.518 9  23444817.418 8
  20816148.578    20816152.119    -5380979.307 9  -5553445.898 9
  20641400.786    20641404.352   -16984741.204 8 -14528504.722 7
  20598288.455    20598290.850   -27991282.666 9   -942363.994 9
 89 11 11 12 39 29.0800000  0  4G13G 6G11G 9
  21740781.249    21740785.913   -42262059.492 9  23384748.094 8
  20824109.290    20824113.164    -5339146.256 9  -5520848.723 9
  20644393.511    20644397.066   -16969024.916 8 -14516258.261 8
  20590508.060    20590510.671   -28032162.453 9   -974218.348 8
 89 11 11 12 39 59.0800000  0  4G13G 6G11G 9
  21726191.503    21726197.642   -42338724.643 9  23325009.013 8
  20832170.549    20832174.412    -5296783.104 9  -5487838.488 8
  20647473.307    20647479.517   -16952825.122 7 -14503635.048 8
  20582822.250    20582824.431   -28072568.202 9  -1005703.371 8
 89 11 11 12 40 29.0800000  0  4G13G 6G11G 9
  21711684.630    21711688.171   -42414964.594 9  23265601.282 9
  20840332.158    20840335.957    -5253889.970 9  -5454415.276 9
  20650649.973    20650653.389   -16936143.167 8 -14490636.108 8
  20575219.147    20575225.048   -28112497.837 8  -1036817.335 9
 89 11 11 12 40 59.0800000  0  4G13G 6G11G 9
  21697256.929    21697261.215   -42490778.082 9  23206525.847 9
  20848595.095    20848599.169    -5210466.873 9  -5420579.107 9
  20653915.778    20653921.480   -16918980.841 8 -14477262.874 8
  20567715.407    20567716.186   -28151948.807 9  -1067558.358 7
 89 11 11 12 41 29.0800000  0  4G13G 6G11G 9
  21682911.957    21682915.771   -42566164.190 9  23147783.421 9
  20856959.265    20856963.393    -5166513.872 9  -5386330.020 8
  20657272.500    20657277.709   -16901339.817 8 -14463516.638 8
  20560295.347    20560301.163   -28190918.795 8  -1097924.599 8
 89 11 11 12 41 59.0800000  0  4G13G 6G11G 9
  21668648.655    21668651.681   -42641121.219 9  23089375.374 9
  20865424.469    20865427.609    -5122031.032 9  -5351668.083 9
  20660720.408    20660724.564   -16883221.566 9 -14449398.492 8
  20552977.483    20552978.477   -28229405.483 9  -1127914.180 9
 89 11 11 12 42 29.0800000  0  4G13G 6G11G 9
  21654465.484    21654471.587   -42715648.036 9  23031302.538 9
  20873989.869    20873993.307    -5077018.391 9  -5316593.300 9
  20664257.343    20664264.151   -16864627.771 9 -14434909.826 8
  20545742.241    20545746.168   -28267406.396 8  -1157525.282 8
 89 11 11 12 42 59.0800000  0  4G13G 6G11G 9
  21640365.850    21640370.637   -42789743.666 9  22973565.683 8
  20882657.767    20882659.430    -5031476.185 9  -5281105.876 9
  20667886.126    20667892.279   -16845560.284 8 -14420052.057 8
  20538606.791    20538607.970   -28304919.401 8  -1186756.191 8
 89 11 11 12 43 29.0800000  0  4G13G 6G11G 9
  21626348.372    21626352.966   -42863406.368 9  22916166.183 9
  20891423.968    20891426.898    -4985404.496 9  -5245205.868 9
  20671603.511    20671608.942   -16826020.643 8 -14404826.355 9
  20531559.772    20531564.071   -28341941.958 8  -1215604.959 9
 89 11 11 12 43 59.0800000  0  4G13G 6G11G 9
  21612412.651    21612418.102   -42936634.888 9  22859105.013 9
  20900291.561    20900294.973    -4938803.627 9  -5208893.518 8
  20675412.847    20675418.385   -16806010.670 8 -14389234.172 9
  20524607.651    20524609.460   -28378471.998 8  -1244069.872 8
 89 11 11 12 44 29.0800000  0  4G13G 6G11G 9
  21598560.995    21598565.424   -43009429.047 9  22802382.315 9
  20909260.345    20909263.911    -4891673.671 9  -5172168.876 9
  20679310.493    20679313.984   -16785531.997 9 -14373276.757 8
  20517751.087    20517754.585   -28414507.001 8  -1272149.152 9
 89 11 11 12 44 59.0800000  0  4G13G 6G11G 9
  21584791.353    21584796.282   -43081787.027 9  22745999.473 9
  20918330.491    20918333.134    -4844014.666 9  -5135032.003 9
  20683294.981    20683300.848   -16764586.090 8 -14356955.265 8
  20510987.561    20510992.605   -28450044.777 9  -1299840.891 9
 89 11 11 12 45 29.0800000  0  4G13G 6G11G 9
  21571104.589    21571110.563   -43153708.207 9  22689957.014 9
  20927499.922    20927502.809    -4795827.196 9  -5097483.341 9
  20687370.360    20687374.668   -16743175.020 8 -14340271.308 8
  20504321.110    20504322.918   -28485083.108 9  -1327143.472 8
 89 11 11 12 45 59.0800000  0  4G13G 6G11G 9
  21557503.674    21557507.916   -43225191.282 9  22634255.916 8
  20936769.778    20936772.382    -4747111.494 9  -5059523.068 9
  20691532.837    20691535.813   -16721300.813 8 -14323226.463 8
  20497748.382    20497752.138   -28519619.865 8  -1354055.255 8
 89 11 11 12 46 29.0800000  0  4G13G 6G11G 9
  21543983.476    21543988.971   -43296234.867 9  22578897.291 8
  20946140.053    20946144.399    -4697867.793 9  -5021151.370 9
  20695782.807    20695787.032   -16698965.021 8 -14305821.938 8
  20491272.386    20491277.285   -28553652.569 8  -1380574.236 8
 89 11 11 12 46 59.0800000  0  4G13G 6G11G 9
  21530548.440    21530553.863   -43366838.075 9  22523881.817 8
  20955611.462    20955615.589    -4648096.313 9  -4982368.400 9
  20700121.090    20700126.051   -16676169.418 9 -14288059.138 8
  20484892.633    20484895.873   -28587178.964 9  -1406698.675 8
 89 11 11 12 47 29.0800000  0  4G13G 6G11G 9
  21517197.878    21517201.827   -43436999.852 9  22469210.327 8
  20965183.120    20965186.403    -4597797.419 9  -4943174.469 9
  20704545.789    20704550.450   -16652915.881 8 -14269939.505 9
  20478610.497    20478613.809   -28620196.944 8  -1432426.973 8
 89 11 11 12 47 59.0800000  0  4G13G 6G11G 9
  21503928.492    21503934.717   -43506719.320 8  22414883.474 9
  20974854.707    20974857.618    -4546971.603 9  -4903569.951 9
  20709057.713    20709060.754   -16629206.471 9 -14251464.625 9
  20472422.401    20472427.802   -28652704.284 9  -1457757.356 8
 89 11 11 12 48 29.0800000  0  4G13G 6G11G 9
  21490747.995    21490752.603   -43575995.274 9  22360902.224 8
  20984626.852    20984630.765    -4495619.005 9  -4863554.955 9
  20713656.835    20713660.752   -16605042.569 9 -14232635.604 8
  20466335.987    20466338.440   -28684698.864 9  -1482688.205 7
 89 11 11 12 48 59.0800000  0  4G13G 6G11G 9
  21477649.919    21477654.534   -43644826.400 9  22307267.594 9
  20994499.801    20994502.330    -4443740.187 9  -4823129.906 9
  20718341.264    20718344.862   -16580426.028 9 -14213453.869 8
  20460343.097    20460348.684   -28716178.304 9  -1507217.641 8
 89 11 11 12 49 29.0800000  0  4G13G 6G11G 9
  21464635.086    21464639.451   -43713212.231 9  22253979.936 8
  21004471.005    21004474.710    -4391335.406 9  -4782295.028 9
  20723109.155    20723114.364   -16555358.860 9 -14193921.028 8
  20454453.405    20454454.785   -28747140.545 9  -1531344.037 9
 89 11 11 12 49 59.0800000  0  4G13G 6G11G 9
  21451707.475    21451711.325   -43781151.478 9  22201040.284 8
  21014544.050    21014547.598    -4338405.040 9  -4741050.601 9
  20727966.969    20727969.945   -16529842.716 9 -14174038.312 8
  20448659.528    20448663.311   -28777583.175 9  -1555065.592 8
 89 11 11 12 50 29.0800000  0  4G13G 6G11G 9
  21438864.983    21438868.310   -43848643.752 9  22148448.920 8
  21024716.581    21024719.002    -4284949.833 9  -4699397.201 9
  20732907.847    20732912.233   -16503879.981 9 -14153807.591 8
  20442966.216    20442968.325   -28807504.588 9  -1578380.942 8
 89 11 11 12 50 59.0800000  0  4G13G 6G11G 9
  21426104.890    21426110.234   -43915687.537 9  22096207.012 8
  21034988.023    21034992.487    -4230970.177 9  -4657335.138 9
  20737930.002    20737936.992   -16477471.967 9 -14133229.940 8
  20437372.609    20437372.659   -28836902.270 9  -1601288.243 7
 89 11 11 12 51 29.0800000  0  4G13G 6G11G 9
  21413433.700    21413437.857   -43982282.516 9  22044314.836 8
  21045359.193    21045362.616    -4176466.668 9  -4614864.894 9
  20743042.748    20743045.771   -16450620.953 9 -14112307.063 7
  20431877.364    20431882.222   -28865774.085 9  -1623785.748 8
 89 11 11 12 51 59.0800000  0  4G13G 6G11G 9
  21400846.540    21400851.356   -44048427.065 9  21992773.636 8
  21055830.417    21055836.069    -4121439.635 9  -4571986.707 9
  20748234.792    20748239.482   -16423328.533 9 -14091040.234 8
  20426483.944    20426486.383   -28894118.017 9  -1645871.907 7
 89 11 11 12 52 29.0800000  0  4G13G 6G11G 9
  21388345.158    21388349.944   -44114121.193 9  21941583.414 8
  21066401.494    21066405.783    -4065889.717 9  -4528701.069 9
  20753511.164    20753515.160   -16395596.826 8 -14069431.131 8
  20421190.889    20421192.555   -28921932.337 8  -1667545.452 6
 89 11 11 12 52 59.0800000  0  4G13G 6G11G 9
  21375930.095    21375935.096   -44179363.376 9  21890745.358 9
  21077072.117    21077075.926    -4009817.640 9  -4485008.553 9
  20758873.291    20758877.791   -16367427.835 8 -14047481.259 8
  20416000.488    20416005.358   -28949214.541 9  -1688804.294 8
 89 11 11 12 53 29.0800000  0  4G13G 6G11G 9
  21363600.336    21363604.694   -44244152.919 9  21840260.012 8
  21087841.566    21087845.657    -3953223.838 9  -4440909.505 9
  20764316.222    20764320.808   -16338823.581 8 -14025192.232 8
  20410908.962    20410911.515   -28975963.001 9  -1709647.237 8
 89 11 11 12 53 59.0800000  0  4G13G 6G11G 9
  21351358.329    21351362.271   -44308489.288 9  21790127.783 8
  21098710.135    21098713.529    -3896109.028 9  -4396404.464 9
  20769840.775    20769845.201   -16309785.948 9 -14002565.498 8
  20405922.294    20405923.603   -29002175.397 9  -1730072.499 7
 89 11 11 12 54 29.0800000  0  4G13G 6G11G 9
  21339201.769    21339205.783   -44372371.567 9  21740349.401 8
  21109677.605    21109681.461    -3838473.818 9  -4351493.927 9
  20775449.954    20775454.523   -16280316.805 9 -13979602.518 7
  20401036.192    20401041.307   -29027849.624 9  -1750078.406 8
 89 11 11 12 54 59.0800000  0  4G13G 6G11G 9
  21327132.130    21327136.452   -44435798.743 9  21690925.633 9
  21120744.721    21120747.278    -3780318.786 9  -4306178.331 9
  20781139.965    20781144.605   -16250418.030 9 -13956304.795 8
  20396253.145    20396255.226   -29052983.912 9  -1769663.533 8
 89 11 11 12 55 29.0800000  0  4G13G 6G11G 9
  21315148.762    21315153.362   -44498769.886 9  21641857.231 8
  21131909.007    21131913.353    -3721644.623 9  -4260458.218 9
  20786908.605    20786913.650   -16220091.665 8 -13932673.857 8
  20391573.610    20391575.805   -29077576.122 9  -1788826.328 7
 89 11 11 12 55 59.0800000  0  4G13G 6G11G 9
  21303252.565    21303258.231   -44561284.753 9  21593144.345 7
  21143173.314    21143177.710    -3662452.184 9  -4214334.255 9
  20792762.131    20792763.928   -16189339.820 9 -13908711.364 8
  20386996.214    20387002.588   -29101624.539 8  -1807565.343 8
 89 11 11 12 56 29.0800000  0  4G13G 6G11G 9
  21291443.647    21291447.331   -44623342.595 9  21544787.611 8
  21154535.421    21154540.422    -3602741.946 9  -4167806.807 9
  20798696.462    20798699.238   -16158164.662 9 -13884419.003 9
  20382526.166    20382526.143   -29125126.896 9  -1825878.840 8
 89 11 11 12 56 59.0800000  0  4G13G 6G11G 9
  21279721.879    21279725.842   -44684942.539 9  21496787.670 8
  21165996.959    21166000.440    -3542514.883 9  -4120876.644 9
  20804704.162    20804713.130   -16126568.174 8 -13859798.417 8
  20378155.367    20378159.537   -29148081.469 8  -1843765.569 7
 89 11 11 12 57 29.0800000  0  4G13G 6G11G 9
  21268086.474    21268091.367   -44746083.539 9  21449145.328 7
  21177555.395    21177560.002    -3481771.609 9  -4073544.238 9
  20810800.850    20810802.822   -16094551.871 9 -13834850.664 8
  20373894.633    20373897.530   -29170486.265 9  -1861223.827 8
 89 11 11 12 57 59.0800000  0  4G13G 6G11G 9
  21256539.328    21256543.155   -44806764.888 9  21401861.170 8
  21189212.894    21189217.401    -3420513.012 9  -4025810.276 9
  20816973.944    20816973.024   -16062118.132 9 -13809577.539 8
  20369733.892    20369736.575   -29192339.351 8  -1878252.200 7
 89 11 11 12 58 29.0800000  0  4G13G 6G11G 9
  21245079.468    21245084.340   -44866986.521 9  21354935.229 9
  21200967.832    21200971.530    -3358739.847 9  -3977675.365 9
  20823217.778    20823227.858   -16029269.005 8 -13783980.841 8
  20365682.588    20365684.526   -29213638.971 8  -1894849.330 7
 89 11 11 12 58 59.0800000  0  4G13G 6G11G 9
  21233707.395    21233711.230   -44926747.809 9  21308368.006 8
  21212821.552    21212824.821    -3296453.000 9  -3929140.175 9
  20829553.695    20829558.238   -15996006.723 9 -13758062.246 8
  20361733.595    20361738.337   -29234383.177 9  -1911013.637 8
 89 11 11 12 59 29.0800000  0  4G13G 6G11G 9
  21222422.129    21222427.345   -44986048.056 9  21262160.034 8
  21224771.309    21224775.094    -3233653.299 9  -3880205.352 9
  20835963.058    20835962.185   -15962332.994 9 -13731822.916 7
  20357892.893    20357894.073   -29254570.160 8  -1926743.759 7
 89 11 11 12 59 59.0800000  0  4G13G 6G11G 9
  21211226.474    21211231.211   -45044886.363 9  21216312.018 8
  21236819.249    21236823.448    -3170341.552 9  -3830871.542 9
  20842441.456    20842448.439   -15928249.728 9 -13705264.533 8
  20354156.621    20354160.805   -29274198.089 8  -1942038.260 8
 89 11 11 13  0 29.0800000  0  4G13G 6G11G 9
  21200117.505    21200121.569   -45103262.438 9  21170824.180 8
  21248963.883    21248968.097    -3106518.639 9  -3781139.419 9
  20849010.781    20849016.086   -15893759.614 9 -13678389.143 8
  20350528.812    20350532.939   -29293265.206 8  -1956895.741 8
 89 11 11 13  0 59.0800000  0  4G13G 6G11G 9
  21189096.723    21189100.371   -45161175.475 9  21125697.142 9
  21261206.649    21261210.763    -3042185.700 9  -3731009.872 9
  20855653.144    20855655.187   -15858864.436 9 -13651198.076 7
  20347007.863    20347009.787   -29311769.608 9  -1971314.746 8
 89 11 11 13  1 29.0800000  0  4G13G 6G11G 9
  21178165.165    21178169.888   -45218624.777 9  21080931.464 8
  21273545.841    21273549.286    -2977343.533 9  -3680483.522 9
  20862363.683    20862367.719   -15823566.199 8 -13623692.955 7
  20343593.919    20343596.444   -29329709.799 9  -1985294.128 8
 89 11 11 13  1 59.0800000  0  4G13G 6G11G 9
  21167321.016    21167324.694   -45275610.460 9  21036527.046 8
  21285981.621    21285984.671    -2911993.154 9  -3629561.169 9
  20869160.704    20869162.700   -15787867.156 9 -13595875.501 8
  20340286.779    20340290.678   -29347083.806 8  -1998832.313 8
 89 11 11 13  2 29.0800000  0  4G13G 6G11G 9
  21156563.723    21156568.983   -45332131.687 9  20992484.542 8
  21298513.497    21298516.881    -2846135.578 9  -3578243.583 9
  20876031.906    20876035.617   -15751769.517 9 -13567747.464 8
  20337091.108    20337092.817   -29363890.079 9  -2011928.102 7
 89 11 11 13  2 59.0800000  0  4G13G 6G11G 9
  21145898.360    21145902.717   -45388188.059 9  20948804.284 8
  21311142.147    21311146.239    -2779771.698 9  -3526531.484 9
  20882970.559    20882979.639   -15715274.730 9 -13539310.030 7
  20333999.922    20334002.032   -29380126.724 9  -2024580.048 8
 89 11 11 13  3 29.0800000  0  4G13G 6G11G 9
  21135319.968    21135324.333   -45443778.762 9  20905486.850 8
  21323867.405    21323869.661    -2712902.520 9  -3474425.653 9
  20889993.225    20889994.048   -15678385.606 9 -13510565.249 8
  20331019.547    20331022.644   -29395792.249 8  -2036786.940 8
 89 11 11 13  3 59.0800000  0  4G13G 6G11G 9
  21124828.139    21124835.301   -45498903.842 9  20862532.252 9
  21336688.423    21336691.256    -2645529.220 9  -3421926.989 9
  20897089.415    20897089.586   -15641104.449 8 -13481514.941 8
  20328145.374    20328149.644   -29410884.918 8  -2048547.465 9
 89 11 11 13  4 29.0800000  0  4G13G 6G11G 9
  21114428.069    21114432.755   -45553562.778 9  20819940.884 7
  21349603.882    21349608.565    -2577652.785 9  -3369036.276 9
  20904254.346    20904261.032   -15603432.807 9 -13452160.441 9
  20325383.643    20325386.296   -29425403.075 8  -2059860.307 8
 89 11 11 13  4 59.0800000  0  4G13G 6G11G 9
  21104115.728    21104119.999   -45607755.094 9  20777713.126 8
  21362616.963    21362619.767    -2509274.291 9  -3315754.351 8
  20911498.700    20911502.338   -15565372.958 9 -13422503.472 8
  20322731.406    20322734.732   -29439345.059 8  -2070724.205 8
 89 11 11 13  5 29.0800000  0  4G13G 6G11G 9
  21093892.447    21093896.389   -45661480.029 9  20735849.554 9
  21375723.364    21375725.778    -2440394.900 9  -3262082.106 9
  20918817.219    20918816.947   -15526927.308 9 -13392545.769 8
  20320187.833    20320191.746   -29452709.343 8  -2081137.925 8
 89 11 11 13  5 59.0800000  0  4G13G 6G11G 9
  21083758.126    21083762.619   -45714737.615 9  20694350.144 9
  21388925.737    21388930.097    -2371015.627 9  -3208020.362 9
  20926200.931    20926207.888   -15488097.691 8 -13362288.915 7
  20317754.755    20317757.466   -29465494.212 9  -2091100.156 8
 89 11 11 13  6 29.0800000  0  4G13G 6G11G 9
  21073711.192    21073715.864   -45767527.084 9  20653215.506 9
  21402223.559    21402226.596    -2301137.684 9  -3153570.031 9
  20933664.802    20933671.302   -15448886.359 8 -13331734.676 8
  20315433.147    20315435.886   -29477698.183 8  -2100609.740 8
 89 11 11 13  6 59.0800000  0  4G13G 6G11G 9
  21063755.421    21063760.251   -45819848.602 9  20612445.503 7
  21415616.280    21415617.531    -2230762.296 9  -3098732.074 8
  20941201.722    20941203.189   -15409295.591 9 -13300884.711 7
  20313220.316    20313224.058   -29489319.769 8  -2109665.512 9
 89 11 11 13  7 29.0800000  0  4G13G 6G11G 9
  21053888.611    21053892.761   -45871701.601 8  20572040.577 8
  21429101.746    21429106.260    -2159890.569 9  -3043507.375 9
  20948802.815    20948807.126   -15369327.237 8 -13269740.522 8
  20311120.901    20311123.325   -29500357.396 9  -2118266.277 7
 89 11 11 13  7 59.0800000  0  4G13G 6G11G 9
  21044109.767    21044115.362   -45923085.957 9  20532000.826 8
  21442682.261    21442686.116    -2088523.723 9  -2987896.869 9
  20956481.697    20956485.954   -15328983.538 9 -13238303.884 9
  20309130.636    20309134.419   -29510809.775 8  -2126410.982 8
 89 11 11 13  8 29.0800000  0  4G13G 6G11G 9
  21034421.764    21034427.388   -45974001.438 9  20492326.455 8
  21456357.113    21456361.029    -2016663.257 9  -2931901.709 9
  20964231.963    20964234.700   -15288267.164 9 -13206576.827 9
  20307252.583    20307258.112   -29520675.343 8  -2134098.460 7
 89 11 11 13  8 59.0800000  0  4G13G 6G11G 9
  21024821.484    21024824.861   -46024447.506 9  20453017.860 8
  21470124.952    21470129.570    -1944310.010 9  -2875522.570 9
  20972047.852    20972053.490   -15247180.131 8 -13174560.972 8
  20305488.220    20305492.924   -29529952.478 8  -2141327.382 8
 89 11 11 13  9 29.0800000  0  4G13G 6G11G 9
  21015311.738    21015315.108   -46074424.171 9  20414074.998 8
  21483987.505    21483990.860    -1871465.415 9  -2818760.569 8
  20979937.540    20979940.230   -15205724.724 9 -13142258.074 8
  20303835.713    20303838.148   -29538639.803 8  -2148096.725 8
 89 11 11 13  9 59.0800000  0  4G13G 6G11G 9
  21005890.137    21005893.958   -46123931.431 9  20375497.933 8
  21497942.019    21497945.853    -1798130.640 9  -2761616.603 9
  20987897.572    20987898.746   -15163902.987 9 -13109669.689 9
  20302293.254    20302298.923   -29546736.106 8  -2154405.535 8
 89 11 11 13 10 29.0800000  0  4G13G 6G11G 9
  20996559.300    20996562.920   -46172968.693 9  20337287.080 7
  21511990.541    21511994.390    -1724307.233 9  -2704091.886 9
  20995923.183    20995928.407   -15121717.025 9 -13076797.503 8
  20300866.363    20300870.519   -29554239.693 8  -2160252.482 7
 89 11 11 13 10 59.0800000  0  4G13G 6G11G 9
  20987316.549    20987322.552   -46221535.742 9  20299442.635 8
  21526132.577    21526135.206    -1649996.435 9  -2646187.389 9
  21004018.795    21004024.862   -15079169.117 9 -13043643.339 9
  20299550.855    20299555.584   -29561149.517 7  -2165636.763 8
 89 11 11 13 11 29.0800000  0  4G13G 6G11G 9
  20978164.669    20978168.532   -46269632.931 9  20261964.336 7
  21540364.464    21540367.919    -1575199.774 9  -2587904.296 9
  21012185.323    21012189.115   -15036261.549 9 -13010208.862 7
  20298350.110    20298354.684   -29567464.225 8  -2170557.300 8
 89 11 11 13 11 59.0800000  0  4G13G 6G11G 9
  20969100.683    20969105.133   -46317259.733 9  20224852.538 9
  21554690.656    21554693.778    -1499918.453 9  -2529243.549 9
  21020417.387    21020421.795   -14992996.355 9 -12976495.708 9
  20297260.770    20297264.919   -29573182.252 8  -2175012.900 7
 89 11 11 13 12 29.0800000  0  4G13G 6G11G 9
  20960127.632    20960133.120   -46364416.353 9  20188107.144 9
  21569107.082    21569111.735    -1424153.731 9  -2470206.112 9
  21028717.563    21028723.445   -14949375.684 9 -12942505.585 8
  20296287.291    20296291.529   -29578302.589 8  -2179002.790 8
 89 11 11 13 12 59.0800000  0  4G13G 6G11G 9
  20951243.588    20951248.457   -46411101.756 9  20151728.920 8
  21583617.379    21583621.414    -1347907.007 9  -2410793.108 9
  21037087.568    21037092.233   -14905401.931 9 -12908240.339 8
  20295426.979    20295430.645   -29582823.599 7  -2182525.652 8
 89 11 11 13 13 29.0800000  0  4G13G 6G11G 9
  20942449.488    20942454.264   -46457316.638 9  20115717.336 7
  21598217.899    21598221.698    -1271179.841 9  -2351005.737 9
  21045522.108    21045525.871   -14861077.498 9 -12873701.827 8
  20294681.786    20294684.017   -29586744.305 9  -2185580.750 8
 89 11 11 13 13 59.0800000  0  4G13G 6G11G 9
  20933744.813    20933748.276   -46503060.584 9  20080072.722 8
  21612910.092    21612913.039    -1193973.556 9  -2290845.007 9
  21054021.753    21054025.703   -14816404.497 8 -12838891.682 7
  20294048.837    20294054.127   -29590063.492 8  -2188167.128 8
 89 11 11 13 14 29.0800000  0  4G13G 6G11G 9
  20925130.687    20925132.271   -46548333.635 9  20044795.022 7
  21627692.897    21627696.824    -1116289.793 9  -2230312.217 9
  21062588.953    21062592.988   -14771384.976 9 -12803811.540 9
  20293533.252    20293536.607   -29592780.073 8  -2190283.951 8
 89 11 11 13 14 59.0800000  0  4G13G 6G11G 9
  20916603.482    20916608.251   -46593136.193 9  20009883.942 7
  21642565.700    21642569.119    -1038130.075 9  -2169408.565 9
  21071222.018    21071227.412   -14726021.232 9 -12768463.197 9
  20293130.592    20293133.950   -29594892.763 7  -2191930.219 7
 89 11 11 13 15 29.0800000  0  4G13G 6G11G 9
  20908168.532    20908171.411   -46637468.013 9  19975339.688 8
  21657529.695    21657533.687     -959495.830 9  -2108135.158 9
  21079920.190    21079924.568   -14680315.832 9 -12732848.615 8
  20292844.819    20292846.973   -29596400.575 8  -2193105.136 7
 89 11 11 13 15 59.0800000  0  4G13G 6G11G 9
  20899820.431    20899824.681   -46681329.042 9  19941162.279 8
  21672583.467    21672586.979     -880388.581 9  -2046493.154 9
  21088681.064    21088684.914   -14634270.555 9 -12696969.170 8
  20292671.457    20292676.801   -29597302.125 8  -2193807.637 7
 89 11 11 13 16 29.0800000  0  4G13G 6G11G 9
  20891563.909    20891568.753   -46724719.805 9  19907351.308 8
  21687726.456    21687730.347     -800809.799 9  -1984483.741 9
  21097507.160    21097511.339   -14587887.676 9 -12660826.667 8
  20292616.889    20292619.947   -29597596.356 7  -2194036.908 8
 89 11 11 13 16 59.0800000  0  4G13G 6G11G 9
  20883397.124    20883400.548   -46767639.576 9  19873907.349 7
  21702959.271    21702963.055     -720760.980 9  -1922108.038 9
  21106399.151    21106402.556   -14541169.671 9 -12624423.020 9
  20292675.039    20292678.859   -29597282.222 8  -2193792.129 8
 89 11 11 13 17 29.0800000  0  4G13G 6G11G 9
  20875318.215    20875323.578   -46810088.510 9  19840830.279 7
  21718281.182    21718285.224     -640243.871 9  -1859367.470 9
  21115352.927    21115356.590   -14494118.897 9 -12587760.081 9
  20292852.896    20292855.795   -29596358.785 7  -2193072.575 8
 89 11 11 13 17 59.0800000  0  4G13G 6G11G 9
  20867330.871    20867335.483   -46852066.699 9  19808120.018 7
  21733692.132    21733695.409     -559260.032 9  -1796263.196 9
  21124366.960    21124373.299   -14446737.402 9 -12550839.461 9
  20293144.388    20293147.320   -29594824.970 8  -2191877.386 8
 89 11 11 13 18 29.0800000  0  4G13G 6G11G 9
  20859431.990    20859438.007   -46893574.215 9  19775776.493 8
  21749191.106    21749195.004     -477811.078 9  -1732796.503 9
  21133445.241    21133449.935   -14399027.705 8 -12513663.083 8
  20293552.129    20293554.521   -29592679.761 7  -2190205.804 8
 89 11 11 13 18 59.0800000  0  4G13G 6G11G 9
  20851623.943    20851627.321   -46934611.562 9  19743799.356 7
  21764778.195    21764781.800     -395898.551 9  -1668968.576 9
  21142589.273    21142591.677   -14350991.755 9 -12476232.449 8
  20294076.844    20294080.216   -29589922.230 8  -2188057.082 8
 89 11 11 13 19 29.0800000  0  4G13G 6G11G 9
  20843904.256    20843908.277   -46975179.177 9  19712188.242 7
  21780454.244    21780457.649     -313524.233 9  -1604780.812 9
  21151790.599    21151795.207   -14302632.035 9 -12438549.547 8
  20294718.056    20294721.529   -29586551.443 8  -2185430.481 8
 89 11 11 13 19 59.0800000  0  4G13G 6G11G 9
  20836273.715    20836277.210   -47015276.750 9  19680943.397 7
  21796216.377    21796220.641     -230689.627 9  -1540234.393 9
  21161051.966    21161058.549   -14253950.698 9 -12400616.078 9
  20295477.447    20295479.667   -29582566.360 8  -2182325.242 8
 89 11 11 13 20 29.0800000  0  4G13G 6G11G 9
  20828732.192    20828736.670   -47054904.462 9  19650064.678 8
  21812066.734    21812070.390     -147396.437 9  -1475330.625 9
  21170379.599    21170383.935   -14204950.010 9 -12362433.753 8
  20296351.871    20296355.650   -29577966.205 8  -2178740.711 8
 89 11 11 13 20 59.0800000  0  4G13G 6G11G 9
  20821280.243    20821286.210   -47094062.563 9  19619551.873 8
  21828004.091    21828007.217      -63646.596 9  -1410071.038 9
  21179764.998    21179766.044   -14155632.338 9 -12324004.368 8
  20297345.497    20297348.402   -29572750.064 8  -2174676.201 8
 89 11 11 13 21 29.0800000  0  4G13G 6G11G 9
  20813917.317    20813922.504   -47132751.275 9  19589404.828 7
  21844027.904    21844031.331       20558.341 9  -1344456.826 9
  21189207.563    21189211.627   -14105999.599 8 -12285329.483 8
  20298452.865    20298458.412   -29566917.086 8  -2170131.029 9
 89 11 11 13 21 59.0800000  0  4G13G 6G11G 9
  20806646.359    20806650.254   -47170970.352 9  19559623.758 7
  21860138.395    21860142.516      105216.715 9  -1278489.293 9
  21198712.015    21198717.195   -14056054.051 9 -12246410.908 8
  20299682.958    20299687.376   -29560466.347 7  -2165104.484 8
 89 11 11 13 22 29.0800000  0  4G13G 6G11G 9
  20799461.910    20799465.820   -47208720.204 9  19530208.299 7
  21876333.532    21876337.516      190326.653 9  -1212169.874 8
  21208277.267    21208282.089   -14005798.180 9 -12207250.525 8
  20301027.529    20301031.277   -29553397.316 8  -2159596.136 8
 89 11 11 13 22 59.0800000  0  4G13G 6G11G 9
  20792367.420    20792371.806   -47246001.055 9  19501158.305 8
  21892615.146    21892619.073      275886.634 9  -1145499.794 9
  21217899.727    21217900.900   -13955234.285 9 -12167850.068 8
  20302491.192    20302493.631   -29545708.989 7  -2153605.236 8
 89 11 11 13 23 29.0800000  0  4G13G 6G11G 9
  20785362.817    20785366.859   -47282813.318 9  19472473.433 9
  21908981.493    21908986.636      361894.519 9  -1078480.690 9
  21227577.019    21227580.296   -13904364.610 8 -12128211.328 8
  20304072.433    20304075.394   -29537400.706 7  -2147131.245 8
 89 11 11 13 23 59.0800000  0  4G13G 6G11G 9
  20778446.927    20778451.563   -47319158.103 9  19444152.829 8
  21925433.887    21925436.333      448348.442 9  -1011114.024 9
  21237315.255    21237320.134   -13853191.750 9 -12088336.414 8
  20305770.638    20305773.492   -29528472.021 7  -2140173.848 7
 89 11 11 13 24 29.0800000  0  4G13G 6G11G 9
  20771620.269    20771622.001   -47355035.081 9  19416196.757 7
  21941970.119    21941974.383      535246.818 9   -943401.037 9
  21247112.315    21247116.608   -13801717.411 9 -12048226.568 9
  20307586.485    20307591.729   -29518921.743 7  -2132732.085 8
 89 11 11 13 24 59.0800000  0  4G13G 6G11G 9
  20764881.048    20764884.582   -47390444.528 9  19388604.991 8
  21958590.282    21958594.717      622587.776 9   -875343.167 8
  21256963.507    21256968.372   -13749944.253 9 -12007883.839 8
  20309522.616    20309527.162   -29508749.545 7  -2124805.699 9
 89 11 11 13 25 29.0800000  0  4G13G 6G11G 9
  20758231.001    20758236.803   -47425386.718 9  19361377.309 7
  21975295.170    21975298.539      710369.477 9   -806941.879 9
  21266871.707    21266875.456   -13697874.357 9 -11967309.919 8
  20311578.049    20311578.406   -29497954.789 7  -2116394.196 8
 89 11 11 13 25 59.0800000  0  4G13G 6G11G 9
  20751671.775    20751675.656   -47459861.911 9  19334513.528 8
  21992082.285    21992087.121      798590.038 9   -738198.610 9
  21276835.856    21276840.492   -13645510.118 9 -11926506.614 8
  20313751.988    20313754.287   -29486536.523 7  -2107496.859 8
 89 11 11 13 26 29.0800000  0  4G13G 6G11G 9
  20745199.435    20745203.702   -47493871.077 9  19308012.920 8
  22008953.295    22008956.829      887247.676 9   -669114.762 9
  21286857.385    21286860.676   -13592853.813 9 -11885475.736 8
  20316042.078    20316044.979   -29474494.599 8  -2098113.523 8
 89 11 11 13 26 59.0800000  0  4G13G 6G11G 9
  20738816.158    20738819.892   -47527414.340 9  19281875.321 7
  22025906.905    22025910.582      976340.303 9   -599691.970 9
  21296932.187    21296935.950   -13539907.694 9 -11844219.016 8
  20318451.761    20318454.697   -29461828.241 8  -2088243.652 8
 89 11 11 13 27 29.0800000  0  4G13G 6G11G 9
  20732522.707    20732526.896   -47560492.029 9  19256100.495 8
  22042943.415    22042947.278     1065866.331 9   -529931.456 9
  21307060.963    21307065.713   -13486673.660 9 -11802737.984 8
  20320981.834    20320985.578   -29448536.818 7  -2077886.718 9
 89 11 11 13 27 59.0800000  0  4G13G 6G11G 9
  20726315.723    20726321.096   -47593104.686 9  19230688.056 8
  22060061.795    22060065.694     1155823.506 9   -459834.981 9
  21317246.776    21317250.596   -13433154.122 9 -11761034.463 8
  20323630.838    20323632.840   -29434619.983 8  -2067042.426 7
 89 11 11 13 28 29.0800000  0  4G13G 6G11G 9
  20720198.322    20720203.384   -47625252.234 9  19205638.037 8
  22077261.544    22077266.517     1246209.976 9   -389404.011 8
  21327485.604    21327489.281   -13379351.480 9 -11719110.325 8
  20326397.535    20326401.401   -29420077.397 7  -2055710.558 8
 89 11 11 13 28 59.0800000  0  4G13G 6G11G 9
  20714169.666    20714173.691   -47656935.515 9  19180949.784 8
  22094542.520    22094546.541     1337023.625 9   -318640.150 9
  21337776.489    21337780.310   -13325267.964 9 -11676967.327 8
  20329283.192    20329287.125   -29404908.340 8  -2043890.517 8
 89 11 11 13 29 29.0800000  0  4G13G 6G11G 9
  20708229.119    20708232.607   -47688155.161 9  19156622.796 8
  22111906.403    22111910.209     1428262.736 9   -247544.789 9
  21348120.804    21348125.827   -13270905.859 9 -11634607.257 8
  20332288.969    20332293.594   -29389112.474 6  -2031582.055 9
 89 11 11 13 29 59.0800000  0  4G13G 6G11G 9
  20702375.598    20702379.318   -47718911.824 9  19132656.577 8
  22129347.992    22129352.607     1519925.195 9   -176119.529 9
  21358518.980    21358523.487   -13216267.321 9 -11592031.800 8
  20335414.463    20335419.492   -29372689.429 8  -2018784.882 9
 89 11 11 13 30 29.0800000  0  4G13G 6G11G 9
  20696611.416    20696614.585   -47749205.927 9  19109050.788 8
  22146871.545    22146875.064     1612008.968 9   -104365.987 9
  21368968.539    21368973.891   -13161354.752 9 -11549242.796 8
  20338659.069    20338663.468   -29355639.116 8  -2005498.927 9
 89 11 11 13 30 59.0800000  0  4G13G 6G11G 9
  20690933.972    20690938.641   -47779038.009 9  19085805.012 8
  22164473.847    22164476.358     1704511.953 9    -32285.753 9
  21379469.297    21379473.118   -13106170.515 9 -11506242.107 8
  20342022.978    20342027.180   -29337960.837 7  -1991723.676 8
 89 11 11 13 31 29.0800000  0  4G13G 6G11G 9
  20685344.802    20685348.966   -47808408.566 9  19062918.888 8
  22182155.631    22182160.860     1797432.207 9     40119.585 9
  21390021.253    21390025.689   -13050716.734 9 -11463031.365 9
  20345506.401    20345512.360   -29319654.464 7  -1977458.970 8
 89 11 11 13 31 59.0800000  0  4G13G 6G11G 9
  20679843.801    20679847.536   -47837318.238 9  19040391.873 8
  22199918.110    22199921.466     1890767.712 9    112848.521 9
  21400625.023    21400630.804   -12994995.473 9 -11419612.230 9
  20349109.778    20349114.799   -29300719.415 8  -1962704.403 8
 89 11 11 13 32 29.0800000  0  4G13G 6G11G 9
  20674429.801    20674434.748   -47865767.678 9  19018223.491 7
  22217756.601    22217761.251     1984516.378 9    185899.386 9
  21411280.049    21411283.969   -12939008.729 9 -11375986.197 8
  20352833.291    20352836.693   -29281155.694 8  -1947459.950 8
 89 11 11 13 32 59.0800000  0  4G13G 6G11G 9
  20669103.104    20669106.262   -47893757.090 9  18996413.576 9
  22235675.766    22235679.193     2078676.143 9    259270.594 9
  21421983.982    21421987.102   -12882759.224 9 -11332155.430 8
  20356676.186    20356680.135   -29260962.974 7  -1931725.383 8
 89 11 11 13 33 29.0800000  0  4G13G 6G11G 9
  20663864.691    20663868.115   -47921287.207 9  18974961.542 7
  22253670.799    22253674.469     2173244.795 9    332960.422 9
  21432737.455    21432741.004   -12826249.087 9 -11288121.571 8
  20360637.937    20360642.021   -29240141.065 7  -1915500.536 8
 89 11 11 13 33 59.0800000  0  4G13G 6G11G 9
  20658712.942    20658717.739   -47948359.201 9  18953866.487 8
  22271744.461    22271748.731     2268220.261 9    406967.228 9
  21443538.964    21443543.671   -12769480.597 9 -11243886.419 8
  20364720.471    20364723.769   -29218689.827 7  -1898785.308 8
 89 11 11 13 34 29.0800000  0  4G13G 6G11G 9
  20653648.569    20653653.567   -47974973.594 9  18933128.010 8
  22289894.491    22289897.560     2363600.442 9    481289.397 9
  21454391.199    21454395.276   -12712456.199 9 -11199451.821 8
  20368922.134    20368926.082   -29196609.327 7  -1881579.735 9
 89 11 11 13 34 59.0800000  0  4G13G 6G11G 9
  20648670.842    20648675.514   -48001130.694 9  18912745.865 7
  22308122.520    22308124.966     2459383.304 9    555925.345 9
  21465291.812    21465294.989   -12655177.776 9 -11154819.293 9
  20373243.667    20373247.530   -29173899.085 8  -1863883.446 8
 89 11 11 13 35 29.0800000  0  4G13G 6G11G 9
  20643780.267    20643784.130   -48026831.029 9  18892719.637 8
  22326424.027    22326428.513     2555566.668 9    630873.391 9
  21476238.845    21476243.811   -12597647.376 8 -11109990.421 8
  20377686.579    20377688.681   -29150559.092 7  -1845696.444 8
 89 11 11 13 35 59.0800000  0  4G13G 6G11G 9
  20638976.611    20638979.616   -48052075.355 8  18873048.730 8
  22344803.613    22344808.771     2652148.255 9    706131.714 9
  21487231.839    21487238.479   -12539867.403 9 -11064967.097 8
  20382245.677    20382249.543   -29126589.250 8  -1827018.658 8
 89 11 11 13 36 29.0800000  0  4G13G 6G11G 9
  20634258.488    20634261.868   -48076864.557 9  18853732.480 7
  22363257.513    22363261.569     2749125.959 9    781698.699 9
  21498275.216    21498279.738   -12481840.450 9 -11019751.331 7
  20386927.341    20386932.198   -29101989.831 7  -1807850.293 8
 89 11 11 13 36 59.0800000  0  4G13G 6G11G 9
  20629627.651    20629632.634   -48101199.521 9  18834770.193 7
  22381787.316    22381790.800     2846497.591 9    857572.650 9
  21509364.855    21509367.817   -12423568.386 9 -10974344.511 8
  20391728.494    20391733.018   -29076760.494 7  -1788191.097 9
 89 11 11 13 37 29.0800000  0  4G13G 6G11G 9
  20625082.755    20625087.713   -48125081.152 9  18816161.132 7
  22400390.318    22400394.360     2944260.901 9    933751.817 9
  21520500.869    21520503.488   -12365053.937 9 -10928748.844 8
  20396647.866    20396653.049   -29050901.554 8  -1768041.300 8
 89 11 11 13 37 59.0800000  0  4G13G 6G11G 9
  20620623.889    20620629.798   -48148510.276 8  18797904.682 7
  22419068.808    22419073.358     3042413.608 9   1010234.389 9
  21531680.312    21531684.405   -12306298.792 9 -10882965.649 9
  20401688.473    20401693.727   -29024412.824 8  -1747400.734 7
 89 11 11 13 38 29.0800000  0  4G13G 6G11G 9
  20616253.075    20616258.159   -48171487.537 9  18780000.324 8
  22437820.217    22437823.930     3140953.425 9   1087018.602 9
  21542904.815    21542911.397   -12247305.352 9 -10836996.794 8
  20406849.949    20406853.979   -28997294.626 8  -1726269.685 8
 89 11 11 13 38 59.0800000  0  4G13G 6G11G 9
  20611966.102    20611971.167   -48194013.491 9  18762447.653 8
  22456644.897    22456649.468     3239878.296 9   1164102.864 9
  21554178.040    21554181.431   -12188075.858 9 -10790843.969 8
  20412130.270    20412134.816   -28969546.908 8  -1704648.110 8
 89 11 11 13 39 29.0800000  0  4G13G 6G11G 9
  20607766.215    20607770.147   -48216088.900 9  18745246.054 7
  22475542.418    22475547.418     3339185.986 9   1241485.411 9
  21565494.393    21565494.737   -12128612.387 9 -10744508.757 8
  20417530.563    20417533.775   -28941169.644 8  -1682535.968 8
 89 11 11 13 39 59.0800000  0  4G13G 6G11G 9
  20603650.788    20603654.193   -48237714.847 9  18728394.673 7
  22494512.379    22494516.800     3438874.338 9   1319164.598 8
  21576851.885    21576856.207   -12068916.874 9 -10697992.775 8
  20423050.445    20423054.369   -28912162.748 8  -1659933.213 8
 89 11 11 13 40 29.0800000  0  4G13G 6G 3G 9
  20599621.176    20599624.520   -48258892.081 9  18711892.937 9
  22513555.208    22513559.160     3538940.768 9   1397138.389 9
                  23980407.925   -75695150.202 9
  20428690.648    20428693.852   -28882527.008 8  -1636840.448 8
 89 11 11 13 40 59.0800000  0  4G13G 6G 3G 9
  20595675.971    20595680.027   -48279621.629 9  18695740.044 8
  22532668.118    22532672.406     3639383.030 9   1475405.013 9
  23964059.792    23964062.965   -75781262.007 9  96014921.846 8
  20434450.356    20434452.472   -28852262.251 8  -1613257.535 7
 89 11 11 13 41 29.0800000  0  4G13G 6G 3G 9
  20591814.969    20591819.730   -48299904.122 9  18679935.516 8
  22551853.175    22551857.463     3740198.793 9   1553962.711 9
  23947718.047    23947721.231   -75867134.890 9  95948007.908 8
  20440329.459    20440330.860   -28821369.110 8  -1589184.964 8
 89 11 11 13 41 59.0800000  0  4G13G 6G 3G 9
  20588040.233    20588046.117   -48319740.419 9  18664478.650 8
  22571107.281    22571113.515     3841385.639 9   1632809.518 9
  23931422.299    23931426.875   -75952768.181 9  95881280.673 9
  20446325.670    20446329.875   -28789847.901 8  -1564623.002 7
 89 11 11 13 42 29.0800000  0  4G13G 6G 3G 9
  20584349.835    20584355.769   -48339132.044 8  18649368.308 8
  22590434.413    22590437.915     3942941.301 9   1711943.756 9
  23915173.604    23915176.583   -76038161.124 9  95814740.704 8
  20452443.794    20452447.870   -28757698.594 8  -1539571.625 8
 89 11 11 13 42 59.0800000  0  4G13G 6G 3G 9
  20580745.343    20580750.605   -48358079.377 9  18634604.180 7
  22609829.000    22609832.859     4044863.584 9   1791363.640 9
  23898969.335    23898973.351   -76123312.738 9  95748388.802 8
  20458680.714    20458684.590   -28724921.780 7  -1514031.265 8
 89 11 11 13 43 29.0800000  0  4G13G 6G 3G 9
  20577224.595    20577227.979   -48376583.440 9  18620185.425 8
  22629293.658    22629297.288     4147149.995 9   1871067.284 8
  23882811.459    23882815.194   -76208222.246 9  95682225.545 9
  20465036.829    20465041.191   -28691517.661 8  -1488002.097 8
 89 11 11 13 43 59.0800000  0  4G13G 6G 3G 9
  20573786.823    20573792.739   -48394644.986 9  18606111.508 8
  22648827.308    22648831.496     4249798.246 9   1951052.872 9
  23866700.300    23866704.657   -76292888.595 9  95616251.776 9
  20471513.312    20471517.174   -28657486.691 8  -1461484.481 8
 89 11 11 13 44 29.0800000  0  4G13G 6G 3G 9
  20570434.462    20570438.453   -48412265.511 9  18592381.217 8
  22668428.706    22668432.657     4352805.833 9   2031318.447 9
  23850635.044    23850639.072   -76377311.539 9  95550467.651 9
  20478109.450    20478113.297   -28622829.094 8  -1434478.584 9
 89 11 11 13 44 59.0800000  0  4G13G 6G 3G 9
  20567165.220    20567169.386   -48429446.056 9  18578993.787 8
  22688098.651    22688101.608     4456170.335 9   2111862.148 9
  23834615.836    23834620.529   -76461489.982 9  95484874.074 9
  20484823.437    20484827.027   -28587545.748 8  -1406985.085 8
 89 11 11 13 45 29.0800000  0  4G13G 6G 3G 9
  20563978.205    20563984.784   -48446187.456 9  18565948.540 8
  22707836.271    22707840.667     4559889.453 9   2192682.168 9
  23818644.810    23818648.634   -76545422.856 9  95419471.836 8
  20491657.451    20491661.012   -28551636.702 8  -1379004.023 8
 89 11 11 13 45 59.0800000  0  4G13G 6G 3G 9
  20560876.949    20560881.113   -48462490.419 9  18553244.935 8
  22727639.271    22727644.188     4663960.741 9   2273776.590 8
  23802718.744    23802722.743   -76629109.862 9  95354261.163 9
  20498608.141    20498612.346   -28515102.528 8  -1350535.856 8
 89 11 11 13 46 29.0800000  0  4G13G 6G 3G 9
  20557858.153    20557863.358   -48478356.430 9  18540881.825 8
  22747511.025    22747514.906     4768381.949 9   2355143.701 8
  23786840.180    23786844.823   -76712549.952 9  95289242.930 9
  20505680.317    20505683.033   -28477943.779 9  -1321581.003 8
 89 11 11 13 46 59.0800000  0  4G13G 6G 3G 9
  20554922.179    20554926.682   -48493786.182 9  18528858.644 9
  22767447.394    22767451.832     4873150.435 9   2436781.374 9
  23771010.454    23771013.781   -76795742.524 9  95224417.574 9
  20512869.513    20512873.804   -28440161.028 8  -1292139.925 8
 89 11 11 13 47 29.0800000  0  4G13G 6G 3G 9
  20552067.789    20552072.650   -48508780.812 8  18517174.517 7
  22787450.206    22787452.935     4978263.807 9   2518687.864 9
  23755226.091    23755229.744   -76878686.584 8  95159785.821 8
  20520178.219    20520181.681   -28401754.813 8  -1262213.010 8
 89 11 11 13 47 59.0800000  0  4G13G 6G 3G 9
  20549296.531    20549302.490   -48523341.278 8  18505828.703 8
  22807516.974    22807522.178     5083719.697 9   2600861.173 9
  23739489.808    23739493.389   -76961381.695 8  95095348.071 8
  20527604.118    20527608.252   -28362725.694 8  -1231800.748 8
 89 11 11 13 48 29.0800000  0  4G13G 6G 3G 9
  20546608.908    20546613.887   -48537468.764 9  18494820.266 8
  22827649.764    22827654.174     5189515.440 9   2683299.335 9
  23723800.802    23723804.894   -77043827.205 8  95031104.848 8
  20535150.156    20535154.133   -28323074.687 8  -1200903.875 8
 89 11 11 13 48 59.0800000  0  4G13G 6G 3G 9
  20544004.817    20544009.031   -48551164.331 9  18484148.414 8
  22847846.338    22847850.132     5295648.778 9   2766000.552 9
  23708159.009    23708163.270   -77126022.125 7  94967056.846 9
  20542813.731    20542817.178   -28282802.053 8  -1169522.625 8
 89 11 11 13 49 29.0800000  0  4G13G 6G 3G 9
  20541478.033    20541482.976   -48564429.082 9  18473812.237 8
  22868107.625    22868111.470     5402116.904 9   2848962.644 9
  23692565.356    23692570.772   -77207966.076 8  94903204.430 8
  20550596.587    20550598.746   -28241908.757 8  -1137657.743 8
 89 11 11 13 49 59.0800000  0  4G13G 6G 3G 9
  20539035.418    20539040.730   -48577264.579 8  18463810.552 8
  22888429.311    22888433.664     5508917.375 9   2932183.676 9
  23677020.740    23677024.776   -77289658.301 9  94839548.155 7
  20558495.519    20558500.139   -28200395.501 7  -1105309.773 8
 89 11 11 13 50 29.0800000  0  4G13G 6G 3G 9
  20536674.273    20536680.579   -48589671.190 9  18454143.063 8
  22908817.406    22908821.236     5616047.773 9   3015661.835 9
  23661523.217    23661526.411   -77371098.012 8  94776088.655 8
  20566513.475    20566517.136   -28158263.016 9  -1072479.285 9
 89 11 11 13 50 59.0800000  0  4G13G 6G 3G 9
  20534395.863    20534400.202   -48601650.451 9  18444808.572 8
  22929266.136    22929269.773     5723505.589 9   3099395.065 9
  23646074.097    23646078.025   -77452284.720 9  94712826.287 8
  20574648.680    20574651.168   -28115511.968 8  -1039166.790 8
 89 11 11 13 51 29.0800000  0  4G13G 6G 3G 9
  20532197.102    20532201.659   -48613203.526 9  18435806.178 9
  22949776.067    22949779.095     5831288.408 9   3183381.619 9
  23630673.211    23630676.570   -77533217.626 8  94649761.680 7
  20582902.137    20582905.154   -28072143.176 8  -1005372.958 9
 89 11 11 13 51 59.0800000  0  4G13G 6G 3G 9
  20530080.036    20530083.090   -48624331.442 9  18427135.080 8
  22970346.918    22970352.380     5939393.711 9   3267619.397 9
  23615320.832    23615324.720   -77613895.868 8  94586895.517 8
  20591272.271    20591275.517   -28028157.451 9   -971098.407 7
 89 11 11 13 52 29.0800000  0  4G13G 6G 3G 9
  20528041.896    20528047.733   -48635035.069 9  18418794.582 8
  22990980.059    22990984.776     6047818.906 9   3352106.466 9
  23600017.140    23600020.868   -77694318.978 8  94524228.155 8
  20599758.137    20599762.157   -27983555.560 8   -936343.700 7
 89 11 11 13 52 59.0800000  0  4G13G 6G 3G 9
  20526086.123    20526091.127   -48645316.369 9  18410783.170 7
  23011673.082    23011677.320     6156561.374 9   3436840.748 9
  23584761.094    23584765.484   -77774486.446 9  94461759.997 8
  20608363.886    20608367.118   -27938338.523 9   -901109.675 8
 89 11 11 13 53 29.0800000  0  4G13G 6G 3G 9
  20524210.649    20524214.498   -48655175.905 9  18403100.409 8
  23032425.840    23032432.145     6265618.884 9   3521820.501 9
  23569554.358    23569559.198   -77854397.362 9  94399491.731 8
  20617085.196    20617087.383   -27892507.088 9   -865396.888 8
 89 11 11 13 53 59.0800000  0  4G13G 6G 3G 9
  20522414.420    20522417.890   -48664615.599 8  18395744.808 8
  23053238.195    23053241.875     6374988.600 9   3607043.553 8
  23554396.685    23554400.953   -77934051.279 9  94337423.741 8
  20625923.097    20625925.542   -27846062.119 8   -829206.035 7
 89 11 11 13 54 29.0800000  0  4G13G 6G 3G 9
  20520698.613    20520702.619   -48673636.109 9  18388715.852 8
  23074109.626    23074113.320     6484667.957 9   3692507.878 9
  23539288.567    23539292.610   -78013447.527 9  94275556.532 9
  20634878.134    20634881.809   -27799004.804 9   -792538.016 9
 89 11 11 13 54 59.0800000  0  4G13G 6G 3G 9
  20519061.852    20519064.985   -48682238.583 9  18382012.618 8
  23095038.787    23095045.344     6594654.228 8   3778211.356 9
  23524229.653    23524234.278   -78092585.704 9  94213890.405 9
  20643949.132    20643952.407   -27751336.104 9   -755393.595 9
 89 11 11 13 55 29.0800000  0  4G13G 6G 3G 9
  20517502.641    20517507.352   -48690424.906 9  18375633.660 8
  23116027.203    23116032.378     6704944.986 9   3864152.081 8
  23509218.677    23509222.612   -78171465.227 8  94152425.857 8
  20653135.690    20653139.309   -27703056.978 9   -717773.553 7
 89 11 11 13 55 59.0800000  0  4G13G 6G 3G 9
  20516021.314    20516027.116   -48698196.105 8  18369578.177 8
  23137072.147    23137077.823     6815537.323 9   3950327.809 9
  23494257.358    23494262.259   -78250085.624 9  94091163.187 8
  20662439.213    20662442.574   -27654168.732 9   -679678.833 8
 89 11 11 13 56 29.0800000  0  4G13G 6G 3G 9
  20514622.966    20514626.497   -48705553.498 9  18363845.137 8
  23158175.344    23158179.818     6926428.829 9   4036736.640 9
  23479347.080    23479350.188   -78328446.206 9  94030102.989 9
  20671859.899    20671861.399   -27604672.280 8   -641110.193 8
 89 11 11 13 56 59.0800000  0  4G13G 6G 3G 9
  20513303.555    20513306.166   -48712498.319 9  18358433.587 8
  23179334.225    23179338.098     7037616.822 9   4123376.544 8
  23464484.208    23464488.998   -78406546.476 9  93969245.629 9
  20681393.255    20681395.729   -27554568.702 8   -602068.488 8
 89 11 11 13 57 29.0800000  0  4G13G 6G 3G 9
  20512060.838    20512063.220   -48719031.776 9  18353342.586 7
  23200546.723    23200552.306     7149098.679 9   4210245.383 9
  23449671.833    23449675.618   -78484386.055 9  93908591.396 9
  20691042.974    20691046.736   -27503859.185 9   -562554.598 8
 89 11 11 13 57 59.0800000  0  4G13G 6G 3G 9
  20510893.147    20510898.731   -48725155.039 9  18348571.201 8
  23221817.172    23221822.219     7260871.838 9   4297341.201 9
  23434910.034    23434913.347   -78561964.505 9  93848140.651 9
  20700807.539    20700810.456   -27452544.818 9   -522569.411 8
 89 11 11 13 58 29.0800000  0  4G13G 6G 3G 9
  20509804.114    20509811.276   -48730869.212 8  18344118.567 8
  23243142.219    23243146.729     7372933.786 9   4384662.074 9
  23420195.201    23420200.431   -78639280.706 9  93787894.258 8
  20710687.064    20710690.438   -27400626.685 9   -482113.761 8
 89 11 11 13 58 59.0800000  0  4G13G 6G 3G 9
  20508796.332    20508800.585   -48736176.072 9  18339983.323 8
  23264521.318    23264526.809     7485281.780 9   4472205.835 9
  23405533.882    23405537.541   -78716334.234 9  93727852.528 9
  20720681.434    20720685.037   -27348105.977 9   -441188.559 8
 89 11 11 13 59 29.0800000  0  4G13G 6G 3G 9
  20507864.693    20507867.154   -48741076.857 9  18336164.534 8
  23285953.662    23285958.981     7597913.285 8   4559970.502 9
  23390920.880    23390925.992   -78793124.911 9  93668015.619 9
  20730791.165    20730793.094   -27294983.770 9   -399794.665 7
 89 11 11 13 59 59.0800000  0  4G13G 6G 3G 9
  20507009.920    20507010.638   -48745572.970 9  18332661.104 8
  23307441.133    23307446.029     7710825.504 9   4647953.921 9
  23376359.453    23376362.490   -78869652.203 9  93608383.969 9
  20741013.108    20741016.297   -27241261.626 9   -357933.300 9
 89 11 11 14  0 29.0800000  0  4G13G 6G 3G 9
  20506230.244    20506234.004   -48749665.458 9  18329472.157 8
  23328981.747    23328985.313     7824015.800 9   4736153.997 9
  23361845.071    23361849.742   -78945915.658 9  93548957.894 9
  20751350.870    20751354.274   -27186940.643 8   -315605.304 8
 89 11 11 14  0 59.0800000  0  4G13G 6G 3G 9
  20505524.755    20505532.481   -48753355.969 8  18326596.405 9
  23350573.760    23350577.962     7937481.553 9   4824568.712 9
  23347383.729    23347388.097   -79021914.712 9  93489737.849 9
  20761801.560    20761804.535   -27132022.168 9   -272811.712 8
 89 11 11 14  1 29.0800000  0  4G13G 6G 3G 9
  20504900.631    20504906.981   -48756645.984 9  18324032.704 9
  23372216.757    23372221.302     8051220.002 9   4913195.943 9
  23332971.103    23332975.521   -79097649.153 9  93430723.986 9
  20772365.150    20772368.626   -27076507.535 9   -229553.597 7
 89 11 11 14  1 59.0800000  0  4G13G 6G 3G 9
  20504352.124    20504355.457   -48759536.588 8  18321780.277 9
  23393910.186    23393918.539     8165228.366 9   5002033.477 9
  23318610.273    23318613.399   -79173118.187 8  93371916.943 9
  20783042.956    20783044.814   -27020397.987 8   -185831.922 8
 89 11 11 14  2 29.0800000  0  4G13G 6G 3G 9
  20503878.923    20503880.396   -48762029.522 9  18319837.742 8
  23415656.324    23415663.331     8279504.244 9   5091079.425 9
  23304299.135    23304305.159   -79248321.474 9  93313316.965 9
  20793832.087    20793835.834   -26963695.052 9   -141647.850 8
 89 11 11 14  2 59.0800000  0  4G13G 6G 3G 9
  20503478.795    20503480.673   -48764126.286 9  18318203.905 8
  23437453.001    23437459.007     8394044.628 9   5180331.522 9
  23290039.932    23290043.663   -79323258.931 8  93254924.137 9
  20804735.120    20804739.582   -26906400.063 9    -97002.445 8
 89 11 11 14  3 29.0800000  0  4G13G 6G 3G 9
  20503152.020    20503158.083   -48765828.017 9  18316877.890 8
  23459299.561    23459306.260     8508846.825 9   5269787.607 9
  23275829.238    23275834.868   -79397929.795 9  93196739.053 9
  20815750.994    20815754.756   -26848514.492 9    -51896.838 8
 89 11 11 14  3 59.0800000  0  4G13G 6G 3G 9
  20502903.169    20502909.804   -48767136.038 9  18315858.628 8
  23481194.449    23481201.571     8623908.236 9   5359445.684 9
  23261671.737    23261675.436   -79472333.837 8  93138761.869 9
  20826877.794    20826882.056   -26790039.673 9     -6332.107 9
 89 11 11 14  4 29.0800000  0  4G13G 6G 3G 9
  20502731.048    20502736.180   -48768052.096 9  18315144.776 8
  23503137.853    23503145.168     8739226.089 9   5449303.582 8
  23247563.063    23247568.386   -79546470.594 9  93080992.954 9
  20838117.951    20838120.926   -26730977.424 9     39690.395 8
 89 11 11 14  4 59.0800000  0  4G13G 6G 3G 9
  20502632.025    20502636.174   -48768577.857 9  18314735.098 9
  23525130.316    23525139.513     8854797.493 9   5539359.068 9
  23233506.693    23233511.637   -79620339.747 8  93023432.569 9
  20849467.945    20849470.891   -26671329.128 8     86169.532 8
 89 11 11 14  5 29.0800000  0  4G13G 6G 3G 9
  20502606.197    20502608.725   -48768714.466 9  18314628.653 8
  23547171.459    23547178.724     8970619.923 9   5629610.110 9
  23219501.818    23219505.903   -79693941.123 9  92966080.856 8
  20860930.209    20860934.186   -26611096.107 9    133104.306 9
 89 11 11 14  5 59.0800000  0  4G13G 6G 3G 9
  20502651.665    20502656.014   -48768463.484 9  18314824.207 8
  23569259.479    23569264.819     9086690.511 9   5720054.508 9
  23205544.486    23205549.637   -79767273.974 9  92908938.350 9
  20872503.570    20872506.287   -26550280.037 9    180493.401 9
 89 11 11 14  6 29.0800000  0  4G13G 6G 3G 9
  20502772.134    20502776.931   -48767826.545 9  18315320.507 8
  23591395.985    23591402.356     9203006.697 9   5810690.387 9
  23191643.037    23191647.713   -79840338.066 9  92852005.276 8
  20884187.541    20884190.329   -26488882.599 9    228335.511 8
 89 11 11 14  6 59.0800000  0  4G13G 6G 3G 9
  20502967.938    20502972.151   -48766804.778 9  18316116.674 8
  23613574.161    23613582.434     9319565.596 8   5901515.287 9
  23177789.511    23177794.905   -79913133.400 9  92795281.628 9
  20895980.319    20895983.966   -26426905.267 9    276629.481 8
 89 11 11 14  7 29.0800000  0  4G13G 6G 3G 9
  20503235.570    20503240.106   -48765399.808 9  18317211.434 8
  23635805.250    23635804.259     9436364.452 9   5992527.191 8
  23163988.109    23163993.050   -79985659.316 9  92738767.924 8
  20907885.768    20907888.627   -26364349.565 9    325374.126 7
 89 11 11 14  7 59.0800000  0  4G13G 6G 3G 9
  20503575.138    20503580.997   -48763613.272 9  18318603.510 6
  23658074.590    23658081.539     9553400.361 9   6083723.833 9
  23150240.413    23150243.676   -80057915.789 9  92682464.163 9
  20919898.707    20919902.268   -26301217.497 8    374567.911 9
 89 11 11 14  8 29.0800000  0  4G13G 6G 3G 9
  20503986.291    20503991.814   -48761446.794 9  18320291.639 7
  23680392.050    23680395.859     9670670.609 9   6175103.015 9
  23136540.052    23136545.712   -80129902.292 9  92626370.750 9
  20932022.199    20932024.544   -26237510.568 8    424209.618 8
 89 11 11 14  8 59.0800000  0  4G13G 6G 3G 9
  20504472.271    20504475.808   -48758901.268 9  18322275.153 8
  23702746.014    23702756.304     9788172.551 9   6266662.745 9
  23122894.124    23122898.578   -80201618.587 9  92570487.918 8
  20944253.868    20944257.315   -26173230.459 9    474297.961 8
 89 11 11 14  9 29.0800000  0  4G13G 6G 3G 9
  20505029.436    20505031.892   -48755978.884 9  18324552.332 8
  23725153.700    23725161.838     9905903.441 9   6358400.920 8
  23109296.578    23109302.019   -80273064.325 8  92514815.892 9
  20956594.374    20956599.023   -26108378.663 9    524831.776 8
 89 11 11 14  9 59.0800000  0  4G13G 6G 3G 9
  20505657.123    20505659.995   -48752680.609 9  18327122.404 8
  23747602.054    23747601.091    10023860.510 9   6450315.332 8
  23095753.353    23095757.754   -80344239.431 9  92459354.739 8
  20969043.028    20969047.491   -26042956.965 9    575809.662 9
 89 11 11 14 10 29.0800000  0  4G13G 6G 3G 9
  20506354.600    20506359.847   -48749007.926 9  18329984.206 9
  23770089.615    23770094.562    10142041.024 9   6542403.803 9
  23082262.021    23082265.641   -80415143.183 9  92404105.044 8
  20981601.577    20981606.469   -25976967.190 9    627230.203 8
 89 11 11 14 10 59.0800000  0  4G13G 6G 3G 9
  20507122.978    20507129.238   -48744962.975 8  18333136.068 9
  23792613.943    23792625.766    10260442.125 8   6634664.156 9
  23068819.698    23068825.415   -80485775.600 9  92349066.737 9
  20994266.643    20994269.360   -25910411.321 9    679091.853 9
 89 11 11 14 11 29.0800000  0  4G13G 6G 3G 9
  20507965.014    20507970.047   -48740547.238 9  18336576.871 7
  23815193.548    23815196.806    10379060.978 9   6727094.267 9
  23055430.526    23055434.607   -80556136.480 8  92294240.065 8
  21007039.000    21007043.319   -25843290.987 9    731393.355 9
 89 11 11 14 11 59.0800000  0  4G13G 6G 3G 9
  20508876.005    20508879.689   -48735762.313 9  18340305.371 8
  23837805.743    23837811.348    10497894.756 9   6819691.798 9
  23042093.830    23042097.489   -80626225.557 9  92239625.192 9
  21019919.191    21019922.609   -25775608.115 9    784133.204 8
 89 11 11 14 12 29.0800000  0  4G13G 6G 3G 9
  20509856.858    20509859.565   -48730609.326 9  18344320.673 8
  23860463.483    23860465.045    10616940.663 8   6912454.623 9
  23028807.530    23028812.699   -80696042.570 9  92185222.306 9
  21032905.441    21032908.444   -25707364.414 9    837310.053 8
 89 11 11 14 12 59.0800000  0  4G13G 6G 3G 9
  20510906.487    20510910.683   -48725089.896 9  18348621.517 9
  23883156.295    23883156.820    10736196.209 8   7005380.733 9
  23015573.799    23015578.897   -80765587.475 9  92131031.432 9
  21045998.009    21046002.414   -25638561.761 9    890922.452 8
 89 11 11 14 13 29.0800000  0  4G13G 6G 3G 9
  20512024.486    20512029.848   -48719205.963 8  18353206.367 8
  23905889.158    23905891.415    10855658.156 9   7098467.807 9
  23002392.146    23002395.570   -80834859.730 9  92077053.058 8
  21059196.207    21059200.469   -25569202.347 9    944968.692 8
 89 11 11 14 13 59.0800000  0  4G13G 6G 3G 9
  20513212.757    20513218.538   -48712958.598 8  18358074.399 8
  23928658.368    23928664.430    10975323.910 9   7191713.624 9
  22989260.930    22989265.384   -80903859.594 8  92023286.944 9
  21072500.179    21072504.298   -25499287.670 9    999447.593 9
 89 11 11 14 14 29.0800000  0  4G13G 6G 3G 9
  20514472.524    20514476.459   -48706349.787 9  18363224.091 8
  23951469.445    23951474.728    11095190.595 9   7285116.006 9
  22976182.261    22976188.106   -80972586.459 9  91969733.533 9
  21085910.497    21085914.959   -25428819.967 9   1054357.425 9
 89 11 11 14 14 59.0800000  0  4G13G 6G 3G 9
  20515799.927    20515801.920   -48699381.405 9  18368653.984 8
  23974317.526    23974320.755    11215255.530 9   7378672.886 9
  22963156.796    22963160.288   -81041040.364 9  91916392.812 9
  21099425.013    21099429.161   -25357801.226 9   1109696.648 9
 89 11 11 14 15 29.0800000  0  4G13G 6G 3G 9
  20517193.282    20517196.196   -48692054.716 8  18374363.080 8
  23997198.068    23997208.430    11335515.868 7   7472381.916 9
  22950182.784    22950187.600   -81109221.153 9  91863264.901 8
  21113044.961    21113048.680   -25286233.184 9   1165463.891 9
 89 11 11 14 15 59.0800000  0  4G13G 6G 3G 9
  20518655.466    20518659.634   -48684370.828 8  18380350.511 8
  24020124.549    24020132.121    11455968.658 9   7566240.963 9
  22937259.838    22937264.786   -81177128.427 8  91810350.131 9
  21126767.792    21126771.510   -25214117.847 9   1221657.570 7
 89 11 11 14 16 29.0800000  0  4G13G 6G 3G 9
  20520183.717    20520188.700   -48676332.034 9  18386614.464 9
  24043078.310    24043088.716    11576611.074 8   7660247.809 8
  22924390.272    22924393.953   -81244762.443 9  91757648.299 8
  21140594.506    21140598.540   -25141457.323 9   1278276.102 9
 89 11 11 14 16 59.0800000  0  4G13G 6G 3G 9
  20521780.330    20521787.005   -48667940.267 9  18393153.474 8
  24066076.373    24066077.278    11697440.294 9   7754400.262 8
  22911571.132    22911576.205   -81312122.786 8  91705159.690 9
  21154524.077    21154528.224   -25068253.811 9   1335317.721 8
 89 11 11 14 17 29.0800000  0  4G13G 6G 3G 9
  20523444.893    20523451.454   -48659197.133 9  18399966.244 8
  24089104.328    24089110.892    11818453.526 9   7848695.995 9
  22898805.287    22898811.240   -81379209.476 9  91652884.315 9
  21168557.616    21168561.306   -24994509.302 9   1392780.904 8
 89 11 11 14 17 59.0800000  0  4G13G 6G 3G 9
  20525176.971    20525181.514   -48650103.489 9  18407052.157 8
  24112157.975    24112170.749    11939648.042 8   7943132.972 9
  22886090.861    22886095.748   -81446022.465 8  91600822.210 8
  21182693.152    21182697.458   -24920225.893 9   1450664.016 9
 89 11 11 14 18 29.0800000  0  4G13G 6G 3G 9
  20526973.920    20526978.720   -48640661.033 9  18414409.908 7
  24135260.123    24135269.477    12061020.955 9   8037708.893 9
  22873429.792    22873433.022   -81512561.531 9  91548973.582 9
  21196930.971    21196934.603   -24845405.533 9   1508965.512 9
 89 11 11 14 18 59.0800000  0  4G13G 6G 3G 9
  20528836.859    20528840.117   -48630871.452 9  18422038.147 8
  24158390.911    24158398.190    12182569.174 9   8132421.544 9
  22860819.691    22860824.484   -81578826.496 8  91497338.526 9
  21211270.699    21211274.675   -24770050.585 9   1567683.575 9
 89 11 11 14 19 29.0800000  0  4G13G 6G 3G 9
  20530763.756    20530767.148   -48620736.976 8  18429935.102 7
  24181554.467    24181562.626    12304290.189 9   8227268.807 9
  22848261.815    22848267.439   -81644817.260 9  91445917.098 9
  21225711.880    21225715.284   -24694163.099 9   1626816.611 8
 89 11 11 14 19 59.0800000  0  4G13G 6G 3G 9
  20532754.834    20532762.035   -48610258.832 9  18438099.849 9
  24204750.354    24204756.718    12426181.002 9   8322248.390 9
  22835756.733    22835761.366   -81710533.929 9  91394709.283 9
  21240253.854    21240258.288   -24617745.140 9   1686362.976 9
 89 11 11 14 20 29.0800000  0  4G13G12G 3G 9
  20534816.560    20534822.406   -48599438.727 9  18446531.057 8
                  20669858.400   -90043677.497 9
  22823302.874    22823306.377   -81775976.356 9  91343715.177 8
  21254896.258    21254900.498   -24540798.900 9   1746321.005 9
 89 11 11 14 20 59.0800000  0  4G13G12G 3G 9
  20536941.058    20536946.413   -48588278.352 9  18455227.399 8
  20664602.801    20664607.104   -90071487.190 9 114335983.574 8
  22810901.963    22810907.506   -81841144.521 9  91292934.755 8
  21269639.133    21269643.474   -24463326.681 9   1806688.900 8
 89 11 11 14 21 29.0800000  0  4G13G12G 3G 9
  20539130.175    20539133.665   -48576779.682 9  18464187.363 7
  20659421.904    20659426.576   -90098715.005 9 114314767.022 9
  22798554.890    22798558.193   -81906038.209 9  91242368.203 8
  21284480.742    21284485.083   -24385330.821 9   1867464.813 9
 89 11 11 14 21 59.0800000  0  4G13G12G 3G 9
  20541382.563    20541386.566   -48564943.973 9  18473409.944 9
  20654350.952    20654356.079   -90125358.924 9 114294005.507 9
  22786257.885    22786261.511   -81970657.452 8  91192015.493 9
  21299422.258    21299427.128   -24306813.429 9   1928647.100 8
 89 11 11 14 22 29.0800000  0  4G13G12G 3G 9
  20543696.499    20543700.985   -48552772.983 9  18482893.804 8
  20649392.431    20649396.320   -90151417.774 9 114273699.864 9
  22774012.401    22774015.976   -82035002.383 9  91141876.531 8
  21314463.080    21314466.547   -24227776.778 9   1990234.024 9
 89 11 11 14 22 59.0800000  0  4G13G12G 3G 9
  20546076.369    20546080.171   -48540268.382 9  18492637.626 7
  20644543.865    20644549.353   -90176890.051 9 114253851.292 9
  22761820.690    22761824.308   -82099072.797 9  91091951.504 9
  21329601.804    21329605.114   -24148223.024 9   2052223.867 8
 89 11 11 14 23 29.0800000  0  4G13G12G 3G 9
  20548519.875    20548524.585   -48527431.957 9  18502639.975 8
  20639810.800    20639814.975   -90201774.046 9 114234461.128 9
  22749681.738    22749684.705   -82162868.732 9  91042240.351 9
  21344838.805    21344842.301   -24068154.680 9   2114614.688 8
 89 11 11 14 23 59.0800000  0  4G13G12G 3G 9
  20551025.697    20551029.771   -48514265.189 8  18512899.746 9
  20635186.291    20635190.183   -90226068.156 8 114215530.599 8
  22737592.581    22737597.980   -82226390.027 9  90992743.199 9
  21360172.250    21360175.932   -23987574.064 9   2177404.701 8
 89 11 11 14 24 29.0800000  0  4G13G12G 3G 9
  20553594.970    20553598.700   -48500769.921 9  18523415.472 8
  20630675.709    20630681.293   -90249770.917 9 114197060.881 8
  22725556.834    22725562.891   -82289637.245 9  90943459.607 9
  21375602.710    21375607.437   -23906483.325 9   2240592.181 9
 89 11 11 14 24 59.0800000  0  4G13G12G 3G 9
  20556225.357    20556229.088   -48486947.770 9  18534185.931 8
  20626279.828    20626283.259   -90272880.443 9 114179053.412 9
  22713574.574    22713578.649   -82352609.977 9  90894389.908 9
  21391130.474    21391136.002   -23824884.864 9   2304175.312 8
 89 11 11 14 25 29.0800000  0  4G13G12G 3G 9
  20558917.607    20558920.801   -48472800.377 9  18545209.828 8
  20621993.668    20621998.433   -90295395.421 9 114161509.228 9
  22701644.564    22701647.058   -82415308.334 9  90845534.029 9
  21406754.309    21406757.519   -23742781.083 9   2368152.180 8
 89 11 11 14 25 59.0800000  0  4G13G12G 3G 9
  20561670.374    20561674.938   -48458329.935 9  18556485.452 8
  20617824.220    20617828.735   -90317314.331 9 114144429.494 9
  22689763.935    22689768.054   -82477732.225 8  90796891.997 9
  21422474.617    21422478.399   -23660174.432 9   2432520.898 9
 89 11 11 14 26 29.0800000  0  4G13G12G 3G 9
  20564484.130    20564488.558   -48443537.670 9  18568011.865 8
  20613766.212    20613772.273   -90338636.004 9 114127815.146 9
  22677936.029    22677942.658   -82539881.980 9  90748463.550 9
  21438290.052    21438293.835   -23577067.441 9   2497279.506 9
 89 11 11 14 26 59.0800000  0  4G13G12G 3G 9
  20567359.841    20567365.607   -48428425.223 8  18579787.734 8
  20609821.480    20609826.527   -90359358.956 9 114111667.370 8
  22666164.149    22666167.717   -82601757.509 9  90700248.805 9
  21454197.152    21454203.023   -23493462.314 9   2562426.251 8
 89 11 11 14 27 29.0800000  0  4G13G12G 3G 9
  20570297.036    20570301.034   -48412994.428 9  18591811.668 9
  20605995.373    20605997.506   -90379481.461 9 114095987.431 8
  22654441.744    22654444.182   -82663358.865 9  90652247.731 9
  21470202.298    21470207.040   -23409361.634 9   2627959.160 8
 89 11 11 14 27 59.0800000  0  4G13G12G 3G 9
  20573294.111    20573299.802   -48397247.022 9  18604082.329 9
  20602279.034    20602285.638   -90399002.173 9 114080776.412 8
  22642768.191    22642774.650   -82724686.299 9  90604460.050 8
  21486300.684    21486303.908   -23324767.903 9   2693876.246 8
 89 11 11 14 28 29.0800000  0  4G13G12G 3G 9
  20576350.468    20576355.068   -48381184.789 9  18616598.300 8
  20598678.548    20598684.018   -90417919.762 9 114066035.432 9
  22631151.782    22631156.459   -82785739.699 9  90556885.918 8
  21502491.621    21502495.618   -23239683.386 9   2760175.780 8
 89 11 11 14 28 59.0800000  0  4G13G12G 3G 9
  20579466.653    20579471.832   -48364809.697 9  18629358.064 8
  20595195.669    20595197.183   -90436233.007 9 114051765.301 9
  22619586.936    22619591.998   -82846519.348 9  90509525.111 9
  21518775.768    21518780.151   -23154110.771 9   2826855.622 8
 89 11 11 14 29 29.0800000  0  4G13G12G 3G 9
  20582642.406    20582645.461   -48348123.034 9  18642360.603 8
  20591823.895    20591828.867   -90453940.973 9 114037966.799 8
  22608072.787    22608077.728   -82907025.042 9  90462377.754 9
  21535151.093    21535156.192   -23068052.569 9   2893913.866 9
 89 11 11 14 29 59.0800000  0  4G13G12G 3G 9
  20585875.204    20585879.943   -48331126.683 9  18655604.471 8
  20588570.929    20588577.182   -90471042.127 9 114024641.209 8
  22596609.793    22596615.493   -82967257.187 9  90415443.547 9
  21551619.972    21551625.042   -22981511.332 9   2961348.498 8
 89 11 11 14 30 29.0800000  0  4G13G12G 3G 9
  20589168.944    20589173.923   -48313822.552 9  18669088.146 8
  20585433.335    20585436.976   -90487535.455 9 114011789.221 9
  22585201.268    22585204.334   -83027215.808 9  90368722.506 9
  21568180.115    21568184.542   -22894489.404 9   3029157.690 7
 89 11 11 14 30 59.0800000  0  4G13G12G 3G 9
  20592519.642    20592525.486   -48296212.179 9  18682810.433 9
  20582406.276    20582412.329   -90503419.883 9 113999411.667 8
  22573844.226    22573848.545   -83086900.923 9  90322214.601 8
  21584830.406    21584835.805   -22806989.518 9   3097339.307 8
 89 11 11 14 31 29.0800000  0  4G13G12G 3G 9
  20595930.063    20595935.017   -48278296.875 9  18696770.378 7
  20579503.528    20579508.794   -90518693.704 9 113987509.933 9
  22562538.992    22562542.696   -83146312.661 9  90275919.677 8
  21601572.247    21601575.843   -22719014.120 9   3165891.464 9
 89 11 11 14 31 59.0800000  0  4G13G12G 3G 9
  20599397.337    20599400.202   -48260078.761 9  18710966.259 8
  20576713.253    20576719.224   -90533355.700 9 113976084.947 8
  22551283.367    22551289.475   -83205451.224 9  90229837.610 9
  21618403.263    21618408.734   -22630565.647 9   3234812.248 9
 89 11 11 14 32 29.0800000  0  4G13G12G 3G 9
  20602920.937    20602925.008   -48241559.318 9  18725396.945 8
  20574037.828    20574043.137   -90547404.829 8 113965137.534 8
  22540082.847    22540087.903   -83264316.687 9  90183968.365 9
  21635324.083    21635328.639   -22541646.837 9   3304099.522 8
 89 11 11 14 32 59.0800000  0  4G13G12G 3G 9
  20606500.160    20606506.670   -48222740.534 8  18740060.861 8
  20571482.522    20571486.038   -90560839.739 9 113954668.709 9
  22528933.854    22528938.517   -83322909.233 9  90138311.782 8
  21652333.678    21652338.033   -22452260.378 9   3373751.191 9
 89 11 11 14 33 29.0800000  0  4G13G12G 3G 9
  20610137.532    20610144.879   -48203624.123 9  18754956.669 8
  20569043.345    20569048.976   -90573659.630 9 113944679.109 9
  22517835.395    22517840.458   -83381228.994 9  90092867.779 9
  21669432.247    21669436.330   -22362408.969 9   3443765.181 9
 89 11 11 14 33 59.0800000  0  4G13G12G 3G 9
  20613832.627    20613839.394   -48184212.019 9  18770082.909 9
  20566720.531    20566726.501   -90585863.176 9 113935169.808 8
  22506788.763    22506793.690   -83439276.474 9  90047635.912 9
  21686618.102    21686623.873   -22272095.170 8   3514139.444 9
 89 11 11 14 34 29.0800000  0  4G13G12G 3G 9
  20617584.611    20617588.524   -48164505.634 9  18785438.461 8
  20564516.218    20564519.502   -90597450.079 9 113926140.998 8
  22495793.300    22495799.480   -83497051.758 9  90002616.127 9
  21703892.102    21703896.929   -22181321.916 9   3584871.724 9
 89 11 11 14 34 59.0800000  0  4G13G12G 3G 9
  20621391.600    20621393.095   -48144506.853 9  18801021.899 8
  20562429.033    20562433.397   -90608419.160 9 113917593.582 8
  22484852.707    22484857.405   -83554555.053 9  89957808.307 9
  21721252.100    21721255.997   -22090091.725 9   3655960.066 8
 89 11 11 14 35 29.0800000  0  4G13G12G 3G 9
  20625251.903    20625253.766   -48124217.265 9  18816831.929 7
  20560458.565    20560466.657   -90618768.932 9 113909528.766 9
  22473962.174    22473965.942   -83611786.684 9  89913212.191 9
  21738699.985    21738704.312   -21998407.208 8   3727402.426 8
 89 11 11 14 35 59.0800000  0  4G13G12G 3G 9
  20629166.983    20629169.065   -48103638.600 8  18832867.207 8
  20558607.914    20558613.584   -90628498.511 9 113901947.231 8
  22463123.054    22463125.621   -83668746.301 9  89868828.031 8
  21756232.380    21756237.308   -21906271.017 9   3799196.742 8
 89 11 11 14 36 29.0800000  0  4G13G12G 3G 9
  20633134.608    20633141.408   -48082772.644 9  18849126.317 9
  20556874.070    20556877.748   -90637607.176 9 113894849.501 9
  22452334.789    22452339.616   -83725434.745 9  89824655.170 9
  21773850.488    21773855.987   -21813685.991 9   3871340.796 8
 89 11 11 14 36 59.0800000  0  4G13G12G 3G 9
  20637159.465    20637168.108   -48061621.114 8  18865607.936 8
  20555259.668    20555264.951   -90646093.917 9 113888236.375 8
  22441598.803    22441604.667   -83781851.795 9  89780693.764 9
  21791554.221    21791559.807   -21720654.683 9   3943832.612 8
 89 11 11 14 37 29.0800000  0  4G13G12G 3G 9
  20641241.052    20641246.689   -48040185.412 9  18882310.995 8
  20553762.748    20553769.223   -90653957.947 9 113882108.514 8
  22430915.539    22430920.666   -83837997.971 9  89736943.450 9
  21809342.064    21809347.507   -21627179.863 8   4016669.998 8
 89 11 11 14 37 59.0800000  0  4G13G12G 3G 9
  20645375.403    20645380.229   -48018467.867 9  18899233.694 9
  20552385.581    20552389.559   -90661198.428 9 113876466.514 8
  22420282.235    22420288.149   -83893873.333 9  89693404.148 9
  21827213.644    21827218.457   -21533264.340 9   4089850.806 8
 89 11 11 14 38 29.0800000  0  4G13G12G 3G 9
  20649562.248    20649566.014   -47996469.817 9  18916374.984 9
  20551126.452    20551131.961   -90667814.493 9 113871311.080 8
  22409700.766    22409705.200   -83949478.072 9  89650075.724 9
  21845168.476    21845173.918   -21438910.899 9   4163372.843 9
 89 11 11 14 38 59.0800000  0  4G13G12G 3G 9
  20653801.035    20653805.768   -47974192.952 9  18933733.517 8
  20549986.460    20549991.740   -90673805.219 9 113866642.924 9
  22399171.083    22399175.738   -84004812.578 9  89606957.880 9
  21863206.300    21863211.241   -21344122.271 9   4237233.990 8
 89 11 11 14 39 29.0800000  0  4G13G12G 3G 9
  20658091.575    20658096.615   -47951639.116 9  18951307.877 8
  20548965.321    20548971.098   -90679169.720 9 113862462.725 9
  22388692.998    22388698.426   -84059877.227 9  89564050.310 9
  21881326.603    21881331.215   -21248901.282 9   4311432.027 8
 89 11 11 14 39 59.0800000  0  4G13G12G 3G 9
  20662434.669    20662439.988   -47928810.117 9  18969096.644 8
  20548063.974    20548069.995   -90683907.333 9 113858771.013 9
  22378266.484    22378270.467   -84114672.212 9  89521352.873 9
  21899527.295    21899534.340   -21153250.747 9   4385964.791 9
 89 11 11 14 40 29.0800000  0  4G13G12G 3G 9
  20666830.421    20666835.511   -47905707.723 8  18987098.421 8
  20547282.239    20547286.428   -90688017.475 9 113855568.237 8
  22367891.454    22367894.328   -84169197.870 9  89478865.313 9
  21917810.665    21917816.808   -21057173.795 9   4460829.822 8
 89 11 11 14 40 59.0800000  0  4G13G12G 3G 9
  20671278.623    20671284.829   -47882333.608 9  19005311.945 8
  20546619.835    20546624.288   -90691499.349 9 113852855.016 9
  22357566.943    22357571.083   -84223454.486 9  89436587.380 9
  21936175.369    21936179.867   -20960672.788 9   4536025.284 9
 89 11 11 14 41 29.0800000  0  4G13G12G 3G 9
  20675779.404    20675784.648   -47858689.275 9  19023736.032 8
  20546076.869    20546082.403   -90694352.327 9 113850631.845 8
  22347291.197    22347297.877   -84277442.088 9  89394519.039 8
  21954618.200    21954623.686   -20863750.946 9   4611548.662 8
 89 11 11 14 41 59.0800000  0  4G13G12G 3G 9
  20680329.814    20680334.896   -47834776.714 9  19042369.131 8
  20545654.745    20545658.887   -90696575.737 9 113848899.271 8
  22337068.817    22337075.984   -84331161.422 8  89352659.725 9
  21973141.794    21973146.792   -20766410.822 9   4687397.980 9
 89 11 11 14 42 29.0800000  0  4G13G12G 3G 9
  20684931.628    20684936.583   -47810597.128 9  19061210.296 8
  20545350.109    20545355.607   -90698168.901 9 113847657.763 9
  22326898.094    22326904.016   -84384612.586 9  89311009.421 8
  21991744.516    21991748.943   -20668655.358 9   4763570.930 9
 89 11 11 14 42 59.0800000  0  4G13G12G 3G 9
  20689582.714    20689589.356   -47786152.562 9  19080257.926 9
  20545167.281    20545173.073   -90699131.460 9 113846907.645 9
  22316778.455    22316781.243   -84437795.901 9  89269567.839 8
  22010425.196    22010430.180   -20570487.380 9   4840065.323 9
 89 11 11 14 43 29.0800000  0  4G13G12G 3G 9
  20694283.244    20694291.182   -47761445.086 9  19099510.421 9
  20545105.233    20545110.785   -90699462.800 9 113846649.394 9
  22306708.068    22306712.530   -84490711.687 9  89228334.710 8
  22029183.402    22029188.058   -20471909.867 9   4916878.833 8
 89 11 11 14 43 59.0800000  0  4G13G12G 3G 9
  20699035.008    20699042.771   -47736475.886 9  19118966.862 8
  20545162.896    20545166.040   -90699162.515 9 113846883.309 9
  22296690.088    22296693.233   -84543360.555 8  89187309.572 8
  22048020.910    22048025.208   -20372925.722 9   4994009.216 8
 89 11 11 14 44 29.0800000  0  4G13G12G 3G 9
  20703836.350    20703842.245   -47711247.269 9  19138625.433 9
  20545339.150    20545344.316   -90698229.461 9 113847610.294 9
  22286721.554    22286725.622   -84595742.331 8  89146492.538 8
  22066932.654    22066938.369   -20273537.828 9   5071454.184 8
 89 11 11 14 44 59.0800000  0  4G13G12G 3G 9
  20708687.239    20708692.092   -47685760.623 9  19158485.075 8
  20545637.708    20545642.899   -90696663.518 9 113848830.433 8
  22276803.409    22276809.152   -84647857.745 9  89105883.071 9
  22085922.040    22085927.010   -20173749.086 9   5149211.500 8
 89 11 11 14 45 29.0800000  0  4G13G12G 3G 9
  20713586.202    20713589.621   -47660017.414 9  19178544.650 8
  20546055.751    20546060.974   -90694464.731 9 113850543.686 9
  22266936.985    22266942.470   -84699707.161 9  89065480.853 9
  22104987.894    22104993.136   -20073562.340 9   5227278.959 8
 89 11 11 14 45 59.0800000  0  4G13G12G 3G 9
  20718533.029    20718536.702   -47634019.519 9  19198802.669 8
  20546594.414    20546601.100   -90691632.724 9 113852750.387 9
  22257121.288    22257127.738   -84751290.714 9  89025285.810 9
  22124126.611    22124132.854   -19972980.764 9   5305654.053 8
 89 11 11 14 46 29.0800000  0  4G13G12G 3G 9
  20723528.951    20723533.487   -47607768.319 9  19219258.079 8
  20547254.598    20547259.634   -90688166.650 9 113855451.153 9
  22247356.473    22247361.436   -84802609.006 9  88985297.459 9
  22143342.397    22143346.780   -19872007.063 9   5384334.726 9
 89 11 11 14 46 59.0800000  0  4G13G12G 3G 9
  20728570.691    20728576.923   -47581265.878 9  19239909.242 8
  20548034.785    20548039.972   -90684066.077 9 113858646.318 8
  22237640.731    22237646.940   -84853662.081 9  88945515.755 8
  22162632.046    22162636.973   -19770644.293 9   5463318.552 9
 89 11 11 14 47 29.0800000  0  4G13G12G 3G 9
  20733661.727    20733668.391   -47554513.606 9  19260755.073 8
  20548935.782    20548941.352   -90679331.088 9 113862335.848 9
  22227977.334    22227982.647   -84904450.665 9  88905940.155 9
  22181992.555    22181999.014   -19668895.426 8   5542603.234 8
 89 11 11 14 47 59.0800000  0  4G13G12G 3G 9
  20738799.857    20738805.921   -47527513.590 9  19281793.943 7
  20549957.988    20549962.685   -90673961.004 9 113866520.250 8
  22218362.315    22218367.478   -84954975.326 9  88866570.211 8
  22201428.702    22201434.002   -19566763.583 9   5622186.331 8
 89 11 11 14 48 29.0800000  0  4G13G12G 3G 9
  20743985.348    20743991.021   -47500267.262 9  19303024.766 7
  20551101.433    20551106.494   -90667955.779 9 113871199.585 8
  22208798.294    22208803.193   -85005236.026 9  88827405.975 9
  22220935.995    22220940.879   -19464251.530 9   5702065.701 8
 89 11 11 14 48 59.0800000  0  4G13G12G 3G 9
  20749217.322    20749222.061   -47472776.580 9  19324445.986 8
  20552365.063    20552369.013   -90661314.910 9 113876374.215 8
  22199284.463    22199288.804   -85055233.252 9  88788447.044 8
  22240514.548    22240520.705   -19361362.398 9   5782238.899 9
 89 11 11 14 49 29.0800000  0  4G13G12G 3G 9
  20754495.722    20754498.751   -47445043.414 9  19346056.161 8
  20553749.034    20553754.812   -90654038.620 9 113882043.959 9
  22189819.355    22189824.411   -85104967.412 9  88749693.083 8
  22260165.533    22260171.362   -19258099.199 9   5862703.582 9
 89 11 11 14 49 59.0800000  0  4G13G12G 3G 9
  20759819.153    20759822.629   -47417069.134 9  19367854.217 9
  20555255.335    20555260.701   -90646126.695 9 113888209.034 9
  22180405.960    22180410.644   -85154439.302 9  88711143.491 8
  22279886.606    22279893.207   -19154464.907 9   5943457.404 9
 89 11 11 14 50 29.0800000  0  4G13G12G 3G 9
  20765187.887    20765191.725   -47388855.195 9  19389839.027 8
  20556880.956    20556887.492   -90637578.668 9 113894869.742 9
  22171042.984    22171046.308   -85203649.055 9  88672798.156 8
  22299677.106    22299682.963   -19050462.604 8   6024498.016 8
 89 11 11 14 50 59.0800000  0  4G13G12G 3G 9
  20770601.409    20770606.123   -47360403.617 9  19412008.991 9
  20558628.706    20558635.381   -90628394.650 9 113902026.045 9
  22161728.701    22161731.968   -85252597.110 9  88634656.770 9
  22319538.493    22319544.165   -18946095.021 9   6105823.244 9
 89 11 11 14 51 29.0800000  0  4G13G12G 3G 9
  20776060.820    20776064.246   -47331715.936 9  19434362.966 8
  20560499.508    20560503.404   -90618574.441 9 113909678.080 9
  22152463.364    22152468.391   -85301283.990 8  88596718.880 8
  22339468.164    22339473.293   -18841365.633 9   6187430.377 9
 89 11 11 14 51 59.0800000  0  4G13G12G 3G 9
  20781564.192    20781569.351   -47302793.756 8  19456899.625 8
  20562487.724    20562493.835   -90608118.060 9 113917825.837 9
  22143246.527    22143253.329   -85349710.139 9  88558984.146 8
  22359465.290    22359470.947   -18736277.189 9   6269317.325 9
 89 11 11 14 52 29.0800000  0  4G13G12G 3G 9
  20787112.700    20787116.663   -47273639.050 9  19479617.483 8
  20564599.078    20564605.281   -90597025.822 9 113926469.058 8
  22134081.325    22134086.517   -85397876.158 9  88521452.098 8
  22379530.927    22379536.727   -18630833.275 9   6351481.259 8
 89 11 11 14 52 59.0800000  0  4G13G12G 3G 9
  20792704.457    20792710.670   -47244253.354 9  19502515.343 9
  20566831.474    20566835.441   -90585297.372 9 113935608.039 9
  22124964.638    22124970.753   -85445782.346 9  88484122.517 8
  22399662.930    22399670.118   -18525036.628 9   6433920.042 8
 89 11 11 14 53 29.0800000  0  4G13G12G 3G 9
  20798340.147    20798346.431   -47214637.863 9  19525592.246 9
  20569184.696    20569189.103   -90572932.662 9 113945242.787 9
  22115898.026    22115903.205   -85493428.941 9  88446995.229 8
  22419862.301    22419869.018   -18418890.030 9   6516631.511 9
 89 11 11 14 53 59.0800000  0  4G13G12G 3G 9
  20804019.294    20804024.652   -47184794.360 9  19548846.833 9
  20571657.582    20571663.023   -90559931.808 9 113955373.250 9
  22106879.944    22106884.843   -85540816.580 9  88410069.731 8
  22440128.554    22440134.411   -18312396.538 9   6599613.288 9
 89 11 11 14 54 29.0800000  0  4G13G12G 3G 9
  20809740.638    20809747.238   -47154724.625 9  19572277.712 8
  20574252.340    20574258.056   -90546294.836 9 113965999.379 9
  22097910.678    22097915.806   -85587945.817 9  88373345.577 9
  22460457.909    22460464.711   -18205559.398 9   6682862.843 8
 89 11 11 14 54 59.0800000  0  4G13G12G 3G 9
  20815505.783    20815513.202   -47124430.213 9  19595883.660 7
  20576970.046    20576975.194   -90532021.881 9 113977121.084 9
  22088991.981    22088997.066   -85634817.136 9  88336822.413 8
  22480853.002    22480860.243   -18098381.816 9   6766377.659 9
 89 11 11 14 55 29.0800000  0  4G13G12G 3G 9
  20821314.085    20821319.100   -47093912.601 9  19619663.526 7
  20579806.007    20579812.149   -90517112.994 9 113988738.311 8
  22080122.971    22080128.099   -85681431.012 9  88300499.837 8
  22501314.653    22501319.423   -17990866.871 9   6850155.367 9
 89 11 11 14 55 59.0800000  0  4G13G12G 3G 9
  20827161.808    20827168.326   -47063174.087 9  19643615.536 7
  20582764.776    20582769.441   -90501568.263 9 114000851.014 8
  22071301.777    22071307.470   -85727788.029 9  88264377.419 9
  22521836.896    22521842.911   -17883017.822 9   6934193.418 9
 89 11 11 14 56 29.0800000  0  4G13G12G 3G 9
  20833053.247    20833058.676   -47032216.135 9  19667738.539 8
  20585843.249    20585849.197   -90485388.336 9 114013458.662 9
  22062530.579    22062534.784   -85773888.806 9  88228454.668 9
  22542423.328    22542429.125   -17774837.572 9   7018489.549 8
 89 11 11 14 56 59.0800000  0  4G13G12G 3G 9
  20838985.236    20838992.384   -47001040.136 9  19692031.418 8
  20589043.175    20589048.970   -90468573.245 9 114026561.254 8
  22053806.300    22053811.385   -85819733.374 9  88192731.569 9
  22563070.916    22563077.693   -17666329.153 9   7103041.384 9
 89 11 11 14 57 29.0800000  0  4G13G12G 3G 9
  20844959.625    20844966.157   -46969647.942 9  19716492.763 8
  20592363.150    20592369.268   -90451122.995 9 114040158.779 9
  22045131.646    22045135.787   -85865322.504 8  88157207.512 8
  22583780.850    22583787.856   -17557495.702 9   7187846.488 9
 89 11 11 14 57 59.0800000  0  4G13G12G 3G 9
  20850975.538    20850981.970   -46938040.863 9  19741121.569 8
  20595805.249    20595811.330   -90433037.812 9 114054251.057 8
  22036504.040    22036509.161   -85910656.716 9  88121882.073 9
  22604554.388    22604559.487   -17448340.335 9   7272902.451 8
 89 11 11 14 58 29.0800000  0  4G13G12G 3G 9
  20857030.659    20857036.561   -46906220.387 9  19765916.657 8
  20599367.826    20599374.101   -90414318.118 9 114068837.728 8
  22027924.084    22027931.057   -85955736.888 9  88086754.595 9
  22625385.174    22625391.618   -17338866.441 9   7358206.608 9
 89 11 11 14 58 59.0800000  0  4G13G12G 3G 9
  20863126.833    20863132.049   -46874188.256 9  19790876.671 7
  20603050.798    20603055.978   -90394964.764 9 114083918.182 8
  22019393.352    22019400.325   -86000562.994 9  88051825.074 9
  22646278.748    22646284.570   -17229077.118 9   7443756.563 9
 89 11 11 14 59 29.0800000  0  4G13G12G 3G 9
  20869262.343    20869268.374   -46841946.233 9  19816000.217 8
  20606853.298    20606859.487   -90374977.920 9 114099492.260 9
  22010911.685    22010917.936   -86045135.800 9  88017092.947 9
  22667230.296    22667236.547   -17118975.372 9   7529549.927 8
 89 11 11 14 59 59.0800000  0  4G13G12G 3G 9
  20875436.302    20875443.849   -46809495.874 9  19841286.104 8
  20610777.498    20610783.927   -90354358.213 9 114115559.492 8
  22002478.571    22002483.297   -86089455.918 9  87982557.719 8
  22688239.918    22688248.025   -17008564.442 9   7615584.246 8
 89 11 11 15  0 29.0800000  0  4G13G12G 3G 9
  20881649.925    20881657.588   -46776839.239 8  19866732.721 8
  20614822.113    20614827.390   -90333106.312 9 114132119.336 8
  21994092.275    21994097.996   -86133524.474 9  87948218.522 9
  22709310.050    22709315.589   -16897847.950 9   7701856.657 9
 89 11 11 15  0 59.0800000  0  4G13G12G 3G 9
  20887901.826    20887910.104   -46743978.597 9  19892338.313 8
  20618985.896    20618991.372   -90311223.095 9 114149171.101 9
  21985755.239    21985759.816   -86177342.333 9  87914074.682 8
  22730435.730    22730442.285   -16786829.562 9   7788364.317 9
 89 11 11 15  1 29.0800000  0  4G13G12G 3G 9
  20894195.023    20894200.797   -46710914.448 9  19918102.485 7
  20623270.629    20623276.085   -90288708.333 9 114166714.991 9
  21977464.300    21977470.243   -86220909.441 9  87880126.218 9
  22751619.330    22751625.996   -16675511.455 9   7875105.517 9
 89 11 11 15  1 59.0800000  0  4G13G12G 3G 9
  20900526.297    20900530.640   -46677648.295 9  19944024.055 7
  20627676.759    20627680.476   -90265561.922 9 114184751.082 8
  21969222.427    21969227.133   -86264225.811 9  87846373.126 9
  22772858.046    22772865.026   -16563896.834 9   7962077.743 8
 89 11 11 15  2 29.0800000  0  4G13G12G 3G 9
  20906896.278    20906901.235   -46644181.179 9  19970102.251 7
  20632200.081    20632205.994   -90241784.764 9 114203278.663 7
  21961027.725    21961032.358   -86307292.087 9  87812814.926 9
  22794154.635    22794160.804   -16451988.801 8   8049278.623 9
 89 11 11 15  2 59.0800000  0  4G13G12G 3G 9
  20913303.018    20913306.202   -46610515.661 9  19996335.027 8
  20636843.944    20636850.491   -90217377.824 9 114222296.968 7
  21952878.898    21952885.177   -86350109.135 9  87779450.913 9
  22815505.120    22815511.632   -16339790.721 9   8136705.506 8
 89 11 11 15  3 29.0800000  0  4G13G12G 3G 9
  20919745.789    20919751.377   -46576653.269 9  20022721.211 8
  20641607.968    20641615.627   -90192341.836 9 114241805.442 8
  21944777.813    21944785.688   -86392677.803 9  87746280.433 9
  22836910.634    22836916.902   -16227305.738 9   8224355.956 9
 89 11 11 15  3 59.0800000  0  4G13G12G 3G 9
  20926226.723    20926233.126   -46542594.619 9  20049260.319 8
  20646492.998    20646498.733   -90166676.556 9 114261804.276 8
  21936724.235    21936731.551   -86434997.662 8  87713303.850 9
  22858369.983    22858376.949   -16114536.604 9   8312227.813 9
 89 11 11 15  4 29.0800000  0  4G13G12G 3G 9
  20932744.489    20932751.650   -46508341.466 9  20075950.976 8
  20651496.891    20651502.514   -90140382.802 9 114282292.824 8
  21928717.869    21928725.623   -86477069.654 8  87680520.390 8
  22879881.907    22879889.975   -16001486.669 9   8400318.459 8
 89 11 11 15  4 59.0800000  0  4G13G12G 3G 9
  20939298.886    20939306.176   -46473895.111 8  20102792.205 8
  20656620.143    20656626.025   -90113461.459 9 114303270.407 9
  21920758.933    21920765.684   -86518894.529 9  87647929.494 8
  22901447.588    22901455.860   -15888159.051 9   8488625.506 9
 89 11 11 15  5 29.0800000  0  4G13G12G 3G 9
  20945889.786    20945897.047   -46439257.685 9  20129782.310 8
  20661862.138    20661867.436   -90085913.130 9 114324736.566 8
  21912846.687    21912854.018   -86560472.719 9  87615530.833 9
  22923066.144    22923072.903   -15774556.886 9   8577146.473 8
 89 11 11 15  5 59.0800000  0  4G13G12G 3G 9
  20952517.846    20952525.065   -46404431.085 9  20156919.814 8
  20667223.803    20667228.972   -90057739.485 9 114346689.951 8
  21904982.018    21904987.618   -86601805.619 9  87583323.303 8
  22944735.374    22944742.998   -15660684.196 8   8665878.229 9
 89 11 11 15  6 29.0800000  0  4G13G12G 3G 9
  20959181.709    20959187.998   -46369416.643 9  20184203.689 8
  20672701.637    20672709.830   -90028940.732 9 114369130.447 8
  21897164.399    21897167.351   -86642893.270 9  87551306.905 9
  22966455.744    22966462.642   -15546543.930 9   8754818.487 9
 89 11 11 15  6 59.0800000  0  4G13G12G 3G 9
  20965880.600    20965886.274   -46334215.597 9  20211632.982 8
  20678302.799    20678309.039   -89999517.429 9 114392057.590 8
  21889392.848    21889396.029   -86683736.064 9  87519481.309 9
  22988225.985    22988233.674   -15432138.792 9   8843965.136 9
 89 11 11 15  7 29.0800000  0  4G13G12G 3G 9
  20972615.007    20972620.122   -46298829.208 9  20239206.681 7
  20684020.224    20684026.148   -89969470.633 9 114415470.601 8
  21881667.716    21881670.211   -86724334.996 9  87487845.726 9
  23010047.475    23010054.624   -15317472.424 9   8933315.340 9
 89 11 11 15  7 59.0800000  0  4G13G12G 3G 9
  20979384.372    20979389.944   -46263259.010 9  20266923.638 8
  20689857.083    20689862.653   -89938801.187 9 114439368.775 8
  21873988.180    21873991.490   -86764690.354 9  87456399.945 8
  23031916.006    23031923.509   -15202547.643 9   9022866.882 9
 89 11 11 15  8 29.0800000  0  4G13G12G 3G 9
  20986186.632    20986192.906   -46227506.517 9  20294782.617 7
  20695811.435    20695817.220   -89907509.456 9 114463751.850 8
  21866354.384    21866358.102   -86804802.689 9  87425143.536 8
  23053833.993    23053842.112   -15087367.540 9   9112617.381 9
 89 11 11 15  8 59.0800000  0  4G13G12G 3G 9
  20993024.910    20993030.211   -46191573.218 9  20322782.484 8
  20701884.632    20701890.685   -89875596.515 9 114488618.977 7
  21858767.156    21858773.007   -86844672.552 9  87394076.071 9
  23075801.176    23075807.784   -14971935.481 8   9202564.219 9
 89 11 11 15  9 29.0800000  0  4G13G12G 3G 9
  20999896.427    20999902.315   -46155461.045 8  20350921.728 8
  20708074.027    20708081.765   -89843063.819 9 114513969.039 8
  21851225.604    21851231.919   -86884300.947 9  87363196.743 9
  23097814.351    23097821.829   -14856254.963 9   9292704.677 9
 89 11 11 15  9 59.0800000  0  4G13G12G 3G 9
  21006801.857    21006808.646   -46119170.933 9  20379199.637 8
  20714383.634    20714389.919   -89809912.331 9 114539801.280 9
  21843730.857    21843737.595   -86923688.298 8  87332505.238 9
  23119875.055    23119882.000   -14740329.074 9   9383036.295 9
 89 11 11 15 10 29.0800000  0  4G13G12G 3G 9
  21013742.460    21013747.689   -46082704.410 9  20407615.005 8
  20720809.313    20720815.705   -89776143.215 9 114566114.770 9
  21836280.196    21836288.143   -86962835.358 9  87302000.953 9
  23141981.333    23141987.795   -14624160.977 9   9473556.668 9
 89 11 11 15 10 59.0800000  0  4G13G12G 3G 9
  21020714.055    21020721.818   -46046063.290 9  20436166.406 8
  20727353.339    20727359.128   -89741757.484 9 114592908.764 8
  21828876.192    21828885.469   -87001742.868 8  87271683.330 9
  23164132.474    23164139.973   -14507753.990 9   9564263.170 9
 89 11 11 15 11 29.0800000  0  4G13G12G 3G 9
  21027719.636    21027726.368   -46009248.331 9  20464853.278 8
  20734013.038    20734020.111   -89706755.745 9 114620182.758 9
  21821517.210    21821526.623   -87040411.062 8  87241552.186 9
  23186329.355    23186337.323   -14391111.191 8   9655153.413 9
 89 11 11 15 11 59.0800000  0  4G13G12G 3G 9
  21034758.012    21034765.432   -45972261.428 9  20493674.137 8
  20740792.133    20740797.356   -89671139.473 9 114647935.597 9
  21814204.541    21814213.131   -87078841.059 9  87211606.656 9
  23208569.331    23208577.281   -14274236.016 9   9746224.752 9
 89 11 11 15 12 29.0800000  0  4G13G12G 3G 9
  21041830.116    21041836.376   -45935104.758 9  20522627.260 8
  20747685.891    20747692.244   -89634909.660 9 114676166.524 9
  21806938.598    21806945.027   -87117033.368 9  87181846.355 8
  23230852.467    23230861.397   -14157131.769 9   9837474.563 9
 89 11 11 15 12 59.0800000  0  4G13G12G 3G 9
  21048933.128    21048938.057   -45897778.676 9  20551712.421 8
  20754696.104    20754702.353   -89598067.173 9 114704874.851 8
  21799716.705    21799722.613   -87154988.414 8  87152270.925 8
  23253181.264    23253190.194   -14039801.393 9   9928900.605 9
 89 11 11 15 13 29.0800000  0  4G13G12G 3G 9
  21056068.392    21056074.767   -45860284.811 9  20580928.317 8
  20761824.511    20761830.503   -89560613.478 9 114734059.463 8
  21792540.138    21792543.470   -87192706.747 9  87122879.978 8
  23275550.266    23275558.789   -13922248.062 9  10020500.361 8
 89 11 11 15 13 59.0800000  0  4G13G12G 3G 9
  21063234.808    21063241.182   -45822624.422 9  20610273.975 8
  20769068.493    20769073.212   -89522549.261 9 114763719.780 8
  21785407.957    21785411.575   -87230189.030 9  87093672.962 8
  23297962.397    23297970.919   -13804474.778 9  10112271.499 9
 89 11 11 15 14 29.0800000  0  4G13G12G 3G 9
  21070432.331    21070439.707   -45784798.908 9  20639748.291 8
  20776426.903    20776433.059   -89483876.110 9 114793854.605 8
  21778319.920    21778323.495   -87267435.799 9  87064649.448 8
  23320415.987    23320424.314   -13686485.134 9  10204211.234 8
 89 11 11 15 14 59.0800000  0  4G13G12G 3G 9
  21077660.649    21077667.280   -45746809.672 9  20669350.187 8
  20783902.465    20783907.366   -89444594.924 9 114824463.216 8
  21771276.392    21771280.290   -87304447.965 9  87035808.733 8
  23342909.587    23342917.602   -13568282.099 9  10296317.238 8
 89 11 11 15 15 29.0800000  0  4G13G12G 3G 9
  21084919.802    21084927.135   -45708658.708 8  20699078.098 8
  20791491.421    20791499.666   -89404707.268 9 114855544.421 8
  21764278.189    21764281.792   -87341225.804 8  87007150.621 8
  23365443.081    23365451.972   -13449869.059 9  10388586.908 9
 89 11 11 15 15 59.0800000  0  4G13G12G 3G 9
  21092210.679    21092217.926   -45670347.063 9  20728931.218 9
  20799197.833    20799204.777   -89364214.571 9 114887097.072 8
  21757323.957    21757329.056   -87377770.321 9  86978674.313 8
  23388015.502    23388023.277   -13331249.297 8  10481017.633 9
 89 11 11 15 16 29.0800000  0  4G13G12G 3G 9
  21099531.548    21099540.627   -45631875.893 9  20758908.656 8
  20807017.972    20807024.640   -89323118.612 9 114919119.796 8
  21750411.544    21750417.438   -87414082.581 8  86950378.975 9
  23410627.449    23410634.519   -13212426.251 9  10573606.767 8
 89 11 11 15 16 59.0800000  0  4G13G12G 3G 9
  21106883.941    21106890.171   -45593247.086 9  20789008.919 8
  20814953.035    20814960.178   -89281421.021 9 114951611.328 9
  21743544.957    21743552.145   -87450163.458 8  86922263.915 8
  23433276.970    23433285.170   -13093403.406 9  10666351.611 9
 89 11 11 15 17 29.0800000  0  4G13G12G 3G 9
  21114264.593    21114271.053   -45554462.495 9  20819230.580 9
  20823001.962    20823008.255   -89239122.798 9 114984570.879 8
  21736723.350    21736730.524   -87486013.340 9  86894328.876 8
  23455963.900    23455972.355   -12974183.975 9  10759249.628 8
 89 11 11 15 17 59.0800000  0  4G13G12G 3G 9
  21121674.250    21121681.298   -45515522.291 8  20849573.516 8
  20831166.592    20831172.262   -89196224.742 9 115017997.840 8
  21729944.270    21729951.551   -87521632.254 9  86866573.806 8
  23478686.962    23478696.036   -12854770.594 9  10852298.749 8
 89 11 11 15 18 29.0800000  0  4G13G12G 3G 9
  21129113.342    21129120.675   -45476427.771 9  20880036.672 7
  20839442.936    20839448.917   -89152728.387 9 115051891.008 9
  21723212.239    21723218.082   -87557020.749 9  86838998.286 8
  23501447.449    23501455.024   -12735166.299 9  10945496.654 9
 89 11 11 15 18 59.0800000  0  4G13G12G 3G 9
  21136581.524    21136589.359   -45437180.333 9  20910618.991 8
  20847833.546    20847840.532   -89108635.293 9 115086249.157 9
  21716521.146    21716527.540   -87592180.045 9  86811601.357 8
  23524242.798    23524251.649   -12615374.600 9  11038840.555 8
 89 11 11 15 19 29.0800000  0  4G13G12G 3G 9
  21144080.042    21144087.031   -45397781.555 9  20941319.217 8
  20856337.381    20856343.974   -89063947.022 9 115121071.068 8
  21709874.541    21709881.328   -87627110.509 9  86784382.748 7
  23547074.520    23547082.784   -12495398.837 9  11132327.905 9
 89 11 11 15 19 59.0800000  0  4G13G12G 3G 9
  21151605.833    21151612.780   -45358232.872 9  20972136.254 7
  20864953.898    20864961.041   -89018665.429 9 115156355.326 8
  21703271.507    21703278.466   -87661813.312 9  86757341.547 8
  23569939.057    23569948.166   -12375242.611 9  11225955.855 9
 89 11 11 15 20 29.0800000  0  4G13G12G 3G 9
  21159159.827    21159168.463   -45318535.300 9  21003069.313 8
  20873683.761    20873691.062   -88972791.843 9 115192100.861 8
  21696710.814    21696716.643   -87696288.773 9  86730477.485 8
  23592838.235    23592846.708   -12254908.635 9  11319722.319 9
 89 11 11 15 20 59.0800000  0  4G13G12G 3G 9
  21166741.639    21166750.617   -45278690.035 9  21034117.467 9
  20882526.058    20882533.191   -88926327.776 9 115228306.524 8
  21690193.578    21690199.886   -87730537.404 9  86703790.188 9
  23615770.508    23615779.585   -12134400.211 9  11413624.732 9
 89 11 11 15 21 29.0800000  0  4G13G12G 3G 9
  21174352.340    21174359.473   -45238699.014 9  21065279.177 8
  20891479.685    20891486.943   -88879274.934 9 115264970.975 9
  21683718.984    21683726.172   -87764559.993 9  86677279.016 8
  23638734.877    23638745.227   -12013720.573 9  11507660.539 9
 89 11 11 15 21 59.0800000  0  4G13G12G 3G 9
  21181988.927    21181995.030   -45198562.793 8  21096554.043 7
  20900545.661    20900550.769   -88831634.615 9 115302093.205 9
  21677288.104    21677294.011   -87798357.394 9  86650943.308 8
  23661731.527    23661740.829   -11892872.964 9  11601827.231 9
 89 11 11 15 22 29.0800000  0  4G13G12G 3G 9
  21189655.134    21189662.381   -45158283.435 9  21127940.429 7
  20909722.024    20909728.707   -88783409.266 9 115339671.280 8
  21670898.678    21670904.728   -87831930.407 9  86624782.454 8
  23684759.585    23684768.891   -11771861.011 9  11696121.981 8
 89 11 11 15 22 59.0800000  0  4G13G12G 3G 9
  21197347.599    21197352.485   -45117862.102 9  21159437.466 8
  20919010.679    20919017.691   -88734600.315 9 115377704.122 8
  21664553.424    21664559.947   -87865279.744 9  86598795.882 9
  23707818.623    23707827.635   -11650687.686 9  11790542.490 9
 89 11 11 15 23 29.0800000  0  4G13G12G 3G 9
  21205066.607    21205072.867   -45077299.828 9  21191044.312 8
  20928410.005    20928416.970   -88685209.093 9 115416190.681 8
  21658250.146    21658256.383   -87898405.862 9  86572983.263 9
  23730907.796    23730916.311   -11529356.124 9  11885086.266 9
 89 11 11 15 23 59.0800000  0  4G13G12G 3G 9
  21212812.488    21212818.347   -45036598.020 9  21222759.891 8
  20937918.829    20937926.423   -88635237.322 9 115455129.618 9
  21651988.630    21651994.523   -87931309.571 9  86547343.956 8
  23754025.012    23754034.597   -11407869.738 9  11979750.703 9
 89 11 11 15 24 29.0800000  0  4G13G12G 3G 9
  21220584.483    21220589.440   -44995757.452 9  21254583.606 7
  20947539.146    20947544.612   -88584687.034 9 115494519.344 8
  21645770.277    21645775.956   -87963991.816 9  86521877.209 8
  23777172.202    23777182.341   -11286231.775 9  12074533.237 9
 89 11 11 15 24 59.0800000  0  4G13G12G 3G 9
  21228381.990    21228387.492   -44954780.027 9  21286513.943 8
  20957266.557    20957275.303   -88533560.443 9 115534358.138 9
  21639591.833    21639597.783   -87996453.355 9  86496582.445 9
  23800348.432    23800358.085   -11164445.974 9  12169430.959 9
 89 11 11 15 25 29.0800000  0  4G13G12G 3G 9
  21236205.985    21236213.017   -44913666.475 9  21318550.344 8
  20967106.008    20967114.172   -88481858.876 9 115574644.960 8
  21633456.130    21633463.254   -88028694.512 9  86471459.404 8
  23823551.681    23823560.976   -11042514.726 9  12264442.033 9
 89 11 11 15 25 59.0800000  0  4G13G12G 3G 9
  21244055.250    21244061.896   -44872418.425 9  21350691.553 8
  20977054.206    20977060.331   -88429584.079 9 115615378.458 8
  21627364.170    21627369.162   -88060715.945 9  86446507.576 8
  23846781.328    23846790.415   -10920441.356 9  12359563.857 9
 89 11 11 15 26 29.0800000  0  4G13G12G 3G 9
  21251929.512    21251937.704   -44831037.359 9  21382936.413 8
  20987110.435    20987117.414   -88376738.161 9 115656556.994 9
  21621312.012    21621317.561   -88092518.899 9  86421726.004 8
  23870037.560    23870047.382   -10798229.613 9  12454793.476 9
 89 11 11 15 26 59.0800000  0  4G13G12G 3G 9
  21259828.916    21259836.435   -44789523.252 9  21415284.952 8
  20997274.680    20997282.128   -88323322.423 9 115698179.547 8
  21615301.486    21615305.870   -88124103.356 9  86397114.686 8
  23893319.228    23893329.647   -10675881.994 9  12550128.975 8
 89 11 11 15 27 29.0800000  0  4G13G12G 3G 9
  21267752.975    21267762.068   -44747878.079 9  21447735.608 8
  21007547.937    21007553.520   -88269339.372 9 115740244.152 8
  21609332.042    21609338.593   -88155469.897 9  86372673.160 8
  23916627.035    23916637.306   -10553401.874 9  12645567.708 9
 89 11 11 15 27 59.0800000  0  4G13G12G 3G 9
  21275701.874    21275710.166   -44706102.877 9  21480287.589 8
  21017927.685    21017935.902   -88214791.005 9 115782749.264 8
  21603403.687    21603409.959   -88186619.658 9  86348400.539 9
  23939958.781    23939969.783   -10430792.611 8  12741107.090 8
 89 11 11 15 28 29.0800000  0  4G13G12G 3G 9
  21283676.359    21283685.080   -44664198.688 9  21512940.064 8
  21028415.622    21028423.041   -88159679.309 9 115825693.336 9
  21597517.729    21597524.195   -88217553.224 9  86324296.384 7
  23963315.257    23963324.909   -10308057.583 9  12836744.460 9
 89 11 11 15 28 59.0800000  0  4G13G12G 3G 9
  21291674.567    21291682.687   -44622165.015 9  21545693.453 8
  21039010.538    21039018.075   -88104003.927 9 115869076.654 8
  21591672.410    21591678.818   -88248269.429 9  86300361.625 7
  23986695.057    23986704.434   -10185197.805 8  12932479.040 8
 89 11 11 15 29 29.0800000  0  4G13G12G 3G 9
  21299698.333    21299706.453   -44580003.140 9  21578546.734 8
  21049711.825    21049718.354   -88047766.893 9 115912897.614 8
  21585869.517    21585876.591   -88278769.126 9  86276595.579 9
  24010098.549    24010108.030   -10062216.590 8  13028308.248 9
 89 11 11 15 29 59.0800000  0  4G13G12G 3G 9
  21307746.180    21307754.172   -44537715.691 9  21611497.877 8
  21060519.076    21060526.885   -87990972.304 9 115957153.021 8
  21580104.895    21580113.321   -88309054.622 9  86252996.416 8
  24033522.754    24033532.435    -9939119.288 9  13124227.868 9
 89 11 11 15 30 29.0800000  0  4G13G12G 3G 9
  21315818.711    21315824.585   -44495304.184 9  21644545.677 8
  21071432.990    21071441.590   -87933621.969 9 116001841.486 9
  21574383.522    21574389.723   -88339126.713 9  86229563.536 8
  24056968.469    24056978.734    -9815908.756 9  13220235.721 8
 89 11 11 15 30 59.0800000  0  4G13G12G 3G 9
  21323912.477    21323918.865   -44452769.558 9  21677689.440 9
  21082452.414    21082458.603   -87875718.040 9 116046961.328 9
  21568701.829    21568706.205   -88368986.259 9  86206296.302 8
  24080437.594    24080446.772    -9692588.405 9  13316329.178 9
 89 11 11 15 31 29.0800000  0  4G13G12G 3G 9
  21332030.883    21332034.352   -44410112.786 9  21710928.364 8
  21093575.629    21093583.620   -87817262.921 9 116092510.654 9
  21563059.814    21563065.564   -88398633.795 9  86183194.276 8
  24103924.366    24103933.962    -9569161.247 9  13412505.846 7
 89 11 11 15 31 59.0800000  0  4G13G12G 3G 9
  21340171.039    21340175.138   -44367334.928 9  21744261.642 8
  21104804.124    21104812.119   -87758258.645 9 116138487.900 8
  21557458.610    21557464.732   -88428070.026 9  86160256.893 8
  24127431.411    24127442.244    -9445630.550 9  13508763.184 8
 89 11 11 15 32 29.0800000  0  4G13G12G 3G 9
  21348333.503    21348339.534   -44324437.272 6  21777688.298 7
  21116135.573    21116143.776   -87698707.211 9 116184891.512 8
  21551897.206    21551903.135   -88457295.681 9  86137483.581 9
  24150958.162    24150968.223    -9321999.572 9  13605098.667 9
 89 11 11 15 32 59.0800000  0  4G13G12G 3G 9
  21356519.692    21356525.479   -44281421.124 9  21811207.254 7
  21127572.188    21127578.907   -87638610.644 9 116231719.887 9
  21546374.037    21546381.397   -88486311.494 9  86114873.781 9
  24174503.849    24174514.077    -9198271.439 9  13701509.825 8
 89 11 11 15 33 29.0800000  0  4G13G12G 3G 9
  21364727.587    21364733.490   -44238287.880 9  21844817.462 7
  21139112.044    21139118.265   -87577971.379 9 116278971.145 9
  21540893.359    21540900.096   -88515118.040 9  86092427.059 8
  24198066.595    24198075.869    -9074449.445 9  13797994.152 8
 89 11 11 15 33 59.0800000  0  4G13G12G 3G 9
  21372957.462    21372965.396   -44195037.913 9  21878518.627 8
  21150753.835    21150762.045   -87516791.442 9 116326643.704 8
  21535451.481    21535457.674   -88543716.378 9  86070142.598 8
  24221645.275    24221657.278    -8950536.706 9  13894549.151 9
 89 11 11 15 34 29.0800000  0  4G13G12G 3G 9
  21381209.316    21381217.737   -44151672.322 9  21912309.875 9
  21162498.996    21162505.718   -87455072.905 9 116374735.965 9
  21530049.409    21530055.861   -88572106.738 9  86048020.180 9
  24245243.133    24245254.381    -8826536.333 9  13991172.451 8
 89 11 11 15 34 59.0800000  0  4G13G12G 3G 9
  21389482.032    21389491.970   -44108192.313 9  21946190.269 9
  21174345.129    21174351.518   -87392818.146 9 116423246.056 8
  21524686.625    21524692.762   -88600290.010 9  86026059.114 8
  24268856.029    24268867.413    -8702451.519 9  14087861.564 8
 89 11 11 15 35 29.0800000  0  4G13G12G 3G 9
  21397777.458    21397786.694   -44064598.832 9  21980159.082 8
  21186293.587    21186302.134   -87330029.250 9 116472172.364 8
  21519363.792    21519369.063   -88628266.737 9  86004259.000 9
  24292484.874    24292495.428    -8578285.247 8  14184614.155 9
 89 11 11 15 35 59.0800000  0  4G13G12G 3G 9
  21406095.005    21406104.170   -44020892.805 9  22014215.601 9
  21198343.627    21198351.544   -87266708.856 9 116521512.815 8
  21514079.114    21514083.884   -88656037.611 8  85982619.292 8
  24316126.896    24316138.653    -8454040.864 9  14281427.568 9
 89 11 11 15 36 29.0800000  0  4G13G12G 3G 9
  21414433.100    21414443.195   -43977075.537 9  22048358.798 9
  21210493.495    21210502.155   -87202859.095 9 116571265.750 9
  21508833.865    21508838.836   -88683603.297 9  85961139.467 7
  24339784.753    24339795.178    -8329721.570 8  14378299.327 9
 89 11 11 15 36 59.0800000  0  4G13G12G 3G 9
  21422793.475    21422801.680   -43933148.159 8  22082587.810 8
  21222744.535    21222752.437   -87138482.312 9 116621429.362 8
  21503625.899    21503633.273   -88710964.896 9  85939818.668 8
  24363455.001    24363465.830    -8205330.463 9  14475227.066 7
 89 11 11 15 37 29.0800000  0  4G13G12G 3G 9
  21431174.082    21431181.887   -43889111.215 9  22116902.184 8
  21235095.271    21235102.258   -87073581.308 9 116672001.457 8
  21498457.576    21498464.192   -88738122.751 9  85918656.634 8
  24387138.434    24387152.212    -8080870.718 9  14572208.291 8
 89 11 11 15 37 59.0800000  0  4G13G12G 3G 9
  21439574.336    21439582.270   -43844965.554 9  22151301.288 9
  21247544.791    21247551.731   -87008158.102 9 116722980.477 9
  21493329.462    21493336.700   -88765077.599 9  85897652.775 9
  24410837.962    24410849.003    -7956345.633 9  14669240.460 8
 89 11 11 15 38 29.0800000  0  4G13G12G 3G 9
  21447996.011    21448004.289   -43800712.601 9  22185783.990 8
  21260092.915    21260100.396   -86942214.792 9 116774364.759 8
  21488239.368    21488245.476   -88791830.064 9  85876806.626 9
  24434544.956    24434555.461    -7831758.050 8  14766321.325 9
 89 11 11 15 38 59.0800000  0  4G13G12G 3G 9
  21456437.476    21456444.108   -43756353.460 9  22220349.448 8
  21272739.792    21272748.560   -86875753.832 9 116826152.393 8
  21483186.127    21483191.984   -88818381.176 9  85856117.371 8
  24458264.102    24458276.460    -7707111.288 8  14863448.237 9
 89 11 11 15 39 29.0800000  0  4G13G12G 3G 9
  21464899.374    21464905.620   -43711888.901 9  22254997.035 8
  21285484.256    21285492.205   -86808777.837 9 116878341.378 9
  21478171.277    21478178.931   -88844731.187 9  85835584.822 9
  24481994.488    24482007.436    -7582408.695 8  14960618.629 9
 89 11 11 15 39 59.0800000  0  4G13G12G 3G 9
  21473380.046    21473386.478   -43667320.261 9  22289725.714 9
  21298328.373    21298336.680   -86741289.204 9 116930929.792 8
  21473195.170    21473203.131   -88870881.008 9  85815208.243 8
  24505734.636    24505748.457    -7457653.010 9  15057830.421 9
 89 11 11 15 40 29.0800000  0  4G13G12G 3G 9
  21481880.065    21481887.340   -43622648.337 9  22324534.888 8
  21311267.932    21311275.194   -86673290.854 9 116983915.407 9
  21468257.240    21468263.848   -88896831.197 9  85794987.222 8
  24529484.987    24529498.532    -7332847.578 9  15155080.983 8
 89 11 11 15 40 59.0800000  0  4G13G12G 3G 9
  21490401.117    21490408.693   -43577873.326 9  22359424.382 8
  21324304.118    21324310.908   -86604784.908 9 117037296.537 9
  21463357.122    21463364.961   -88922582.455 9  85774921.230 8
  24553246.499    24553256.806    -7207995.386 9  15252367.993 8
 89 11 11 15 41 29.0800000  0  4G13G12G 3G 9
  21498940.900    21498948.104   -43532996.434 9  22394393.250 8
  21337436.673    21337444.547   -86535773.798 9 117091071.299 8
  21458494.930    21458500.859   -88948135.459 9  85755009.710 8
  24577013.291    24577024.475    -7083099.630 9  15349688.972 8
 89 11 11 15 41 59.0800000  0  4G13G12G 3G 9
  21507499.457    21507507.748   -43488018.866 9  22429440.568 9
  21350664.076    21350672.816   -86466259.914 9 117145237.840 9
  21453669.484    21453677.123   -88973490.971 9  85735252.084 8
  24600788.021    24600798.443    -6958163.385 8  15447041.407 8
 89 11 11 15 42 29.0800000  0  4G13G12G 3G 9
  21516076.473    21516086.138   -43442941.800 8  22464565.400 8
  21363988.146    21363995.533   -86396245.785 9 117199794.162 9
  21448882.802    21448889.124   -88998649.600 9  85715647.873 9
  24624567.877    24624581.333    -6833189.635 7  15544423.080 7
 89 11 11 15 42 59.0800000  0  4G13G12G 3G 9
  21524673.650    21524683.272   -43397765.869 8  22499767.270 8
  21377406.451    21377413.971   -86325734.253 9 117254738.091 9
  21444132.751    21444139.202   -89023611.986 9  85696196.585 9
  24648356.251    24648372.265    -6708181.682 9  15641831.407 9
 89 11 11 15 43 29.0800000  0  4G13G12G 3G 9
  21533288.099    21533297.263   -43352491.574 9  22535045.783 7
  21390918.167    21390926.617   -86254727.786 9 117310067.674 9
  21439418.917    21439426.319   -89048378.674 9  85676897.793 9
  24672151.679    24672164.373    -6583142.810 9  15739263.836 8
 89 11 11 15 43 59.0800000  0  4G13G12G 3G 9
  21541923.825    21541932.060   -43307120.079 8  22570400.054 9
  21404523.795    21404532.334   -86183228.682 9 117365781.130 8
  21434743.703    21434751.206   -89072950.668 9  85657750.712 8
  24695951.408    24695963.206    -6458075.744 9  15836718.255 9
 89 11 11 15 44 29.0800000  0  4G13G12G 3G 9
  21550575.549    21550584.742   -43261652.705 9  22605829.065 8
  21418224.232    21418231.118   -86111239.681 9 117421876.314 8
  21430104.276    21430111.544   -89097328.507 9  85638754.918 8
  24719757.628    24719772.637    -6332983.805 7  15934192.002 8
 89 11 11 15 44 59.0800000  0  4G13G12G 3G 9
  21559246.304    21559255.226   -43216089.567 9  22641332.663 9
  21432015.617    21432022.739   -86038763.596 9 117478351.058 9
  21425502.104    21425508.534   -89121512.711 9  85619910.018 8
  24743567.638    24743576.658    -6207869.834 8  16031682.902 8
 89 11 11 15 45 29.0800000  0  4G13G12G 3G 9
  21567935.246    21567944.654   -43170431.639 9  22676910.124 9
  21445898.982    21445907.517   -85965802.999 9 117535203.346 8
  21420936.492    21420944.574   -89145504.023 9  85601215.436 9
  24767375.061    24767390.938    -6082737.141 9  16129188.441 8
 89 11 11 15 45 59.0800000  0  4G13G12G 3G 9
  21576641.789    21576650.567   -43124680.320 9  22712560.350 9
  21459875.082    21459883.353   -85892360.700 9 117592430.960 9
  21416408.556    21416415.694   -89169302.989 9  85582670.742 8
  24791192.836    24791206.660    -5957588.825 9  16226706.140 9
 89 11 11 15 46 29.0800000  0  4G13G12G 3G 9
  21585366.890    21585375.655   -43078835.937 9  22748283.114 8
  21473942.367    21473950.544   -85818439.043 9 117650032.115 9
  21411916.149    21411922.207   -89192910.269 9  85564275.413 8
  24815011.038    24815022.079    -5832427.714 9  16324233.806 9
 89 11 11 15 46 59.0800000  0  4G13G12G 3G 9
  21594108.147    21594115.538   -43032899.458 9  22784077.670 8
  21488099.850    21488108.045   -85744041.012 9 117708004.466 9
  21407459.945    21407466.503   -89216326.677 9  85546028.812 7
  24838826.996    24838843.124    -5707257.009 8  16421768.918 8
 89 11 11 15 47 29.0800000  0  4G13G12G 3G 9
  21602866.274    21602873.993   -42986871.750 9  22819943.282 8
  21502347.659    21502355.501   -85669169.050 9 117766346.126 8
  21403040.165    21403047.045   -89239552.543 9  85527930.694 8
  24862651.443    24862664.985    -5582079.570 8  16519309.268 8
 89 11 11 15 47 59.0800000  0  4G13G12G 3G 9
  21611642.359    21611649.678   -42940753.563 9  22855879.404 8
  21516684.987    21516693.308   -85593826.139 9 117825054.733 8
  21398656.723    21398662.967   -89262588.873 9  85509980.272 8
  24886472.556    24886486.942    -5456898.699 7  16616852.260 8
 89 11 11 15 48 29.0800000  0  4G13G12G 3G 9
  21620435.587    21620444.222   -42894545.590 9  22891885.497 8
  21531111.558    21531118.913   -85518015.048 9 117884128.183 9
  21394309.161    21394316.957   -89285436.274 9  85492177.045 8
  24910296.152    24910307.537    -5331717.536 8  16714395.520 8
 89 11 11 15 48 59.0800000  0  4G13G12G 3G 9
  21629246.086    21629254.192   -42848249.163 9  22927960.497 9
  21545626.477    21545634.615   -85441738.504 9 117943564.324 9
  21389996.149    21390004.610   -89308095.284 9  85474520.619 8
  24934116.039    24934129.737    -5206538.761 9  16811936.927 8
 89 11 11 15 49 29.0800000  0  4G13G12G 3G 9
  21638072.339    21638080.588   -42801864.509 9  22964104.249 7
  21560229.459    21560237.840   -85364999.206 9 118003361.023 8
  21385719.603    21385728.201   -89330566.567 9  85457010.492 9
  24957936.343    24957948.228    -5081365.693 9  16909473.895 8
 89 11 11 15 49 59.0800000  0  4G13G12G 3G 9
  21646915.291    21646922.667   -42755392.064 9  23000316.419 7
  21574920.231    21574928.315   -85287800.091 9 118063516.042 9
  21381480.391    21381487.579   -89352850.669 9  85439646.206 9
  24981751.565    24981767.191    -4956201.100 8  17007004.215 8
 89 11 11 15 50 29.0800000  0  4G13G12G 3G 9
  21655776.087    21655783.119   -42708832.729 9  23036596.288 8
  21589697.849    21589705.680   -85210143.928 9 118124027.200 8
  21377274.590    21377281.656   -89374948.164 9  85422427.314 8
  25005572.327    25005582.534    -4831048.224 7  17104525.434 8
 89 11 11 15 50 59.0800000  0  4G13G12G 3G 9
  21664651.420    21664659.683   -42662187.961 9  23072942.698 7
  21604560.840    21604570.101   -85132033.656 9 118184892.201 9
  21373105.965    21373113.761   -89396859.913 9  85405353.167 8
  25029382.390    25029398.450    -4705909.983 8  17202035.152 8
 89 11 11 15 51 29.0800000  0  4G13G12G 3G 9
  21673543.854    21673553.877   -42615458.102 9  23109355.435 8
  21619510.569    21619519.397   -85053471.961 9 118246108.965 9
  21368971.310    21368979.035   -89418586.624 9  85388423.190 7
  25053192.016    25053207.032    -4580789.623 8  17299531.020 8
 89 11 11 15 51 59.0800000  0  4G13G12G 3G 9
  21682452.055    21682460.319   -42568643.815 9  23145833.951 8
  21634548.224    21634555.508   -84974461.716 9 118307675.251 8
  21364871.883    21364880.024   -89440128.792 8  85371637.008 8
  25076998.596    25077015.006    -4455689.855 8  17397010.821 8
 89 11 11 15 52 29.0800000  0  4G13G12G 3G 9
  21691376.756    21691385.305   -42521745.569 9  23182377.894 7
  21649666.512    21649675.094   -84895005.628 9 118369588.912 8
  21360808.295    21360815.140   -89461486.832 9  85354994.303 8
  25100799.554    25100814.477    -4330613.916 8  17494472.065 8
 89 11 11 15 52 59.0800000  0  4G13G12G 3G 9
  21700316.610    21700326.003   -42474764.278 9  23218986.554 7
  21664869.936    21664880.317   -84815106.650 9 118431847.708 9
  21356779.077    21356786.179   -89482661.349 9  85338494.599 7
  25124596.603    25124612.061    -4205564.624 9  17591912.495 8
 89 11 11 15 53 29.0800000  0  4G13G12G 3G 9
  21709273.119    21709282.757   -42427700.800 9  23255659.229 8
  21680160.546    21680168.448   -84734767.631 9 118494449.392 9
  21352784.480    21352790.838   -89503653.261 9  85322137.162 9
  25148389.380    25148405.895    -4080544.993 8  17689329.886 8
 89 11 11 15 53 59.0800000  0  4G13G12G 3G 9
  21718244.683    21718253.647   -42380555.522 9  23292395.665 8
  21695530.443    21695538.570   -84653991.787 9 118557391.447 9
  21348823.810    21348831.650   -89524463.021 9  85305921.658 8
  25172172.685    25172190.709    -3955558.109 8  17786721.738 7
 89 11 11 15 54 29.0800000  0  4G13G12G 3G 9
  21727232.544    21727241.765   -42333329.402 9  23329195.091 8
  21710983.641    21710992.748   -84572781.564 9 118620671.984 9
  21344898.999    21344905.758   -89545091.136 9  85289847.721 8
  25195952.012    25195967.610    -3830606.747 8  17884085.911 8
 89 11 11 15 54 59.0800000  0  4G13G12G 3G 9
  21736234.600    21736242.877   -42286023.076 9  23366057.011 9
  21726520.691    21726529.498   -84491140.123 9 118684288.536 9
  21341007.343    21341015.633   -89565538.356 9  85273914.710 8
  25219722.206    25219735.919    -3705694.123 7  17981419.844 7
 89 11 11 15 55 29.0800000  0  3G13G12G 3
                  21745269.365                    23402982.529 1
  21742137.879    21742146.905   -84409070.433 9 118748238.773 8
  21337150.622    21337158.658   -89585805.410 9  85258122.102 7
 89 11 11 15 55 59.0800000  0  3G13G12G 3
                  21754257.273                  -124351987.803 9
  21757835.811    21757845.650   -84326575.221 9 118812520.589 9
  21333329.270    21333335.760   -89605892.150 9  85242470.014 8
 89 11 11 15 56 29.0800000  0  3G13G12G 3
  21763331.947    21763339.792  -124304444.343 9 157912068.463 8
  21773615.469    21773623.306   -84243657.432 9 118877131.681 9
  21329540.351    21329549.213   -89625799.458 9  85226957.725 8
 89 11 11 15 56 59.0800000  0  3G13G12G 3
  21772394.174    21772401.910  -124256822.455 9 157949176.284 8
  21789473.671    21789482.954   -84160320.197 9 118942069.620 9
  21325786.586    21325792.109   -89645528.172 9  85211584.615 8
 89 11 11 15 57 29.0800000  0  3G13G12G 3
  21781472.258    21781480.548  -124209123.241 9 157986344.351 9
  21805411.545    21805420.902   -84076566.532 9 119007332.042 9
  21322065.956    21322073.733   -89665078.665 9  85196350.377 7
 89 11 11 15 57 59.0800000  0  3G13G12G 3
  21790563.390    21790571.151  -124161347.535 9 158023572.010 9
  21821428.896    21821437.349   -83992399.718 9 119072916.397 8
  21318378.368    21318389.728   -89684451.651 8  85181254.467 8
 89 11 11 15 58 29.0800000  0  3G13G12G 3
  21799668.783    21799677.567  -124113496.335 9 158060858.527 8
  21837523.101    21837531.438   -83907822.442 9 119138820.598 9
  21314725.797    21314736.250   -89703647.783 9  85166296.358 8
 89 11 11 15 58 59.0800000  0  3G13G12G 3
  21808788.889    21808798.028  -124065569.960 9 158098203.606 9
  21853695.376    21853703.542   -83822838.298 9 119205041.823 9
  21311107.495    21311114.812   -89722667.688 9  85151475.582 8
 89 11 11 15 59 29.0800000  0  3G13G12G 3
  21817922.896    21817933.141  -124017568.840 9 158135606.919 9
  21869943.519    21869953.284   -83737449.764 9 119271578.147 9
  21307522.521    21307529.626   -89741511.580 8  85136791.972 8
 89 11 11 15 59 59.0800000  0  3G13G12G 3
  21827073.171    21827081.713  -123969493.669 9 158173067.956 8
  21886269.718    21886279.643   -83651660.442 9 119338426.792 9
  21303969.789    21303977.999   -89760180.256 9  85122244.879 8
 89 11 11 16  0 29.0800000  0  3G13G12G 3
  21836235.223    21836243.775  -123921344.419 9 158210586.714 9
  21902670.766    21902679.515   -83565473.026 9 119405585.638 9
  21300449.080    21300457.451   -89778674.373 9  85107833.836 9
 89 11 11 16  0 59.0800000  0  3G13G12G 3
  21845411.270    21845420.336  -123873122.203 9 158248162.324 8
  21919146.054    21919155.208   -83478890.305 9 119473052.503 8
  21296963.207    21296970.967   -89796994.426 9  85093558.408 8
 89 11 11 16  1 29.0800000  0  3G13G12G 3
  21854602.049    21854611.253  -123824826.937 9 158285794.864 9
  21935697.879    21935706.216   -83391915.634 9 119540824.802 8
  21293510.101    21293518.414   -89815140.740 9  85079418.375 9
 89 11 11 16  1 59.0800000  0  3G13G12G 3
  21863805.426    21863814.927  -123776459.695 9 158323483.478 8
  21952323.268    21952332.006   -83304551.768 9 119608900.344 8
  21290090.284    21290099.249   -89833113.990 9  85065413.190 9
 89 11 11 16  2 29.0800000  0  3G13G12G 3
  21873024.099    21873032.357  -123728020.991 9 158361227.775 8
  21969020.762    21969029.601   -83216802.615 9 119677276.116 8
  21286702.394    21286710.855   -89850914.679 8  85051542.473 8
 89 11 11 16  2 59.0800000  0  3G13G12G 3
  21882255.600    21882264.809  -123679511.376 9 158399027.339 9
  21985792.189    21985800.770   -83128670.778 9 119745950.092 9
  21283349.056    21283356.901   -89868543.372 9  85037805.766 8
 89 11 11 16  3 29.0800000  0  3G13G12G 3
  21891499.366    21891508.928  -123630931.420 9 158436881.713 9
  22002634.120    22002644.608   -83040159.627 9 119814919.627 9
  21280026.749    21280035.027   -89886000.768 9  85024202.537 9
 89 11 11 16  3 59.0800000  0  3G13G12G 3
  21900756.975    21900766.338  -123582281.371 9 158474790.703 9
  22019550.533    22019559.216   -82951272.359 9 119884182.253 9
  21276737.804    21276745.636   -89903287.010 9  85010732.677 9
 89 11 11 16  4 29.0800000  0  3G13G12G 3
  21910026.627    21910037.559  -123533561.598 9 158512754.003 9
  22036535.755    22036545.966   -82862011.963 9 119953735.616 9
  21273480.447    21273488.346   -89920402.869 8  84997395.572 9
 89 11 11 16  4 59.0800000  0  3G13G12G 3
  21919312.535    21919322.022  -123484772.914 9 158550771.013 9
  22053591.022    22053601.176   -82772381.726 9 120023577.190 9
  21270255.413    21270263.354   -89937348.722 9  84984190.933 8
 89 11 11 16  5 29.0800000  0  3G13G12G 3
  21928608.806    21928619.601  -123435915.457 9 158588841.629 9
  22070718.935    22070727.732   -82682384.966 9 120093704.352 9
  21267063.645    21267071.568   -89954125.213 9  84971118.283 9
 89 11 11 16  5 59.0800000  0  3G13G12G 3
  21937919.288    21937930.191  -123386989.603 9 158626965.505 8
  22087913.329    22087922.940   -82592024.550 9 120164114.889 9
  21263904.472    21263911.337   -89970732.872 9  84958177.170 8
 89 11 11 16  6 29.0800000  0  3G13G12G 3
  21947241.890    21947252.010  -123337996.056 9 158665142.122 8
  22105177.440    22105188.012   -82501303.798 9 120234806.192 8
  21260776.414    21260782.561   -89987171.817 9  84945367.524 8
 89 11 11 16  6 59.0800000  0  3G13G12G 3
  21956577.784    21956588.367  -123288935.083 9 158703371.288 9
  22122508.861    22122518.444   -82410225.728 9 120305775.898 8
  21257679.624    21257687.820   -90003442.883 8  84932688.689 8
 89 11 11 16  7 29.0800000  0  3G13G12G 3
  21965927.835    21965938.317  -123239807.132 8 158741652.633 9
  22139907.790    22139918.444   -82318793.665 9 120377021.479 9
  21254614.423    21254622.442   -90019546.460 9  84920140.362 9
 89 11 11 16  7 59.0800000  0  3G13G12G 3
  21975290.000    21975300.346  -123190612.891 9 158779985.638 9
  22157372.745    22157383.041   -82227010.602 9 120448540.530 9
  21251582.213    21251590.858   -90035482.990 9  84907722.198 9
 89 11 11 16  8 29.0800000  0  3G13G12G 3
  21984663.560    21984674.441  -123141352.522 9 158818370.181 9
  22174905.051    22174915.635   -82134879.553 9 120520330.783 8
  21248582.583    21248589.846   -90051253.019 9  84895433.784 8
 89 11 11 16  8 59.0800000  0  3G13G12G 3
  21994049.428    21994061.079  -123092026.767 9 158856805.635 8
  22192503.580    22192513.907   -82042403.961 9 120592389.499 9
  21245612.533    21245620.488   -90066856.744 9  84883274.948 9
 89 11 11 16  9 29.0800000  0  3G13G12G 3
  22003448.679    22003459.530  -123042635.557 9 158895292.109 8
  22210165.601    22210175.709   -81949587.216 9 120664714.049 9
  21242675.119    21242682.385   -90082294.996 9  84871245.053 9
 89 11 11 16  9 59.0800000  0  3G13G12G 3
  22012861.171    22012871.373  -122993179.462 9 158933829.147 8
  22227893.253    22227902.879   -81856432.478 9 120737301.954 9
  21239769.454    21239776.479   -90097567.647 9  84859344.205 8
 89 11 11 16 10 29.0800000  0  3G13G12G 3
  22022284.355    22022294.358  -122943658.780 9 158972416.515 8
  22245682.398    22245693.983   -81762943.290 9 120810150.457 9
  21236894.422    21236901.123   -90112675.829 9  84847571.504 9
 89 11 11 16 10 59.0800000  0  3G13G12G 3
  22031720.334    22031730.296  -122894074.174 9 159011053.688 9
  22263537.063    22263546.588   -81669123.235 9 120883256.823 8
  21234050.871    21234057.624   -90127619.786 9  84835926.770 8
 89 11 11 16 11 29.0800000  0  3G13G12G 3
  22041167.500    22041178.638  -122844425.493 9 159049740.781 9
  22281452.796    22281463.242   -81574975.492 9 120956618.491 8
  21231238.708    21231245.084   -90142399.966 9  84824409.672 9
 89 11 11 16 11 59.0800000  0  3G13G12G 3
  22050628.051    22050638.616  -122794713.360 9 159088477.328 9
  22299430.303    22299440.532   -81480503.173 9 121030233.109 8
  21228456.812    21228463.362   -90157016.560 9  84813020.009 8
 89 11 11 16 12 29.0800000  0  3G13G12G 3
  22060099.926    22060110.653  -122744938.179 9 159127263.008 9
  22317468.718    22317480.184   -81385709.484 9 121104098.129 9
  21225705.744    21225712.194   -90171470.273 9  84801757.288 9
 89 11 11 16 12 59.0800000  0  3G13G12G 3
  22069583.821    22069594.490  -122695100.364 9 159166097.482 8
  22335568.725    22335578.820   -81290597.499 9 121178211.181 8
  21222985.909    21222993.206   -90185761.350 9  84790621.284 9
 89 11 11 16 13 29.0800000  0  3G13G12G 3
  22079078.591    22079089.299  -122645200.016 9 159204980.678 8
  22353727.674    22353738.015   -81195170.620 9 121252569.589 9
  21220299.055    21220304.967   -90199890.283 9  84779611.635 9
 89 11 11 16 13 59.0800000  0  3G13G12G 3
  22088586.556    22088597.853  -122595237.374 9 159243912.436 9
  22371946.993    22371956.276   -81099432.185 9 121327170.775 9
  21217640.636    21217647.024   -90213857.647 9  84768727.887 9
 89 11 11 16 14 29.0800000  0  3G13G12G 3
  22098106.928    22098117.024  -122545212.582 9 159282892.613 8
  22390223.523    22390234.406   -81003385.226 9 121402012.373 9
  21215012.747    21215020.070   -90227663.570 9  84757969.940 8
 89 11 11 16 14 59.0800000  0  3G13G12G 3
  22107637.491    22107648.224  -122495126.333 9 159321920.679 8
  22408558.075    22408569.060   -80907033.379 9 121477091.526 9
  21212416.579    21212424.122   -90241308.298 9  84747337.589 9
 89 11 11 16 15 29.0800000  0  3G13G12G 3
  22117180.469    22117191.930  -122444978.590 9 159360996.671 8
  22426951.105    22426962.349   -80810379.764 9 121552405.818 8
  21209850.100    21209857.722   -90254792.545 9  84736830.302 8
 89 11 11 16 15 59.0800000  0  3G13G12G 3
  22126733.753    22126746.426  -122394769.755 9 159400120.234 9
  22445400.346    22445412.277   -80713427.819 8 121627952.589 9
  21207314.207    21207322.568   -90268116.052 9  84726448.261 9
 89 11 11 16 16 29.0800000  0  3G13G12G 3
  22136301.610    22136312.502  -122344499.939 9 159439291.338 7
  22463906.510    22463917.322   -80616180.797 9 121703729.262 9
  21204809.456    21204816.344   -90281280.062 9  84716190.517 9
 89 11 11 16 16 59.0800000  0  3G13G12G 3
  22145879.342    22145888.881  -122294169.341 9 159478509.813 9
  22482466.874    22482478.462   -80518641.944 9 121779733.371 9
  21202334.911    21202342.117   -90294284.567 8  84706057.065 8
 89 11 11 16 17 29.0800000  0  3G13G12G 3
  22155468.839    22155479.735  -122243778.657 9 159517775.119 8
  22501084.017    22501094.001   -80420814.489 9 121855962.319 9
  21199889.476    21199898.830   -90307129.639 8  84696047.844 8
 89 11 11 16 17 59.0800000  0  3G13G12G 3
  22165067.425    22165081.057  -122193327.623 9 159557087.398 8
  22519754.089    22519765.491   -80322701.982 9 121932413.402 9
  21197475.635    21197483.736   -90319815.821 9  84686162.437 9
 89 11 11 16 18 29.0800000  0  3G13G12G 3
  22174681.128    22174692.446  -122142816.293 9 159596446.673 8
  22538478.928    22538488.951   -80224307.942 9 122009083.846 9
  21195092.066    21195099.455   -90332343.560 9  84676400.495 8
 89 11 11 16 18 59.0800000  0  3G13G12G 3
  22184304.985    22184314.921  -122092245.501 9 159635852.292 8
  22557254.377    22557266.363   -80125635.537 9 122085971.197 9
  21192737.827    21192747.619   -90344713.344 9  84666761.640 8
 89 11 11 16 19 29.0800000  0  3G13G12G 3
  22193939.633    22193950.644  -122041614.753 9 159675304.636 7
  22576083.995    22576095.482   -80026688.335 9 122163072.693 9
  21190414.661    21190421.007   -90356925.197 8  84657245.852 8
 89 11 11 16 19 59.0800000  0  3G13G12G 3
  22203586.203    22203597.495  -121990924.929 9 159714803.035 7
  22594966.144    22594976.716   -79927469.644 9 122240385.738 8
  21188120.519    21188128.389   -90368979.365 9  84647852.918 9
 89 11 11 16 20 29.0800000  0  3G13G12G 3
  22213243.052    22213255.891  -121940175.925 9 159754347.499 8
  22613896.734    22613908.377   -79827982.934 9 122317907.589 9
  21185857.068    21185864.131   -90380876.841 9  84638582.096 7
 89 11 11 16 20 59.0800000  0  3G13G12G 3
  22222912.218    22222923.384  -121889368.046 8 159793937.861 8
  22632879.463    22632890.206   -79728231.099 9 122395636.064 8
  21183622.419    21183630.271   -90392617.362 9  84629433.559 7
 89 11 11 16 21 29.0800000  0  3G13G12G 3
  22232592.706    22232601.824  -121838501.606 9 159833573.861 9
  22651910.285    22651923.318   -79628217.631 9 122473568.379 9
  21181417.458    21181426.783   -90404201.432 8  84620406.947 8
 89 11 11 16 21 59.0800000  0  3G13G12G 3
  22242283.082    22242293.203  -121787576.707 9 159873255.414 9
  22670993.965    22671003.247   -79527946.192 9 122551701.746 8
  21179243.502    21179251.612   -90415629.179 9  84611502.132 7
 89 11 11 16 22 29.0800000  0  3G13G12G 3
  22251984.175    22251996.504  -121736592.905 9 159912982.846 8
  22690121.447    22690134.608   -79427419.831 9 122630033.731 9
  21177097.278    21177107.322   -90426900.937 9  84602718.856 8
 89 11 11 16 22 59.0800000  0  3G13G12G 3
  22261696.773    22261709.241  -121685550.454 9 159952755.975 8
  22709301.387    22709311.187   -79326642.275 9 122708561.420 8
  21174983.083    21174993.837   -90438017.135 9  84594056.802 8
 89 11 11 16 23 29.0800000  0  3G13G12G 3
  22271422.561    22271433.721  -121634450.119 9 159992574.222 8
  22728522.839    22728535.985   -79225616.687 8 122787282.443 9
  21172897.260    21172906.881   -90448977.790 9  84585515.957 7
 89 11 11 16 23 59.0800000  0  3G13G12G 3
  22281157.360    22281168.283  -121583292.025 9 160032437.483 8
  22747796.818    22747807.745   -79124346.821 9 122866193.765 8
  21170840.623    21170850.015   -90459783.253 8  84577096.018 9
 89 11 11 16 24 29.0800000  0  3G13G12G 3
  22290903.342    22290913.463  -121532076.113 9 160072345.809 7
  22767111.494    22767123.692   -79022835.855 9 122945292.967 9
  21168813.297    21168822.852   -90470434.013 9  84568796.636 9
 89 11 11 16 24 59.0800000  0  3G13G12G 3
  22300660.448    22300671.225  -121480802.095 9 160112299.394 9
  22786475.806    22786487.808   -78921086.784 9 123024577.702 9
  21166817.135    21166827.228   -90480929.999 9  84560617.853 8
 89 11 11 16 25 29.0800000  0  3G13G12G 3
  22310429.771    22310440.466  -121429470.561 9 160152297.796 8
  22805882.530    22805893.876   -78819103.034 9 123104045.336 8
  21164850.789    21164858.384   -90491271.595 8  84552559.383 8
 89 11 11 16 25 59.0800000  0  3G13G12G 3
  22320207.356    22320219.147  -121378080.961 9 160192341.466 8
  22825333.285    22825345.417   -78716888.207 9 123183692.944 9
  21162912.552    21162921.791   -90501459.104 9  84544620.969 7
 89 11 11 16 26 29.0800000  0  3G13G12G 3
  22329997.624    22330011.721  -121326633.434 9 160232430.240 8
  22844828.621    22844840.154   -78614445.641 9 123263518.048 8
  21161003.319    21161010.752   -90511492.802 9  84536802.406 8
 89 11 11 16 26 59.0800000  0  3G13G12G 3
  22339798.391    22339811.161  -121275128.862 9 160272563.491 8
  22864363.971    22864377.718   -78511778.830 9 123343517.911 9
  21159123.761    21159132.352   -90521372.787 9  84529103.615 8
 89 11 11 16 27 29.0800000  0  3G13G12G 3
  22349610.849    22349622.659  -121223566.455 8 160312741.803 9
  22883944.783    22883955.972   -78408891.450 9 123423689.612 9
  21157272.509    21157280.454   -90531099.284 9  84521524.425 8
 89 11 11 16 27 59.0800000  0  3G13G12G 3
  22359433.533    22359446.730  -121171947.197 9 160352964.413 9
  22903563.459    22903575.226   -78305786.800 8 123504030.644 9
  21155451.435    21155458.895   -90540672.637 9  84514064.580 8
 89 11 11 16 28 29.0800000  0  3G13G12G 3
  22369268.832    22369279.588  -121120270.075 9 160393232.122 8
  22923226.343    22923238.377   -78202468.019 9 123584538.501 9
  21153658.878    21153666.186   -90550092.954 9  84506723.982 7
 89 11 11 16 28 59.0800000  0  3G13G12G 3
  22379111.996    22379124.722  -121068535.667 9 160433544.453 8
  22942925.780    22942938.256   -78098938.639 8 123665210.472 9
  21151895.815    21151902.286   -90559360.356 9  84499502.554 8
 89 11 11 16 29 29.0800000  0  3G13G12G 3
  22388968.903    22388980.349  -121016744.091 9 160473901.305 8
  22962668.297    22962679.646   -77995202.051 9 123746043.893 9
  21150161.108    21150168.523   -90568475.178 9  84492399.987 8
 89 11 11 16 29 59.0800000  0  3G13G12G 3
  22398836.299    22398847.513  -120964895.452 8 160514302.635 9
  22982446.222    22982459.300   -77891261.975 9 123827035.867 9
  21148455.565    21148462.669   -90577437.350 9  84485416.403 9
 89 11 11 16 30 29.0800000  0  3G13G12G 3
  22408713.547    22408724.927  -120912989.841 9 160554748.358 9
  23002264.872    23002275.656   -77787121.445 9 123908184.014 9
  21146778.915    21146786.289   -90586247.302 9  84478551.431 9
 89 11 11 16 30 59.0800000  0  3G13G12G 3
  22418601.783    22418612.502  -120861026.848 8 160595238.800 8
  23022118.085    23022131.086   -77682784.013 9 123989485.628 8
  21145131.338    21145139.813   -90594904.923 9  84471805.148 8
 89 11 11 16 31 29.0800000  0  3G13G12G 3
  22428500.190    22428512.651  -120809006.439 9 160635773.965 8
  23042010.901    23042023.624   -77578252.889 9 124070938.152 9
  21143512.209    21143521.040   -90603410.574 9  84465177.302 8
 89 11 11 16 31 59.0800000  0  3G13G12G 3
  22438411.069    22438422.902  -120756928.511 9 160676353.953 9
  23061938.873    23061952.111   -77473531.314 9 124152539.065 9
  21141922.244    21141931.091   -90611764.169 9  84458667.936 8
 89 11 11 16 32 29.0800000  0  3G13G12G 3
  22448332.282    22448345.784  -120704793.179 9 160716978.674 8
  23081903.584    23081915.857   -77368622.806 9 124234285.666 8
  21140362.653    21140370.500   -90619965.878 9  84452276.935 9
 89 11 11 16 32 59.0800000  0  3G13G12G 3
  22458265.179    22458277.737  -120652600.423 9 160757648.159 9
  23101899.793    23101915.011   -77263530.829 9 124316175.235 9
  21138829.895    21138838.786   -90628015.934 9  84446004.099 8
 89 11 11 16 33 29.0800000  0  3G13G12G 3
  22468207.648    22468220.214  -120600350.481 9 160798362.191 8
  23121935.615    23121947.539   -77158258.799 9 124398205.095 8
  21137326.026    21137335.575   -90635914.702 9  84439849.146 9
 89 11 11 16 33 59.0800000  0  3G13G12G 3
  22478161.158    22478174.412  -120548043.065 9 160839121.001 9
  23141998.934    23142014.936   -77052810.188 9 124480372.498 8
  21135850.763    21135861.209   -90643662.285 9  84433812.000 8
 89 11 11 16 34 29.0800000  0  3G13G12G 3
  22488126.513    22488139.057  -120495678.197 8 160879924.577 9
  23162100.784    23162112.360   -76947188.319 9 124562674.968 8
  21134405.459    21134415.070   -90651258.829 9  84427892.550 8
 89 11 11 16 34 59.0800000  0  3G13G12G 3
  22498102.235    22498115.674  -120443256.235 9 160920772.667 9
  23182229.868    23182244.624   -76841396.954 9 124645109.479 8
  21132989.465    21132998.025   -90658704.308 9  84422090.821 8
 89 11 11 16 35 29.0800000  0  3G13G12G 3
  22508087.660    22508100.885  -120390776.779 9 160961665.563 9
  23202394.868    23202407.683   -76735439.354 9 124727673.544 8
  21131601.317    21131608.866   -90665998.582 9  84416406.895 7
 89 11 11 16 35 59.0800000  0  3G13G12G 3
  22518085.034    22518097.813  -120338239.829 9 161002603.244 8
  23222588.475    23222602.171   -76629318.795 9 124810364.524 9
  21130243.242    21130250.459   -90673141.814 9  84410840.656 9
 89 11 11 16 36 29.0800000  0  3G13G12G 3
  22528095.864    22528106.597  -120285645.007 8 161043586.003 8
  23242814.256    23242826.554   -76523038.764 9 124893179.817 9
  21128912.785    21128919.763   -90680134.337 9  84405391.873 7
 89 11 11 16 36 59.0800000  0  3G13G12G 3
  22538114.866    22538127.057  -120232992.592 9 161084613.664 9
  23263068.791    23263081.565   -76416602.556 8 124976116.804 9
  21127610.561    21127619.767   -90686975.961 9  84400060.661 9
 89 11 11 16 37 29.0800000  0  3G13G12G 3
  22548145.347    22548156.608  -120180282.388 9 161125686.351 9
  23283353.043    23283365.904   -76310013.844 9 125059172.576 8
  21126337.273    21126346.132   -90693666.925 8  84394846.849 8
 89 11 11 16 37 59.0800000  0  3G13G12G 3
  22558187.006    22558199.667  -120127514.379 9 161166804.074 8
  23303663.991    23303677.012   -76203275.512 9 125142344.985 9
  21125092.501    21125101.779   -90700207.456 9  84389750.259 8
 89 11 11 16 38 29.0800000  0  3G13G12G 3
  22568239.103    22568251.743  -120074688.380 9 161207966.999 8
  23324003.518    23324016.604   -76096391.193 9 125225631.124 9
  21123875.590    21123885.097   -90706597.243 9  84384771.128 9
 89 11 11 16 38 59.0800000  0  3G13G12G 3
  22578303.040    22578313.929  -120021804.223 9 161249175.217 8
  23344368.514    23344384.104   -75989364.460 9 125309028.207 9
  21122688.598    21122697.573   -90712836.515 9  84379909.277 7
 89 11 11 16 39 29.0800000  0  3G13G12G 3
  22588375.857    22588390.452  -119968862.034 9 161290428.675 9
  23364763.572    23364778.124   -75882198.683 9 125392533.668 8
  21121530.082    21121539.300   -90718925.249 8  84375164.746 8
 89 11 11 16 39 59.0800000  0  3G13G12G 3
  22598462.505    22598477.328  -119915861.420 9 161331727.663 9
  23385183.344    23385196.740   -75774897.006 9 125476144.997 9
  21120401.068    21120409.591   -90724863.178 9  84370537.682 8
 89 11 11 16 40 29.0800000  0  3G13G12G 3
  22608560.113    22608574.159  -119862802.273 8 161373072.244 9
  23405626.533    23405641.676   -75667462.870 9 125559859.555 8
  21119299.433    21119308.470   -90730650.780 9  84366027.765 8
 89 11 11 16 40 59.0800000  0  3G13G12G 3
  22618669.018    22618681.657  -119809684.318 8 161414462.651 9
  23426095.093    23426109.999   -75559900.041 9 125643674.373 8
  21118227.315    21118234.736   -90736287.935 9  84361635.088 8
 89 11 11 16 41 29.0800000  0  3G13G12G 3
  22628788.164    22628800.634  -119756507.784 9 161455898.698 8
  23446589.142    23446603.619   -75452211.495 9 125727587.171 8
  21117183.904    21117191.733   -90741774.744 9  84357359.584 8
 89 11 11 16 41 59.0800000  0  3G13G12G 3
  22638917.766    22638932.218  -119703272.600 9 161497380.445 8
  23467103.154    23467118.727   -75344400.796 9 125811595.116 9
  21116169.166    21116176.037   -90747111.024 8  84353201.338 8
 89 11 11 16 42 29.0800000  0  3G13G12G 3
  22649060.939    22649073.439  -119649978.071 9 161538908.430 8
  23487644.085    23487659.140   -75236470.932 9 125895695.890 9
  21115181.127    21115189.389   -90752296.593 9  84349160.538 8
 89 11 11 16 42 59.0800000  0  3G13G12G 3
  22659213.361    22659226.393  -119596624.258 9 161580482.596 8
  23508202.462    23508218.322   -75128425.418 9 125979886.822 8
  21114223.758    21114231.537   -90757331.583 9  84345237.052 8
 89 11 11 16 43 29.0800000  0  3G13G12G 3
  22669376.771    22669391.299  -119543210.661 9 161622103.343 8
  23528785.995    23528798.815   -75020267.740 9 126064165.173 9
  21113294.531    21113301.377   -90762215.931 8  84341430.962 7
 89 11 11 16 43 59.0800000  0  3G13G12G 3
  22679552.804    22679567.099  -119489737.815 8 161663770.260 8
  23549386.521    23549402.707   -74912001.839 9 126148527.844 9
  21112393.509    21112402.443   -90766949.687 9  84337742.227 8
 89 11 11 16 44 29.0800000  0  3G13G12G 3
  22689740.951    22689753.422  -119436205.310 9 161705483.663 7
  23570012.168    23570025.066   -74803630.649 9 126232972.501 9
  21111521.504    21111528.869   -90771532.937 9  84334170.777 7
 89 11 11 16 44 59.0800000  0  3G13G12G 3
  22699937.513    22699952.709  -119382613.251 8 161747243.468 7
  23590652.531    23590668.625   -74695157.484 9 126317496.675 9
  21110677.034    21110686.852   -90775965.427 9  84330716.802 8
 89 11 11 16 45 29.0800000  0  3G13G12G 3
  22710146.737    22710162.815  -119328960.742 8 161789050.380 9
  23611311.959    23611330.778   -74586585.516 9 126402097.773 9
  21109862.269    21109871.658   -90780247.094 9  84327380.337 8
 89 11 11 16 45 59.0800000  0  3G13G12G 3
  22720370.272    22720383.585  -119275248.240 9 161830904.044 9
  23631992.337    23632009.224   -74477918.341 9 126486773.084 8
  21109075.646    21109086.367   -90784378.083 9  84324161.318 8
 89 11 11 16 46 29.0800000  0  3G13G12G 3
  22730602.681    22730616.042  -119221475.368 9 161872804.743 8
  23652688.626    23652705.191   -74369159.382 9 126571519.941 8
  21108317.545    21108329.239   -90788358.104 9  84321059.926 9
 89 11 11 16 46 59.0800000  0  3G13G12G 3
  22740848.449    22740861.155  -119167641.828 9 161914752.697 8
  23673400.763    23673419.499   -74260311.690 9 126656335.874 9
  21107588.234    21107600.528   -90792187.366 9  84318076.003 8
 89 11 11 16 47 29.0800000  0  3G13G12G 3
  22751104.409    22751117.318  -119113747.261 8 161956748.202 8
  23694134.462    23694146.300   -74151379.199 9 126741217.910 9
  21106889.927    21106899.949   -90795865.423 9  84315209.918 8
 89 11 11 16 47 59.0800000  0  3G13G12G 3
  22761370.387    22761385.641  -119059790.934 9 161998791.835 9
  23714876.770    23714891.510   -74042364.853 9 126826163.725 8
  21106218.884    21106228.703   -90799392.018 9  84312461.851 8
 89 11 11 16 48 29.0800000  0  3G13G12G 3
  22771648.790    22771665.032  -119005772.929 9 162040883.551 8
  23735637.341    23735655.178   -73933272.093 9 126911170.614 9
  21105575.656    21105586.507   -90802767.390 9  84309831.618 9
 89 11 11 16 48 59.0800000  0  3G13G12G 3
  22781942.065    22781956.138  -118951693.026 9 162083023.514 8
  23756414.139    23756427.320   -73824104.000 9 126996236.208 8
  21104963.578    21104973.156   -90805991.210 8  84307319.483 9
 89 11 11 16 49 29.0800000  0  3G13G12G 3
  22792243.768    22792258.059  -118897551.049 9 162125211.835 8
  23777196.678    23777215.374   -73714863.878 9 127081357.944 9
  21104378.206    21104389.507   -90809063.275 9  84304925.588 9
 89 11 11 16 49 59.0800000  0  3G13G12G 3
  22802559.416    22802573.087  -118843347.310 8 162167448.268 8
  23797999.537    23798016.852   -73605555.294 9 127166533.027 9
  21103824.278    21103832.827   -90811983.636 9  84302649.897 8
 89 11 11 16 50 29.0800000  0  3G13G12G 3
  22812887.129    22812899.917  -118789080.813 8 162209733.574 8
  23818812.995    23818831.419   -73496181.452 9 127251758.892 9
  21103297.122    21103306.162   -90814752.025 9  84300492.606 8
 89 11 11 16 50 59.0800000  0  3G13G12G 3
  22823223.937    22823239.205  -118734751.923 8 162252067.510 9
  23839637.425    23839657.572   -73386745.631 9 127337033.069 8
  21102799.496    21102808.198   -90817368.515 9  84298453.707 7
 89 11 11 16 51 29.0800000  0  3G13G12G 3
  22833574.773    22833591.086  -118680360.233 9 162294450.420 8
  23860476.372    23860491.063   -73277251.205 8 127422352.965 8
  21102330.441    21102339.805   -90819833.034 9  84296533.213 8
 89 11 11 16 51 59.0800000  0  3G13G12G 3
  22843937.536    22843952.114  -118625905.404 8 162336882.536 9
  23881321.018    23881342.432   -73167701.759 9 127507715.652 8
  21101891.987    21101899.162   -90822145.291 9  84294731.343 9
 89 11 11 16 52 29.0800000  0  3G13G12G 3
  22854314.149    22854327.088  -118571386.640 8 162379364.448 9
  23902177.003    23902197.624   -73058100.367 9 127593118.884 9
  21101480.672    21101487.946   -90824305.009 9  84293048.354 8
 89 11 11 16 52 59.0800000  0  3G13G12G 3
  22864698.937    22864713.024  -118516804.274 9 162421895.923 8
  23923042.301    23923060.158   -72948450.596 9 127678559.743 8
  21101098.672    21101106.547   -90826311.769 9  84291484.550 8
 89 11 11 16 53 29.0800000  0  3G13G12G 3
  22875098.103    22875113.348  -118462157.913 9 162464477.246 9
  23943917.191    23943935.972   -72838755.670 9 127764035.844 8
  21100746.348    21100753.594   -90828165.757 9  84290039.807 9
 89 11 11 16 53 59.0800000  0  3G13G12G 3
  22885508.522    22885524.314  -118407447.065 8 162507108.857 8
  23964803.283    23964823.518   -72729019.048 9 127849544.350 9
  21100422.290    21100429.947   -90829866.689 9  84288714.294 7
 89 11 11 16 54 29.0800000  0  3G13G12G 3
  22895933.632    22895949.010  -118352671.651 8 162549790.759 8
  23985692.780    23985707.444   -72619243.811 9 127935082.995 8
  21100126.185    21100136.779   -90831414.452 9  84287508.171 7
 89 11 11 16 54 59.0800000  0  3G13G12G 3
  22906369.671    22906383.579  -118297831.152 9 162592523.391 8
  24006585.907    24006604.731   -72509433.179 9 128020649.272 9
  21099859.674    21099870.887   -90832808.735 9  84286421.641 8
 89 11 11 16 55 29.0800000  0  3G13G12G 3
  22916818.023    22916831.484  -118242925.257 9 162635306.933 8
  24027492.215    24027510.942   -72399590.713 9 128106240.272 9
  21099624.475    21099634.296   -90834049.175 8  84285455.001 8
 89 11 11 16 55 59.0800000  0  3G13G12G 3
  22927278.254    22927294.719  -118187953.897 9 162678141.521 9
  24048406.868    24048424.344   -72289719.171 9 128191853.932 8
  21099417.934    21099428.500   -90835135.713 9  84284608.272 9
 89 11 11 16 56 29.0800000  0  3G13G12G 3
  22937751.398    22937766.872  -118132916.472 9 162721027.589 9
  24069317.909    24069332.509   -72179821.805 9 128277487.651 8
  21099240.718    21099252.293   -90836067.895 8  84283881.824 8
 89 11 11 16 56 59.0800000  0  3G13G12G 3
  22948238.826    22948251.483  -118077812.568 9 162763965.467 8
  24090226.053    24090252.428   -72069902.355 8 128363138.609 8
  21099092.656    21099103.879   -90836845.570 9  84283275.776 8
 89 11 11 16 57 29.0800000  0  3G13G12G 3
  22958737.031    22958753.249  -118022642.302 8 162806955.025 8
  24111154.146    24111161.512   -71959963.689 9 128448804.650 8
  21098974.444    21098985.169   -90837468.760 9  84282790.112 8
 89 11 11 16 57 59.0800000  0  3G13G12G 3
  22969248.158    22969263.198  -117967404.995 8 162849996.812 8
  24132078.764    24132091.803   -71850009.017 9 128534482.960 8
  21098885.271    21098896.251   -90837936.477 9  84282425.587 8
 89 11 11 16 58 29.0800000  0  3G13G12G 3
  22979772.177    22979788.136  -117912100.613 8 162893090.888 8
  24152999.915    24153023.206   -71740041.919 8 128620171.020 7
  21098826.456    21098836.497   -90838249.149 9  84282181.894 8
 89 11 11 16 58 59.0800000  0  3G13G12G 3
  22990309.249    22990324.239  -117856728.329 9 162936237.861 8
  24173935.956    24173954.898   -71630065.320 9 128705866.434 5
  21098796.668    21098806.364   -90838406.295 9  84282059.383 8
 89 11 11 16 59 29.0800000  0  3G13G12G 3
  23000862.379    23000875.314  -117801287.723 8 162979438.080 8
  24194880.192    24194875.495   -71578854.056 6 128791566.714 7
  21098797.077    21098807.185   -90838407.425 8  84282058.435 8
 89 11 11 16 59 59.0800000  0  3G13G12G 3
  23011424.134    23011438.413  -117745779.297 8 163022691.104 8
  24215794.250    24215811.946   -71468869.324 9 128877268.889 9
  21098826.871    21098836.034   -90838252.720 9  84282178.910 8
 89 11 11 17  0 29.0800000  0  3G13G12G 3
  23021999.434    23022016.077  -117690202.453 8 163065997.455 8
  24236723.752    24236741.961   -71358884.531 9 128962970.845 9
  21098886.437    21098894.784   -90837941.600 9  84282421.277 9
 89 11 11 17  0 59.0800000  0  3G13G12G 3
  23032587.864    23032603.666  -117634556.066 9 163109358.038 9
  24257647.205    24257669.781   -71248902.962 9 129048670.178 9
  21098975.540    21098983.845   -90837473.721 9  84282785.768 8
 89 11 11 17  1 29.0800000  0  3G13G12G 3
  23043193.228    23043206.932  -117578840.433 9 163152772.525 8
  24278571.288    24278588.571   -71138928.106 9 129134364.195 6
  21099094.821    21099103.069   -90836848.809 9  84283272.627 8
 89 11 11 17  1 59.0800000  0  3G13G12G 3
  23053806.510    23053822.704  -117523054.754 9 163196241.595 8
  24299505.636    24299525.889   -71028962.746 9 129220050.732 9
  21099242.807    21099251.880   -90836065.949 9  84283882.564 7
 89 11 11 17  2 29.0800000  0  3G13G12G 3
  23064436.070    23064452.385  -117467198.426 9 163239765.738 7
  24320429.243    24320449.473   -70919010.390 9 129305727.318 9
  21099422.327    21099431.833   -90835124.952 9  84284615.733 8
 89 11 11 17  2 59.0800000  0  3G13G12G 3
  23075078.618    23075096.008  -117411271.305 9 163283345.036 8
  24341349.740    24341362.178   -70809074.387 9 129391391.085 7
  21099630.409    21099640.861   -90834025.862 9  84285472.091 8
 89 11 11 17  3 29.0800000  0  3G13G12G 3
  23085734.913    23085751.645  -117355273.103 8 163326979.748 8
  24362267.556    24362287.899   -70699157.730 9 129477039.728 9
  21099869.545    21099879.310   -90832767.974 9  84286452.182 8
 89 11 11 17  3 59.0800000  0  3G13G12G 3
  23096406.325    23096421.391  -117299203.350 8 163370670.176 8
  24383180.779    24383197.105   -70589263.517 9 129562671.048 8
  21100139.487    21100148.467   -90831351.258 8  84287556.044 8
 89 11 11 17  4 29.0800000  0  3G13G12G 3
  23107087.330    23107104.020  -117243062.017 9 163414416.403 8
  24404087.492    24404109.731   -70479395.165 9 129648281.882 9
  21100438.309    21100448.394   -90829775.336 6  84288783.960 5
